<?xml version="1.0" encoding="UTF-8" standalone="no" ?>
<gpx xmlns="http://www.topografix.com/GPX/1/1" xmlns:xsi="http://www.w3.org/2001/XMLSchema-instance" xsi:schemaLocation="http://www.topografix.com/GPX/1/1 http://www.topografix.com/GPX/1/1/gpx.xsd" version="1.1" creator="VisuGPX - https://www.visugpx.com">
  <metadata>
    <name>L'Ombilic </name>
    <desc><![CDATA[Briancon-L'Ombilic ]]></desc>
  </metadata>
  <wpt lat="44.89355" lon="6.69987">
    <ele>2401.3</ele>
    <name><![CDATA[Ombilic]]></name>
    <type><![CDATA[user]]></type>
  </wpt>
  <trk>
    <name><![CDATA[Ombilic_03 FEB 2016]]></name>
    <trkseg>
      <trkpt lat="44.91644" lon="6.67622">
        <ele>1370.98</ele>
        <time>2016-02-03T09:16:17Z</time>
      </trkpt>
      <trkpt lat="44.91642" lon="6.6762">
        <ele>1370.5</ele>
        <time>2016-02-03T09:16:43Z</time>
      </trkpt>
      <trkpt lat="44.91634" lon="6.67628">
        <ele>1370.5</ele>
        <time>2016-02-03T09:17:12Z</time>
      </trkpt>
      <trkpt lat="44.91626" lon="6.67633">
        <ele>1370.5</ele>
        <time>2016-02-03T09:17:44Z</time>
      </trkpt>
      <trkpt lat="44.91632" lon="6.67631">
        <ele>1370.5</ele>
        <time>2016-02-03T09:18:16Z</time>
      </trkpt>
      <trkpt lat="44.91637" lon="6.67629">
        <ele>1366.65</ele>
        <time>2016-02-03T09:18:40Z</time>
      </trkpt>
      <trkpt lat="44.91639" lon="6.67627">
        <ele>1368.57</ele>
        <time>2016-02-03T09:18:43Z</time>
      </trkpt>
      <trkpt lat="44.91639" lon="6.67627">
        <ele>1370.5</ele>
        <time>2016-02-03T09:18:44Z</time>
      </trkpt>
      <trkpt lat="44.9164" lon="6.67626">
        <ele>1367.13</ele>
        <time>2016-02-03T09:18:48Z</time>
      </trkpt>
      <trkpt lat="44.9164" lon="6.67626">
        <ele>1370.02</ele>
        <time>2016-02-03T09:18:49Z</time>
      </trkpt>
      <trkpt lat="44.91639" lon="6.67627">
        <ele>1375.3</ele>
        <time>2016-02-03T09:18:51Z</time>
      </trkpt>
      <trkpt lat="44.91638" lon="6.67627">
        <ele>1370.98</ele>
        <time>2016-02-03T09:18:52Z</time>
      </trkpt>
      <trkpt lat="44.91645" lon="6.67623">
        <ele>1370.02</ele>
        <time>2016-02-03T09:19:19Z</time>
      </trkpt>
      <trkpt lat="44.91645" lon="6.6762">
        <ele>1370.02</ele>
        <time>2016-02-03T09:19:57Z</time>
      </trkpt>
      <trkpt lat="44.91646" lon="6.67621">
        <ele>1370.02</ele>
        <time>2016-02-03T09:20:30Z</time>
      </trkpt>
      <trkpt lat="44.91643" lon="6.67621">
        <ele>1370.5</ele>
        <time>2016-02-03T09:21:04Z</time>
      </trkpt>
      <trkpt lat="44.91641" lon="6.67622">
        <ele>1370.5</ele>
        <time>2016-02-03T09:21:20Z</time>
      </trkpt>
      <trkpt lat="44.91641" lon="6.67623">
        <ele>1370.5</ele>
        <time>2016-02-03T09:21:47Z</time>
      </trkpt>
      <trkpt lat="44.91641" lon="6.67625">
        <ele>1370.5</ele>
        <time>2016-02-03T09:22:27Z</time>
      </trkpt>
      <trkpt lat="44.91643" lon="6.67624">
        <ele>1370.5</ele>
        <time>2016-02-03T09:22:52Z</time>
      </trkpt>
      <trkpt lat="44.91644" lon="6.67619">
        <ele>1372.9</ele>
        <time>2016-02-03T09:23:18Z</time>
      </trkpt>
      <trkpt lat="44.91645" lon="6.67619">
        <ele>1370.98</ele>
        <time>2016-02-03T09:23:20Z</time>
      </trkpt>
      <trkpt lat="44.91642" lon="6.67624">
        <ele>1372.42</ele>
        <time>2016-02-03T09:23:38Z</time>
      </trkpt>
      <trkpt lat="44.91647" lon="6.67622">
        <ele>1371.94</ele>
        <time>2016-02-03T09:23:51Z</time>
      </trkpt>
      <trkpt lat="44.91653" lon="6.67624">
        <ele>1372.42</ele>
        <time>2016-02-03T09:23:57Z</time>
      </trkpt>
      <trkpt lat="44.91675" lon="6.6763">
        <ele>1373.38</ele>
        <time>2016-02-03T09:24:16Z</time>
      </trkpt>
      <trkpt lat="44.91693" lon="6.67644">
        <ele>1374.82</ele>
        <time>2016-02-03T09:24:33Z</time>
      </trkpt>
      <trkpt lat="44.91711" lon="6.67657">
        <ele>1375.3</ele>
        <time>2016-02-03T09:24:50Z</time>
      </trkpt>
      <trkpt lat="44.91711" lon="6.67667">
        <ele>1376.26</ele>
        <time>2016-02-03T09:25:05Z</time>
      </trkpt>
      <trkpt lat="44.9171" lon="6.67665">
        <ele>1375.78</ele>
        <time>2016-02-03T09:25:22Z</time>
      </trkpt>
      <trkpt lat="44.91708" lon="6.67667">
        <ele>1375.3</ele>
        <time>2016-02-03T09:25:39Z</time>
      </trkpt>
      <trkpt lat="44.91708" lon="6.67666">
        <ele>1376.26</ele>
        <time>2016-02-03T09:25:57Z</time>
      </trkpt>
      <trkpt lat="44.91708" lon="6.67665">
        <ele>1376.26</ele>
        <time>2016-02-03T09:26:16Z</time>
      </trkpt>
      <trkpt lat="44.9171" lon="6.67665">
        <ele>1376.26</ele>
        <time>2016-02-03T09:26:30Z</time>
      </trkpt>
      <trkpt lat="44.91708" lon="6.67671">
        <ele>1378.19</ele>
        <time>2016-02-03T09:26:43Z</time>
      </trkpt>
      <trkpt lat="44.91706" lon="6.67681">
        <ele>1377.23</ele>
        <time>2016-02-03T09:26:55Z</time>
      </trkpt>
      <trkpt lat="44.91707" lon="6.6769">
        <ele>1378.19</ele>
        <time>2016-02-03T09:27:09Z</time>
      </trkpt>
      <trkpt lat="44.91703" lon="6.67707">
        <ele>1379.63</ele>
        <time>2016-02-03T09:27:25Z</time>
      </trkpt>
      <trkpt lat="44.91703" lon="6.67718">
        <ele>1380.59</ele>
        <time>2016-02-03T09:27:42Z</time>
      </trkpt>
      <trkpt lat="44.91699" lon="6.67732">
        <ele>1381.55</ele>
        <time>2016-02-03T09:27:57Z</time>
      </trkpt>
      <trkpt lat="44.91696" lon="6.67746">
        <ele>1382.99</ele>
        <time>2016-02-03T09:28:11Z</time>
      </trkpt>
      <trkpt lat="44.91693" lon="6.6776">
        <ele>1384.44</ele>
        <time>2016-02-03T09:28:25Z</time>
      </trkpt>
      <trkpt lat="44.91689" lon="6.67773">
        <ele>1385.4</ele>
        <time>2016-02-03T09:28:38Z</time>
      </trkpt>
      <trkpt lat="44.91685" lon="6.67788">
        <ele>1386.84</ele>
        <time>2016-02-03T09:28:52Z</time>
      </trkpt>
      <trkpt lat="44.91682" lon="6.67805">
        <ele>1388.28</ele>
        <time>2016-02-03T09:29:07Z</time>
      </trkpt>
      <trkpt lat="44.91677" lon="6.67819">
        <ele>1389.72</ele>
        <time>2016-02-03T09:29:23Z</time>
      </trkpt>
      <trkpt lat="44.91671" lon="6.67833">
        <ele>1391.65</ele>
        <time>2016-02-03T09:29:39Z</time>
      </trkpt>
      <trkpt lat="44.91665" lon="6.67846">
        <ele>1393.09</ele>
        <time>2016-02-03T09:29:53Z</time>
      </trkpt>
      <trkpt lat="44.91658" lon="6.67861">
        <ele>1394.53</ele>
        <time>2016-02-03T09:30:09Z</time>
      </trkpt>
      <trkpt lat="44.9165" lon="6.67876">
        <ele>1395.97</ele>
        <time>2016-02-03T09:30:26Z</time>
      </trkpt>
      <trkpt lat="44.91646" lon="6.67886">
        <ele>1396.93</ele>
        <time>2016-02-03T09:30:39Z</time>
      </trkpt>
      <trkpt lat="44.9164" lon="6.6789">
        <ele>1397.41</ele>
        <time>2016-02-03T09:30:53Z</time>
      </trkpt>
      <trkpt lat="44.91632" lon="6.67901">
        <ele>1398.86</ele>
        <time>2016-02-03T09:31:07Z</time>
      </trkpt>
      <trkpt lat="44.91626" lon="6.67907">
        <ele>1399.82</ele>
        <time>2016-02-03T09:31:16Z</time>
      </trkpt>
      <trkpt lat="44.91617" lon="6.67918">
        <ele>1401.26</ele>
        <time>2016-02-03T09:31:31Z</time>
      </trkpt>
      <trkpt lat="44.91607" lon="6.67928">
        <ele>1402.7</ele>
        <time>2016-02-03T09:31:46Z</time>
      </trkpt>
      <trkpt lat="44.91598" lon="6.67936">
        <ele>1404.14</ele>
        <time>2016-02-03T09:32:00Z</time>
      </trkpt>
      <trkpt lat="44.9159" lon="6.67943">
        <ele>1405.58</ele>
        <time>2016-02-03T09:32:12Z</time>
      </trkpt>
      <trkpt lat="44.91581" lon="6.67949">
        <ele>1407.03</ele>
        <time>2016-02-03T09:32:26Z</time>
      </trkpt>
      <trkpt lat="44.91573" lon="6.67952">
        <ele>1408.47</ele>
        <time>2016-02-03T09:32:39Z</time>
      </trkpt>
      <trkpt lat="44.91563" lon="6.6796">
        <ele>1410.87</ele>
        <time>2016-02-03T09:32:54Z</time>
      </trkpt>
      <trkpt lat="44.91553" lon="6.67963">
        <ele>1412.31</ele>
        <time>2016-02-03T09:33:08Z</time>
      </trkpt>
      <trkpt lat="44.91544" lon="6.67966">
        <ele>1413.76</ele>
        <time>2016-02-03T09:33:24Z</time>
      </trkpt>
      <trkpt lat="44.91542" lon="6.67976">
        <ele>1413.76</ele>
        <time>2016-02-03T09:33:36Z</time>
      </trkpt>
      <trkpt lat="44.91537" lon="6.67985">
        <ele>1416.16</ele>
        <time>2016-02-03T09:33:51Z</time>
      </trkpt>
      <trkpt lat="44.91533" lon="6.67997">
        <ele>1417.6</ele>
        <time>2016-02-03T09:34:07Z</time>
      </trkpt>
      <trkpt lat="44.91526" lon="6.68014">
        <ele>1419.04</ele>
        <time>2016-02-03T09:34:24Z</time>
      </trkpt>
      <trkpt lat="44.91523" lon="6.68026">
        <ele>1420.49</ele>
        <time>2016-02-03T09:34:40Z</time>
      </trkpt>
      <trkpt lat="44.91519" lon="6.68035">
        <ele>1422.41</ele>
        <time>2016-02-03T09:34:54Z</time>
      </trkpt>
      <trkpt lat="44.91512" lon="6.68044">
        <ele>1423.85</ele>
        <time>2016-02-03T09:35:09Z</time>
      </trkpt>
      <trkpt lat="44.91503" lon="6.68052">
        <ele>1425.29</ele>
        <time>2016-02-03T09:35:25Z</time>
      </trkpt>
      <trkpt lat="44.91494" lon="6.68061">
        <ele>1427.21</ele>
        <time>2016-02-03T09:35:41Z</time>
      </trkpt>
      <trkpt lat="44.91486" lon="6.68069">
        <ele>1429.14</ele>
        <time>2016-02-03T09:35:57Z</time>
      </trkpt>
      <trkpt lat="44.91479" lon="6.6807">
        <ele>1430.58</ele>
        <time>2016-02-03T09:36:12Z</time>
      </trkpt>
      <trkpt lat="44.91471" lon="6.68074">
        <ele>1432.5</ele>
        <time>2016-02-03T09:36:27Z</time>
      </trkpt>
      <trkpt lat="44.91464" lon="6.68074">
        <ele>1432.98</ele>
        <time>2016-02-03T09:36:39Z</time>
      </trkpt>
      <trkpt lat="44.91458" lon="6.68076">
        <ele>1433.46</ele>
        <time>2016-02-03T09:36:52Z</time>
      </trkpt>
      <trkpt lat="44.91449" lon="6.68073">
        <ele>1435.87</ele>
        <time>2016-02-03T09:37:06Z</time>
      </trkpt>
      <trkpt lat="44.91438" lon="6.68075">
        <ele>1437.31</ele>
        <time>2016-02-03T09:37:22Z</time>
      </trkpt>
      <trkpt lat="44.91428" lon="6.68079">
        <ele>1438.27</ele>
        <time>2016-02-03T09:37:36Z</time>
      </trkpt>
      <trkpt lat="44.9142" lon="6.68074">
        <ele>1439.71</ele>
        <time>2016-02-03T09:37:51Z</time>
      </trkpt>
      <trkpt lat="44.91411" lon="6.68071">
        <ele>1441.63</ele>
        <time>2016-02-03T09:38:05Z</time>
      </trkpt>
      <trkpt lat="44.91399" lon="6.68067">
        <ele>1444.04</ele>
        <time>2016-02-03T09:38:21Z</time>
      </trkpt>
      <trkpt lat="44.91396" lon="6.68071">
        <ele>1444.04</ele>
        <time>2016-02-03T09:38:42Z</time>
      </trkpt>
      <trkpt lat="44.91395" lon="6.68071">
        <ele>1444.04</ele>
        <time>2016-02-03T09:38:57Z</time>
      </trkpt>
      <trkpt lat="44.91389" lon="6.68072">
        <ele>1445</ele>
        <time>2016-02-03T09:39:13Z</time>
      </trkpt>
      <trkpt lat="44.91391" lon="6.68062">
        <ele>1446.44</ele>
        <time>2016-02-03T09:39:27Z</time>
      </trkpt>
      <trkpt lat="44.91384" lon="6.68052">
        <ele>1449.32</ele>
        <time>2016-02-03T09:39:44Z</time>
      </trkpt>
      <trkpt lat="44.91376" lon="6.68051">
        <ele>1450.77</ele>
        <time>2016-02-03T09:39:57Z</time>
      </trkpt>
      <trkpt lat="44.91365" lon="6.68049">
        <ele>1453.17</ele>
        <time>2016-02-03T09:40:13Z</time>
      </trkpt>
      <trkpt lat="44.91357" lon="6.68051">
        <ele>1455.57</ele>
        <time>2016-02-03T09:40:29Z</time>
      </trkpt>
      <trkpt lat="44.91351" lon="6.68049">
        <ele>1457.98</ele>
        <time>2016-02-03T09:40:43Z</time>
      </trkpt>
      <trkpt lat="44.91344" lon="6.68048">
        <ele>1459.9</ele>
        <time>2016-02-03T09:40:56Z</time>
      </trkpt>
      <trkpt lat="44.91337" lon="6.68051">
        <ele>1462.78</ele>
        <time>2016-02-03T09:41:13Z</time>
      </trkpt>
      <trkpt lat="44.91329" lon="6.6805">
        <ele>1465.19</ele>
        <time>2016-02-03T09:41:30Z</time>
      </trkpt>
      <trkpt lat="44.91322" lon="6.68051">
        <ele>1467.11</ele>
        <time>2016-02-03T09:41:44Z</time>
      </trkpt>
      <trkpt lat="44.91316" lon="6.68051">
        <ele>1469.03</ele>
        <time>2016-02-03T09:41:59Z</time>
      </trkpt>
      <trkpt lat="44.9131" lon="6.6805">
        <ele>1471.44</ele>
        <time>2016-02-03T09:42:14Z</time>
      </trkpt>
      <trkpt lat="44.91306" lon="6.68053">
        <ele>1472.88</ele>
        <time>2016-02-03T09:42:31Z</time>
      </trkpt>
      <trkpt lat="44.91295" lon="6.68054">
        <ele>1472.88</ele>
        <time>2016-02-03T09:42:53Z</time>
      </trkpt>
      <trkpt lat="44.91292" lon="6.68056">
        <ele>1474.8</ele>
        <time>2016-02-03T09:43:05Z</time>
      </trkpt>
      <trkpt lat="44.91291" lon="6.68051">
        <ele>1477.68</ele>
        <time>2016-02-03T09:43:20Z</time>
      </trkpt>
      <trkpt lat="44.91289" lon="6.68054">
        <ele>1480.09</ele>
        <time>2016-02-03T09:43:35Z</time>
      </trkpt>
      <trkpt lat="44.91279" lon="6.68051">
        <ele>1482.97</ele>
        <time>2016-02-03T09:43:55Z</time>
      </trkpt>
      <trkpt lat="44.91274" lon="6.68052">
        <ele>1485.85</ele>
        <time>2016-02-03T09:44:10Z</time>
      </trkpt>
      <trkpt lat="44.9127" lon="6.68051">
        <ele>1488.26</ele>
        <time>2016-02-03T09:44:26Z</time>
      </trkpt>
      <trkpt lat="44.91266" lon="6.6805">
        <ele>1490.18</ele>
        <time>2016-02-03T09:44:41Z</time>
      </trkpt>
      <trkpt lat="44.9126" lon="6.68044">
        <ele>1492.58</ele>
        <time>2016-02-03T09:44:57Z</time>
      </trkpt>
      <trkpt lat="44.91252" lon="6.68039">
        <ele>1494.51</ele>
        <time>2016-02-03T09:45:12Z</time>
      </trkpt>
      <trkpt lat="44.91246" lon="6.68037">
        <ele>1496.91</ele>
        <time>2016-02-03T09:45:27Z</time>
      </trkpt>
      <trkpt lat="44.91241" lon="6.68033">
        <ele>1498.35</ele>
        <time>2016-02-03T09:45:41Z</time>
      </trkpt>
      <trkpt lat="44.91238" lon="6.68027">
        <ele>1499.79</ele>
        <time>2016-02-03T09:45:53Z</time>
      </trkpt>
      <trkpt lat="44.91237" lon="6.68026">
        <ele>1500.76</ele>
        <time>2016-02-03T09:46:05Z</time>
      </trkpt>
      <trkpt lat="44.91239" lon="6.68023">
        <ele>1501.72</ele>
        <time>2016-02-03T09:46:26Z</time>
      </trkpt>
      <trkpt lat="44.91238" lon="6.68013">
        <ele>1503.64</ele>
        <time>2016-02-03T09:46:42Z</time>
      </trkpt>
      <trkpt lat="44.91237" lon="6.68">
        <ele>1505.56</ele>
        <time>2016-02-03T09:46:58Z</time>
      </trkpt>
      <trkpt lat="44.9123" lon="6.67992">
        <ele>1507.97</ele>
        <time>2016-02-03T09:47:13Z</time>
      </trkpt>
      <trkpt lat="44.91225" lon="6.67989">
        <ele>1510.37</ele>
        <time>2016-02-03T09:47:29Z</time>
      </trkpt>
      <trkpt lat="44.91219" lon="6.6799">
        <ele>1513.25</ele>
        <time>2016-02-03T09:47:46Z</time>
      </trkpt>
      <trkpt lat="44.9121" lon="6.6799">
        <ele>1516.14</ele>
        <time>2016-02-03T09:48:05Z</time>
      </trkpt>
      <trkpt lat="44.91207" lon="6.67992">
        <ele>1518.06</ele>
        <time>2016-02-03T09:48:17Z</time>
      </trkpt>
      <trkpt lat="44.91202" lon="6.67995">
        <ele>1519.5</ele>
        <time>2016-02-03T09:48:31Z</time>
      </trkpt>
      <trkpt lat="44.91195" lon="6.67995">
        <ele>1521.9</ele>
        <time>2016-02-03T09:48:45Z</time>
      </trkpt>
      <trkpt lat="44.91192" lon="6.67999">
        <ele>1523.83</ele>
        <time>2016-02-03T09:49:00Z</time>
      </trkpt>
      <trkpt lat="44.91183" lon="6.68003">
        <ele>1525.75</ele>
        <time>2016-02-03T09:49:18Z</time>
      </trkpt>
      <trkpt lat="44.91179" lon="6.68014">
        <ele>1528.15</ele>
        <time>2016-02-03T09:49:33Z</time>
      </trkpt>
      <trkpt lat="44.91175" lon="6.68021">
        <ele>1530.08</ele>
        <time>2016-02-03T09:49:47Z</time>
      </trkpt>
      <trkpt lat="44.9117" lon="6.68026">
        <ele>1532</ele>
        <time>2016-02-03T09:50:02Z</time>
      </trkpt>
      <trkpt lat="44.91165" lon="6.68028">
        <ele>1533.92</ele>
        <time>2016-02-03T09:50:16Z</time>
      </trkpt>
      <trkpt lat="44.91162" lon="6.68032">
        <ele>1535.36</ele>
        <time>2016-02-03T09:50:30Z</time>
      </trkpt>
      <trkpt lat="44.9116" lon="6.68039">
        <ele>1537.77</ele>
        <time>2016-02-03T09:50:47Z</time>
      </trkpt>
      <trkpt lat="44.91155" lon="6.68032">
        <ele>1539.69</ele>
        <time>2016-02-03T09:51:04Z</time>
      </trkpt>
      <trkpt lat="44.9115" lon="6.68019">
        <ele>1542.09</ele>
        <time>2016-02-03T09:51:20Z</time>
      </trkpt>
      <trkpt lat="44.91145" lon="6.68019">
        <ele>1544.01</ele>
        <time>2016-02-03T09:51:37Z</time>
      </trkpt>
      <trkpt lat="44.91137" lon="6.68019">
        <ele>1546.42</ele>
        <time>2016-02-03T09:51:54Z</time>
      </trkpt>
      <trkpt lat="44.91134" lon="6.68027">
        <ele>1548.34</ele>
        <time>2016-02-03T09:52:07Z</time>
      </trkpt>
      <trkpt lat="44.91129" lon="6.68033">
        <ele>1550.74</ele>
        <time>2016-02-03T09:52:25Z</time>
      </trkpt>
      <trkpt lat="44.91128" lon="6.68041">
        <ele>1553.15</ele>
        <time>2016-02-03T09:52:39Z</time>
      </trkpt>
      <trkpt lat="44.91124" lon="6.68045">
        <ele>1555.55</ele>
        <time>2016-02-03T09:52:51Z</time>
      </trkpt>
      <trkpt lat="44.91117" lon="6.68049">
        <ele>1556.99</ele>
        <time>2016-02-03T09:53:07Z</time>
      </trkpt>
      <trkpt lat="44.91115" lon="6.68057">
        <ele>1558.92</ele>
        <time>2016-02-03T09:53:21Z</time>
      </trkpt>
      <trkpt lat="44.91114" lon="6.68067">
        <ele>1561.32</ele>
        <time>2016-02-03T09:53:39Z</time>
      </trkpt>
      <trkpt lat="44.91111" lon="6.68076">
        <ele>1564.2</ele>
        <time>2016-02-03T09:53:58Z</time>
      </trkpt>
      <trkpt lat="44.91109" lon="6.68077">
        <ele>1565.16</ele>
        <time>2016-02-03T09:54:13Z</time>
      </trkpt>
      <trkpt lat="44.91109" lon="6.68078">
        <ele>1565.16</ele>
        <time>2016-02-03T09:54:32Z</time>
      </trkpt>
      <trkpt lat="44.91111" lon="6.68074">
        <ele>1566.61</ele>
        <time>2016-02-03T09:54:52Z</time>
      </trkpt>
      <trkpt lat="44.91117" lon="6.68066">
        <ele>1565.16</ele>
        <time>2016-02-03T09:55:17Z</time>
      </trkpt>
      <trkpt lat="44.9111" lon="6.68057">
        <ele>1565.64</ele>
        <time>2016-02-03T09:55:47Z</time>
      </trkpt>
      <trkpt lat="44.91104" lon="6.68054">
        <ele>1566.12</ele>
        <time>2016-02-03T09:56:13Z</time>
      </trkpt>
      <trkpt lat="44.91104" lon="6.6806">
        <ele>1566.61</ele>
        <time>2016-02-03T09:56:37Z</time>
      </trkpt>
      <trkpt lat="44.9111" lon="6.68068">
        <ele>1567.57</ele>
        <time>2016-02-03T09:57:15Z</time>
      </trkpt>
      <trkpt lat="44.91106" lon="6.68065">
        <ele>1568.53</ele>
        <time>2016-02-03T09:57:47Z</time>
      </trkpt>
      <trkpt lat="44.91115" lon="6.68058">
        <ele>1569.01</ele>
        <time>2016-02-03T09:58:15Z</time>
      </trkpt>
      <trkpt lat="44.91109" lon="6.6806">
        <ele>1569.01</ele>
        <time>2016-02-03T09:58:41Z</time>
      </trkpt>
      <trkpt lat="44.91113" lon="6.68068">
        <ele>1569.01</ele>
        <time>2016-02-03T09:59:02Z</time>
      </trkpt>
      <trkpt lat="44.91109" lon="6.68068">
        <ele>1569.01</ele>
        <time>2016-02-03T09:59:27Z</time>
      </trkpt>
      <trkpt lat="44.91106" lon="6.68072">
        <ele>1569.97</ele>
        <time>2016-02-03T09:59:45Z</time>
      </trkpt>
      <trkpt lat="44.91109" lon="6.6808">
        <ele>1570.45</ele>
        <time>2016-02-03T10:00:00Z</time>
      </trkpt>
      <trkpt lat="44.91102" lon="6.68084">
        <ele>1572.37</ele>
        <time>2016-02-03T10:00:13Z</time>
      </trkpt>
      <trkpt lat="44.91099" lon="6.68098">
        <ele>1574.78</ele>
        <time>2016-02-03T10:00:29Z</time>
      </trkpt>
      <trkpt lat="44.91097" lon="6.68099">
        <ele>1577.18</ele>
        <time>2016-02-03T10:00:45Z</time>
      </trkpt>
      <trkpt lat="44.91094" lon="6.681">
        <ele>1580.54</ele>
        <time>2016-02-03T10:00:54Z</time>
      </trkpt>
      <trkpt lat="44.91088" lon="6.68106">
        <ele>1580.54</ele>
        <time>2016-02-03T10:01:09Z</time>
      </trkpt>
      <trkpt lat="44.91088" lon="6.68109">
        <ele>1581.99</ele>
        <time>2016-02-03T10:01:23Z</time>
      </trkpt>
      <trkpt lat="44.91086" lon="6.68115">
        <ele>1584.39</ele>
        <time>2016-02-03T10:01:38Z</time>
      </trkpt>
      <trkpt lat="44.91083" lon="6.68117">
        <ele>1585.83</ele>
        <time>2016-02-03T10:01:53Z</time>
      </trkpt>
      <trkpt lat="44.91079" lon="6.68126">
        <ele>1587.27</ele>
        <time>2016-02-03T10:02:07Z</time>
      </trkpt>
      <trkpt lat="44.91075" lon="6.6813">
        <ele>1589.68</ele>
        <time>2016-02-03T10:02:25Z</time>
      </trkpt>
      <trkpt lat="44.91073" lon="6.68124">
        <ele>1592.08</ele>
        <time>2016-02-03T10:02:41Z</time>
      </trkpt>
      <trkpt lat="44.91067" lon="6.68115">
        <ele>1595.45</ele>
        <time>2016-02-03T10:02:55Z</time>
      </trkpt>
      <trkpt lat="44.91059" lon="6.68118">
        <ele>1596.41</ele>
        <time>2016-02-03T10:03:09Z</time>
      </trkpt>
      <trkpt lat="44.91055" lon="6.68121">
        <ele>1598.33</ele>
        <time>2016-02-03T10:03:23Z</time>
      </trkpt>
      <trkpt lat="44.91051" lon="6.68124">
        <ele>1600.73</ele>
        <time>2016-02-03T10:03:39Z</time>
      </trkpt>
      <trkpt lat="44.91048" lon="6.68129">
        <ele>1602.66</ele>
        <time>2016-02-03T10:03:53Z</time>
      </trkpt>
      <trkpt lat="44.91041" lon="6.68133">
        <ele>1604.1</ele>
        <time>2016-02-03T10:04:06Z</time>
      </trkpt>
      <trkpt lat="44.9104" lon="6.68137">
        <ele>1606.02</ele>
        <time>2016-02-03T10:04:19Z</time>
      </trkpt>
      <trkpt lat="44.91039" lon="6.68141">
        <ele>1607.94</ele>
        <time>2016-02-03T10:04:34Z</time>
      </trkpt>
      <trkpt lat="44.9104" lon="6.68146">
        <ele>1610.35</ele>
        <time>2016-02-03T10:04:48Z</time>
      </trkpt>
      <trkpt lat="44.91037" lon="6.68142">
        <ele>1611.79</ele>
        <time>2016-02-03T10:05:03Z</time>
      </trkpt>
      <trkpt lat="44.91033" lon="6.68146">
        <ele>1614.19</ele>
        <time>2016-02-03T10:05:18Z</time>
      </trkpt>
      <trkpt lat="44.9103" lon="6.68153">
        <ele>1616.11</ele>
        <time>2016-02-03T10:05:33Z</time>
      </trkpt>
      <trkpt lat="44.91026" lon="6.68158">
        <ele>1618.52</ele>
        <time>2016-02-03T10:05:48Z</time>
      </trkpt>
      <trkpt lat="44.91023" lon="6.6816">
        <ele>1620.44</ele>
        <time>2016-02-03T10:06:02Z</time>
      </trkpt>
      <trkpt lat="44.91023" lon="6.68168">
        <ele>1622.36</ele>
        <time>2016-02-03T10:06:16Z</time>
      </trkpt>
      <trkpt lat="44.91025" lon="6.68176">
        <ele>1624.28</ele>
        <time>2016-02-03T10:06:32Z</time>
      </trkpt>
      <trkpt lat="44.91024" lon="6.68186">
        <ele>1626.69</ele>
        <time>2016-02-03T10:06:47Z</time>
      </trkpt>
      <trkpt lat="44.91024" lon="6.68194">
        <ele>1628.61</ele>
        <time>2016-02-03T10:07:02Z</time>
      </trkpt>
      <trkpt lat="44.91032" lon="6.68198">
        <ele>1631.01</ele>
        <time>2016-02-03T10:07:16Z</time>
      </trkpt>
      <trkpt lat="44.91028" lon="6.68208">
        <ele>1633.42</ele>
        <time>2016-02-03T10:07:34Z</time>
      </trkpt>
      <trkpt lat="44.91032" lon="6.68211">
        <ele>1635.34</ele>
        <time>2016-02-03T10:07:47Z</time>
      </trkpt>
      <trkpt lat="44.91031" lon="6.6822">
        <ele>1637.26</ele>
        <time>2016-02-03T10:08:02Z</time>
      </trkpt>
      <trkpt lat="44.91031" lon="6.68227">
        <ele>1639.19</ele>
        <time>2016-02-03T10:08:16Z</time>
      </trkpt>
      <trkpt lat="44.91036" lon="6.68232">
        <ele>1641.11</ele>
        <time>2016-02-03T10:08:30Z</time>
      </trkpt>
      <trkpt lat="44.91038" lon="6.68236">
        <ele>1643.03</ele>
        <time>2016-02-03T10:08:44Z</time>
      </trkpt>
      <trkpt lat="44.9104" lon="6.68244">
        <ele>1645.43</ele>
        <time>2016-02-03T10:08:59Z</time>
      </trkpt>
      <trkpt lat="44.91046" lon="6.68247">
        <ele>1647.36</ele>
        <time>2016-02-03T10:09:14Z</time>
      </trkpt>
      <trkpt lat="44.91048" lon="6.6825">
        <ele>1649.28</ele>
        <time>2016-02-03T10:09:27Z</time>
      </trkpt>
      <trkpt lat="44.91051" lon="6.68257">
        <ele>1651.68</ele>
        <time>2016-02-03T10:09:43Z</time>
      </trkpt>
      <trkpt lat="44.91057" lon="6.68261">
        <ele>1653.6</ele>
        <time>2016-02-03T10:09:58Z</time>
      </trkpt>
      <trkpt lat="44.91064" lon="6.68267">
        <ele>1655.05</ele>
        <time>2016-02-03T10:10:13Z</time>
      </trkpt>
      <trkpt lat="44.91066" lon="6.68272">
        <ele>1656.01</ele>
        <time>2016-02-03T10:10:22Z</time>
      </trkpt>
      <trkpt lat="44.91072" lon="6.68285">
        <ele>1657.93</ele>
        <time>2016-02-03T10:10:39Z</time>
      </trkpt>
      <trkpt lat="44.91081" lon="6.6829">
        <ele>1659.37</ele>
        <time>2016-02-03T10:10:56Z</time>
      </trkpt>
      <trkpt lat="44.91089" lon="6.68297">
        <ele>1661.3</ele>
        <time>2016-02-03T10:11:12Z</time>
      </trkpt>
      <trkpt lat="44.91098" lon="6.68302">
        <ele>1663.7</ele>
        <time>2016-02-03T10:11:31Z</time>
      </trkpt>
      <trkpt lat="44.91103" lon="6.6831">
        <ele>1665.62</ele>
        <time>2016-02-03T10:11:47Z</time>
      </trkpt>
      <trkpt lat="44.91111" lon="6.68322">
        <ele>1667.54</ele>
        <time>2016-02-03T10:12:04Z</time>
      </trkpt>
      <trkpt lat="44.91116" lon="6.68331">
        <ele>1669.47</ele>
        <time>2016-02-03T10:12:20Z</time>
      </trkpt>
      <trkpt lat="44.91116" lon="6.68337">
        <ele>1670.91</ele>
        <time>2016-02-03T10:12:33Z</time>
      </trkpt>
      <trkpt lat="44.91116" lon="6.68345">
        <ele>1672.83</ele>
        <time>2016-02-03T10:12:47Z</time>
      </trkpt>
      <trkpt lat="44.91115" lon="6.68355">
        <ele>1675.23</ele>
        <time>2016-02-03T10:13:04Z</time>
      </trkpt>
      <trkpt lat="44.91112" lon="6.68363">
        <ele>1677.16</ele>
        <time>2016-02-03T10:13:17Z</time>
      </trkpt>
      <trkpt lat="44.91109" lon="6.68368">
        <ele>1679.08</ele>
        <time>2016-02-03T10:13:31Z</time>
      </trkpt>
      <trkpt lat="44.91104" lon="6.68374">
        <ele>1681.48</ele>
        <time>2016-02-03T10:13:47Z</time>
      </trkpt>
      <trkpt lat="44.91098" lon="6.68382">
        <ele>1683.41</ele>
        <time>2016-02-03T10:14:04Z</time>
      </trkpt>
      <trkpt lat="44.91097" lon="6.68385">
        <ele>1681.96</ele>
        <time>2016-02-03T10:14:23Z</time>
      </trkpt>
      <trkpt lat="44.91097" lon="6.68385">
        <ele>1682.44</ele>
        <time>2016-02-03T10:14:24Z</time>
      </trkpt>
      <trkpt lat="44.91099" lon="6.68387">
        <ele>1682.44</ele>
        <time>2016-02-03T10:15:00Z</time>
      </trkpt>
      <trkpt lat="44.91101" lon="6.68383">
        <ele>1682.44</ele>
        <time>2016-02-03T10:15:37Z</time>
      </trkpt>
      <trkpt lat="44.91098" lon="6.68378">
        <ele>1681.96</ele>
        <time>2016-02-03T10:16:18Z</time>
      </trkpt>
      <trkpt lat="44.91098" lon="6.6838">
        <ele>1683.89</ele>
        <time>2016-02-03T10:16:55Z</time>
      </trkpt>
      <trkpt lat="44.911" lon="6.68384">
        <ele>1681.96</ele>
        <time>2016-02-03T10:17:34Z</time>
      </trkpt>
      <trkpt lat="44.91101" lon="6.6838">
        <ele>1682.44</ele>
        <time>2016-02-03T10:17:51Z</time>
      </trkpt>
      <trkpt lat="44.91105" lon="6.6838">
        <ele>1682.44</ele>
        <time>2016-02-03T10:18:28Z</time>
      </trkpt>
      <trkpt lat="44.91102" lon="6.68385">
        <ele>1685.33</ele>
        <time>2016-02-03T10:18:56Z</time>
      </trkpt>
      <trkpt lat="44.91096" lon="6.68387">
        <ele>1683.89</ele>
        <time>2016-02-03T10:19:13Z</time>
      </trkpt>
      <trkpt lat="44.91092" lon="6.68391">
        <ele>1685.81</ele>
        <time>2016-02-03T10:19:25Z</time>
      </trkpt>
      <trkpt lat="44.91085" lon="6.68394">
        <ele>1687.73</ele>
        <time>2016-02-03T10:19:38Z</time>
      </trkpt>
      <trkpt lat="44.91077" lon="6.68403">
        <ele>1689.17</ele>
        <time>2016-02-03T10:19:51Z</time>
      </trkpt>
      <trkpt lat="44.91072" lon="6.68414">
        <ele>1691.58</ele>
        <time>2016-02-03T10:20:06Z</time>
      </trkpt>
      <trkpt lat="44.91068" lon="6.6842">
        <ele>1693.5</ele>
        <time>2016-02-03T10:20:19Z</time>
      </trkpt>
      <trkpt lat="44.91064" lon="6.68429">
        <ele>1694.46</ele>
        <time>2016-02-03T10:20:31Z</time>
      </trkpt>
      <trkpt lat="44.91061" lon="6.68439">
        <ele>1694.94</ele>
        <time>2016-02-03T10:20:47Z</time>
      </trkpt>
      <trkpt lat="44.91059" lon="6.68446">
        <ele>1697.83</ele>
        <time>2016-02-03T10:20:57Z</time>
      </trkpt>
      <trkpt lat="44.91058" lon="6.6846">
        <ele>1698.31</ele>
        <time>2016-02-03T10:21:12Z</time>
      </trkpt>
      <trkpt lat="44.91058" lon="6.68477">
        <ele>1699.27</ele>
        <time>2016-02-03T10:21:27Z</time>
      </trkpt>
      <trkpt lat="44.91055" lon="6.68492">
        <ele>1700.23</ele>
        <time>2016-02-03T10:21:42Z</time>
      </trkpt>
      <trkpt lat="44.91055" lon="6.68509">
        <ele>1702.63</ele>
        <time>2016-02-03T10:22:01Z</time>
      </trkpt>
      <trkpt lat="44.91054" lon="6.68523">
        <ele>1704.07</ele>
        <time>2016-02-03T10:22:19Z</time>
      </trkpt>
      <trkpt lat="44.91056" lon="6.68539">
        <ele>1705.52</ele>
        <time>2016-02-03T10:22:35Z</time>
      </trkpt>
      <trkpt lat="44.91059" lon="6.68558">
        <ele>1706.48</ele>
        <time>2016-02-03T10:22:51Z</time>
      </trkpt>
      <trkpt lat="44.91059" lon="6.68562">
        <ele>1706.48</ele>
        <time>2016-02-03T10:22:55Z</time>
      </trkpt>
      <trkpt lat="44.91061" lon="6.68581">
        <ele>1706</ele>
        <time>2016-02-03T10:23:07Z</time>
      </trkpt>
      <trkpt lat="44.91066" lon="6.68595">
        <ele>1706.48</ele>
        <time>2016-02-03T10:23:21Z</time>
      </trkpt>
      <trkpt lat="44.91063" lon="6.68607">
        <ele>1707.44</ele>
        <time>2016-02-03T10:23:33Z</time>
      </trkpt>
      <trkpt lat="44.91059" lon="6.68617">
        <ele>1708.88</ele>
        <time>2016-02-03T10:23:47Z</time>
      </trkpt>
      <trkpt lat="44.91054" lon="6.68621">
        <ele>1710.32</ele>
        <time>2016-02-03T10:24:00Z</time>
      </trkpt>
      <trkpt lat="44.91048" lon="6.68631">
        <ele>1713.21</ele>
        <time>2016-02-03T10:24:19Z</time>
      </trkpt>
      <trkpt lat="44.91047" lon="6.68647">
        <ele>1714.17</ele>
        <time>2016-02-03T10:24:35Z</time>
      </trkpt>
      <trkpt lat="44.91046" lon="6.68661">
        <ele>1715.13</ele>
        <time>2016-02-03T10:24:50Z</time>
      </trkpt>
      <trkpt lat="44.91044" lon="6.68673">
        <ele>1716.09</ele>
        <time>2016-02-03T10:25:03Z</time>
      </trkpt>
      <trkpt lat="44.91043" lon="6.68682">
        <ele>1717.53</ele>
        <time>2016-02-03T10:25:19Z</time>
      </trkpt>
      <trkpt lat="44.91039" lon="6.68687">
        <ele>1719.94</ele>
        <time>2016-02-03T10:25:33Z</time>
      </trkpt>
      <trkpt lat="44.91029" lon="6.6868">
        <ele>1721.86</ele>
        <time>2016-02-03T10:25:52Z</time>
      </trkpt>
      <trkpt lat="44.91023" lon="6.68668">
        <ele>1723.3</ele>
        <time>2016-02-03T10:26:11Z</time>
      </trkpt>
      <trkpt lat="44.91018" lon="6.68674">
        <ele>1725.22</ele>
        <time>2016-02-03T10:26:25Z</time>
      </trkpt>
      <trkpt lat="44.91015" lon="6.68678">
        <ele>1728.11</ele>
        <time>2016-02-03T10:26:40Z</time>
      </trkpt>
      <trkpt lat="44.91013" lon="6.68686">
        <ele>1729.55</ele>
        <time>2016-02-03T10:26:52Z</time>
      </trkpt>
      <trkpt lat="44.9101" lon="6.68692">
        <ele>1731.47</ele>
        <time>2016-02-03T10:27:07Z</time>
      </trkpt>
      <trkpt lat="44.91006" lon="6.68693">
        <ele>1733.39</ele>
        <time>2016-02-03T10:27:21Z</time>
      </trkpt>
      <trkpt lat="44.91001" lon="6.6869">
        <ele>1735.32</ele>
        <time>2016-02-03T10:27:36Z</time>
      </trkpt>
      <trkpt lat="44.90997" lon="6.68689">
        <ele>1736.76</ele>
        <time>2016-02-03T10:27:49Z</time>
      </trkpt>
      <trkpt lat="44.90992" lon="6.68687">
        <ele>1738.2</ele>
        <time>2016-02-03T10:28:03Z</time>
      </trkpt>
      <trkpt lat="44.90989" lon="6.68686">
        <ele>1739.64</ele>
        <time>2016-02-03T10:28:17Z</time>
      </trkpt>
      <trkpt lat="44.90986" lon="6.68702">
        <ele>1741.57</ele>
        <time>2016-02-03T10:28:36Z</time>
      </trkpt>
      <trkpt lat="44.90979" lon="6.68697">
        <ele>1743.49</ele>
        <time>2016-02-03T10:28:53Z</time>
      </trkpt>
      <trkpt lat="44.90975" lon="6.68694">
        <ele>1745.41</ele>
        <time>2016-02-03T10:29:08Z</time>
      </trkpt>
      <trkpt lat="44.90973" lon="6.68702">
        <ele>1746.85</ele>
        <time>2016-02-03T10:29:21Z</time>
      </trkpt>
      <trkpt lat="44.90967" lon="6.6871">
        <ele>1748.78</ele>
        <time>2016-02-03T10:29:38Z</time>
      </trkpt>
      <trkpt lat="44.90964" lon="6.68716">
        <ele>1751.18</ele>
        <time>2016-02-03T10:29:54Z</time>
      </trkpt>
      <trkpt lat="44.90961" lon="6.68722">
        <ele>1752.62</ele>
        <time>2016-02-03T10:30:08Z</time>
      </trkpt>
      <trkpt lat="44.90959" lon="6.68717">
        <ele>1754.54</ele>
        <time>2016-02-03T10:30:22Z</time>
      </trkpt>
      <trkpt lat="44.90955" lon="6.68713">
        <ele>1756.47</ele>
        <time>2016-02-03T10:30:37Z</time>
      </trkpt>
      <trkpt lat="44.9095" lon="6.68717">
        <ele>1758.39</ele>
        <time>2016-02-03T10:30:50Z</time>
      </trkpt>
      <trkpt lat="44.90946" lon="6.68717">
        <ele>1761.75</ele>
        <time>2016-02-03T10:31:03Z</time>
      </trkpt>
      <trkpt lat="44.90941" lon="6.68717">
        <ele>1761.27</ele>
        <time>2016-02-03T10:31:16Z</time>
      </trkpt>
      <trkpt lat="44.90936" lon="6.68726">
        <ele>1762.71</ele>
        <time>2016-02-03T10:31:30Z</time>
      </trkpt>
      <trkpt lat="44.9093" lon="6.68732">
        <ele>1764.64</ele>
        <time>2016-02-03T10:31:46Z</time>
      </trkpt>
      <trkpt lat="44.90925" lon="6.68736">
        <ele>1766.56</ele>
        <time>2016-02-03T10:32:01Z</time>
      </trkpt>
      <trkpt lat="44.90922" lon="6.68736">
        <ele>1768.48</ele>
        <time>2016-02-03T10:32:14Z</time>
      </trkpt>
      <trkpt lat="44.90917" lon="6.68729">
        <ele>1770.41</ele>
        <time>2016-02-03T10:32:28Z</time>
      </trkpt>
      <trkpt lat="44.90913" lon="6.68738">
        <ele>1772.33</ele>
        <time>2016-02-03T10:32:43Z</time>
      </trkpt>
      <trkpt lat="44.90907" lon="6.68746">
        <ele>1774.25</ele>
        <time>2016-02-03T10:32:59Z</time>
      </trkpt>
      <trkpt lat="44.90901" lon="6.68751">
        <ele>1775.69</ele>
        <time>2016-02-03T10:33:14Z</time>
      </trkpt>
      <trkpt lat="44.90894" lon="6.6876">
        <ele>1777.13</ele>
        <time>2016-02-03T10:33:28Z</time>
      </trkpt>
      <trkpt lat="44.90889" lon="6.68765">
        <ele>1779.54</ele>
        <time>2016-02-03T10:33:44Z</time>
      </trkpt>
      <trkpt lat="44.90885" lon="6.68771">
        <ele>1781.46</ele>
        <time>2016-02-03T10:33:57Z</time>
      </trkpt>
      <trkpt lat="44.90881" lon="6.68772">
        <ele>1783.38</ele>
        <time>2016-02-03T10:34:12Z</time>
      </trkpt>
      <trkpt lat="44.90877" lon="6.68766">
        <ele>1784.82</ele>
        <time>2016-02-03T10:34:25Z</time>
      </trkpt>
      <trkpt lat="44.90874" lon="6.6877">
        <ele>1786.75</ele>
        <time>2016-02-03T10:34:38Z</time>
      </trkpt>
      <trkpt lat="44.9087" lon="6.68772">
        <ele>1788.67</ele>
        <time>2016-02-03T10:34:52Z</time>
      </trkpt>
      <trkpt lat="44.90866" lon="6.6877">
        <ele>1792.03</ele>
        <time>2016-02-03T10:35:05Z</time>
      </trkpt>
      <trkpt lat="44.90863" lon="6.68773">
        <ele>1792.03</ele>
        <time>2016-02-03T10:35:17Z</time>
      </trkpt>
      <trkpt lat="44.90859" lon="6.68771">
        <ele>1793.48</ele>
        <time>2016-02-03T10:35:30Z</time>
      </trkpt>
      <trkpt lat="44.90855" lon="6.68768">
        <ele>1795.4</ele>
        <time>2016-02-03T10:35:43Z</time>
      </trkpt>
      <trkpt lat="44.90851" lon="6.68768">
        <ele>1796.84</ele>
        <time>2016-02-03T10:35:55Z</time>
      </trkpt>
      <trkpt lat="44.90848" lon="6.68769">
        <ele>1798.76</ele>
        <time>2016-02-03T10:36:07Z</time>
      </trkpt>
      <trkpt lat="44.90844" lon="6.68766">
        <ele>1800.69</ele>
        <time>2016-02-03T10:36:19Z</time>
      </trkpt>
      <trkpt lat="44.90839" lon="6.68774">
        <ele>1802.61</ele>
        <time>2016-02-03T10:36:35Z</time>
      </trkpt>
      <trkpt lat="44.90833" lon="6.68779">
        <ele>1805.01</ele>
        <time>2016-02-03T10:36:51Z</time>
      </trkpt>
      <trkpt lat="44.90826" lon="6.68785">
        <ele>1808.38</ele>
        <time>2016-02-03T10:37:07Z</time>
      </trkpt>
      <trkpt lat="44.90816" lon="6.68786">
        <ele>1808.38</ele>
        <time>2016-02-03T10:37:23Z</time>
      </trkpt>
      <trkpt lat="44.9081" lon="6.68787">
        <ele>1810.3</ele>
        <time>2016-02-03T10:37:39Z</time>
      </trkpt>
      <trkpt lat="44.90805" lon="6.6879">
        <ele>1812.7</ele>
        <time>2016-02-03T10:37:55Z</time>
      </trkpt>
      <trkpt lat="44.90798" lon="6.68795">
        <ele>1814.63</ele>
        <time>2016-02-03T10:38:10Z</time>
      </trkpt>
      <trkpt lat="44.90791" lon="6.68795">
        <ele>1816.55</ele>
        <time>2016-02-03T10:38:26Z</time>
      </trkpt>
      <trkpt lat="44.90784" lon="6.68799">
        <ele>1817.99</ele>
        <time>2016-02-03T10:38:38Z</time>
      </trkpt>
      <trkpt lat="44.90777" lon="6.688">
        <ele>1819.43</ele>
        <time>2016-02-03T10:38:53Z</time>
      </trkpt>
      <trkpt lat="44.90769" lon="6.68804">
        <ele>1822.8</ele>
        <time>2016-02-03T10:39:08Z</time>
      </trkpt>
      <trkpt lat="44.90763" lon="6.68811">
        <ele>1822.8</ele>
        <time>2016-02-03T10:39:20Z</time>
      </trkpt>
      <trkpt lat="44.90754" lon="6.68821">
        <ele>1824.72</ele>
        <time>2016-02-03T10:39:38Z</time>
      </trkpt>
      <trkpt lat="44.90747" lon="6.68831">
        <ele>1825.68</ele>
        <time>2016-02-03T10:39:53Z</time>
      </trkpt>
      <trkpt lat="44.90741" lon="6.68839">
        <ele>1826.64</ele>
        <time>2016-02-03T10:40:06Z</time>
      </trkpt>
      <trkpt lat="44.90736" lon="6.68843">
        <ele>1828.08</ele>
        <time>2016-02-03T10:40:19Z</time>
      </trkpt>
      <trkpt lat="44.90729" lon="6.68848">
        <ele>1828.56</ele>
        <time>2016-02-03T10:40:32Z</time>
      </trkpt>
      <trkpt lat="44.90723" lon="6.68853">
        <ele>1829.05</ele>
        <time>2016-02-03T10:40:40Z</time>
      </trkpt>
      <trkpt lat="44.90711" lon="6.68862">
        <ele>1830.49</ele>
        <time>2016-02-03T10:40:56Z</time>
      </trkpt>
      <trkpt lat="44.90705" lon="6.68865">
        <ele>1834.33</ele>
        <time>2016-02-03T10:41:09Z</time>
      </trkpt>
      <trkpt lat="44.90694" lon="6.68872">
        <ele>1833.85</ele>
        <time>2016-02-03T10:41:26Z</time>
      </trkpt>
      <trkpt lat="44.90686" lon="6.68877">
        <ele>1835.77</ele>
        <time>2016-02-03T10:41:40Z</time>
      </trkpt>
      <trkpt lat="44.90678" lon="6.68882">
        <ele>1837.22</ele>
        <time>2016-02-03T10:41:55Z</time>
      </trkpt>
      <trkpt lat="44.90668" lon="6.68883">
        <ele>1839.62</ele>
        <time>2016-02-03T10:42:13Z</time>
      </trkpt>
      <trkpt lat="44.90662" lon="6.68883">
        <ele>1841.54</ele>
        <time>2016-02-03T10:42:27Z</time>
      </trkpt>
      <trkpt lat="44.90652" lon="6.68882">
        <ele>1843.95</ele>
        <time>2016-02-03T10:42:45Z</time>
      </trkpt>
      <trkpt lat="44.90645" lon="6.68881">
        <ele>1845.87</ele>
        <time>2016-02-03T10:42:59Z</time>
      </trkpt>
      <trkpt lat="44.90638" lon="6.68882">
        <ele>1847.79</ele>
        <time>2016-02-03T10:43:13Z</time>
      </trkpt>
      <trkpt lat="44.90631" lon="6.68884">
        <ele>1849.23</ele>
        <time>2016-02-03T10:43:25Z</time>
      </trkpt>
      <trkpt lat="44.90625" lon="6.68882">
        <ele>1850.68</ele>
        <time>2016-02-03T10:43:40Z</time>
      </trkpt>
      <trkpt lat="44.90619" lon="6.68883">
        <ele>1851.64</ele>
        <time>2016-02-03T10:43:53Z</time>
      </trkpt>
      <trkpt lat="44.90619" lon="6.68886">
        <ele>1851.16</ele>
        <time>2016-02-03T10:44:16Z</time>
      </trkpt>
      <trkpt lat="44.90615" lon="6.68888">
        <ele>1851.16</ele>
        <time>2016-02-03T10:44:34Z</time>
      </trkpt>
      <trkpt lat="44.90616" lon="6.6889">
        <ele>1851.16</ele>
        <time>2016-02-03T10:44:51Z</time>
      </trkpt>
      <trkpt lat="44.90616" lon="6.6889">
        <ele>1849.71</ele>
        <time>2016-02-03T10:45:08Z</time>
      </trkpt>
      <trkpt lat="44.90617" lon="6.6889">
        <ele>1849.23</ele>
        <time>2016-02-03T10:45:43Z</time>
      </trkpt>
      <trkpt lat="44.90617" lon="6.68893">
        <ele>1848.75</ele>
        <time>2016-02-03T10:46:08Z</time>
      </trkpt>
      <trkpt lat="44.90611" lon="6.68895">
        <ele>1848.75</ele>
        <time>2016-02-03T10:46:33Z</time>
      </trkpt>
      <trkpt lat="44.9061" lon="6.68889">
        <ele>1848.75</ele>
        <time>2016-02-03T10:47:01Z</time>
      </trkpt>
      <trkpt lat="44.90616" lon="6.68888">
        <ele>1848.75</ele>
        <time>2016-02-03T10:47:24Z</time>
      </trkpt>
      <trkpt lat="44.90616" lon="6.6889">
        <ele>1849.23</ele>
        <time>2016-02-03T10:48:01Z</time>
      </trkpt>
      <trkpt lat="44.90613" lon="6.68892">
        <ele>1851.16</ele>
        <time>2016-02-03T10:48:32Z</time>
      </trkpt>
      <trkpt lat="44.90612" lon="6.68895">
        <ele>1850.68</ele>
        <time>2016-02-03T10:48:47Z</time>
      </trkpt>
      <trkpt lat="44.90614" lon="6.68891">
        <ele>1851.16</ele>
        <time>2016-02-03T10:49:04Z</time>
      </trkpt>
      <trkpt lat="44.90613" lon="6.68889">
        <ele>1851.16</ele>
        <time>2016-02-03T10:49:17Z</time>
      </trkpt>
      <trkpt lat="44.9061" lon="6.68894">
        <ele>1850.68</ele>
        <time>2016-02-03T10:49:29Z</time>
      </trkpt>
      <trkpt lat="44.90606" lon="6.68894">
        <ele>1850.68</ele>
        <time>2016-02-03T10:49:44Z</time>
      </trkpt>
      <trkpt lat="44.90598" lon="6.68903">
        <ele>1849.71</ele>
        <time>2016-02-03T10:50:00Z</time>
      </trkpt>
      <trkpt lat="44.90589" lon="6.6891">
        <ele>1849.23</ele>
        <time>2016-02-03T10:50:18Z</time>
      </trkpt>
      <trkpt lat="44.90587" lon="6.68915">
        <ele>1849.23</ele>
        <time>2016-02-03T10:50:34Z</time>
      </trkpt>
      <trkpt lat="44.90585" lon="6.68915">
        <ele>1849.23</ele>
        <time>2016-02-03T10:50:51Z</time>
      </trkpt>
      <trkpt lat="44.90573" lon="6.68922">
        <ele>1848.75</ele>
        <time>2016-02-03T10:51:05Z</time>
      </trkpt>
      <trkpt lat="44.9057" lon="6.68924">
        <ele>1848.27</ele>
        <time>2016-02-03T10:51:08Z</time>
      </trkpt>
      <trkpt lat="44.90555" lon="6.68937">
        <ele>1847.31</ele>
        <time>2016-02-03T10:51:26Z</time>
      </trkpt>
      <trkpt lat="44.90552" lon="6.6894">
        <ele>1846.83</ele>
        <time>2016-02-03T10:51:31Z</time>
      </trkpt>
      <trkpt lat="44.9055" lon="6.68942">
        <ele>1846.83</ele>
        <time>2016-02-03T10:51:33Z</time>
      </trkpt>
      <trkpt lat="44.90531" lon="6.68961">
        <ele>1844.43</ele>
        <time>2016-02-03T10:51:49Z</time>
      </trkpt>
      <trkpt lat="44.90516" lon="6.68976">
        <ele>1842.98</ele>
        <time>2016-02-03T10:52:02Z</time>
      </trkpt>
      <trkpt lat="44.9051" lon="6.68983">
        <ele>1842.5</ele>
        <time>2016-02-03T10:52:09Z</time>
      </trkpt>
      <trkpt lat="44.90504" lon="6.69015">
        <ele>1841.54</ele>
        <time>2016-02-03T10:52:26Z</time>
      </trkpt>
      <trkpt lat="44.90516" lon="6.69039">
        <ele>1840.58</ele>
        <time>2016-02-03T10:52:42Z</time>
      </trkpt>
      <trkpt lat="44.90536" lon="6.69064">
        <ele>1838.66</ele>
        <time>2016-02-03T10:53:00Z</time>
      </trkpt>
      <trkpt lat="44.90552" lon="6.69091">
        <ele>1837.22</ele>
        <time>2016-02-03T10:53:19Z</time>
      </trkpt>
      <trkpt lat="44.90562" lon="6.69125">
        <ele>1836.26</ele>
        <time>2016-02-03T10:53:38Z</time>
      </trkpt>
      <trkpt lat="44.90571" lon="6.69149">
        <ele>1834.81</ele>
        <time>2016-02-03T10:53:56Z</time>
      </trkpt>
      <trkpt lat="44.90578" lon="6.69164">
        <ele>1834.33</ele>
        <time>2016-02-03T10:54:09Z</time>
      </trkpt>
      <trkpt lat="44.90579" lon="6.6917">
        <ele>1834.33</ele>
        <time>2016-02-03T10:54:14Z</time>
      </trkpt>
      <trkpt lat="44.9058" lon="6.6918">
        <ele>1834.33</ele>
        <time>2016-02-03T10:54:26Z</time>
      </trkpt>
      <trkpt lat="44.9058" lon="6.69185">
        <ele>1834.33</ele>
        <time>2016-02-03T10:54:30Z</time>
      </trkpt>
      <trkpt lat="44.90573" lon="6.69208">
        <ele>1833.85</ele>
        <time>2016-02-03T10:54:47Z</time>
      </trkpt>
      <trkpt lat="44.90568" lon="6.69225">
        <ele>1833.37</ele>
        <time>2016-02-03T10:55:02Z</time>
      </trkpt>
      <trkpt lat="44.90561" lon="6.69242">
        <ele>1833.85</ele>
        <time>2016-02-03T10:55:17Z</time>
      </trkpt>
      <trkpt lat="44.9056" lon="6.69244">
        <ele>1832.89</ele>
        <time>2016-02-03T10:55:18Z</time>
      </trkpt>
      <trkpt lat="44.9055" lon="6.69264">
        <ele>1830.49</ele>
        <time>2016-02-03T10:55:35Z</time>
      </trkpt>
      <trkpt lat="44.90541" lon="6.69269">
        <ele>1830.97</ele>
        <time>2016-02-03T10:55:50Z</time>
      </trkpt>
      <trkpt lat="44.90541" lon="6.69275">
        <ele>1831.93</ele>
        <time>2016-02-03T10:56:06Z</time>
      </trkpt>
      <trkpt lat="44.90543" lon="6.69281">
        <ele>1832.89</ele>
        <time>2016-02-03T10:56:17Z</time>
      </trkpt>
      <trkpt lat="44.90545" lon="6.69288">
        <ele>1834.81</ele>
        <time>2016-02-03T10:56:31Z</time>
      </trkpt>
      <trkpt lat="44.90544" lon="6.69296">
        <ele>1836.26</ele>
        <time>2016-02-03T10:56:46Z</time>
      </trkpt>
      <trkpt lat="44.90542" lon="6.69294">
        <ele>1837.22</ele>
        <time>2016-02-03T10:56:58Z</time>
      </trkpt>
      <trkpt lat="44.90541" lon="6.69296">
        <ele>1838.18</ele>
        <time>2016-02-03T10:57:12Z</time>
      </trkpt>
      <trkpt lat="44.9054" lon="6.69299">
        <ele>1841.06</ele>
        <time>2016-02-03T10:57:18Z</time>
      </trkpt>
      <trkpt lat="44.9054" lon="6.693">
        <ele>1839.14</ele>
        <time>2016-02-03T10:57:19Z</time>
      </trkpt>
      <trkpt lat="44.90542" lon="6.69305">
        <ele>1839.14</ele>
        <time>2016-02-03T10:57:33Z</time>
      </trkpt>
      <trkpt lat="44.90542" lon="6.69304">
        <ele>1839.14</ele>
        <time>2016-02-03T10:57:54Z</time>
      </trkpt>
      <trkpt lat="44.9054" lon="6.693">
        <ele>1837.7</ele>
        <time>2016-02-03T10:58:12Z</time>
      </trkpt>
      <trkpt lat="44.9054" lon="6.693">
        <ele>1837.7</ele>
        <time>2016-02-03T10:58:43Z</time>
      </trkpt>
      <trkpt lat="44.90542" lon="6.69302">
        <ele>1837.7</ele>
        <time>2016-02-03T10:59:13Z</time>
      </trkpt>
      <trkpt lat="44.90543" lon="6.69301">
        <ele>1837.7</ele>
        <time>2016-02-03T10:59:37Z</time>
      </trkpt>
      <trkpt lat="44.90544" lon="6.69301">
        <ele>1837.7</ele>
        <time>2016-02-03T10:59:51Z</time>
      </trkpt>
      <trkpt lat="44.90543" lon="6.69303">
        <ele>1837.7</ele>
        <time>2016-02-03T11:00:13Z</time>
      </trkpt>
      <trkpt lat="44.90544" lon="6.69301">
        <ele>1838.18</ele>
        <time>2016-02-03T11:00:31Z</time>
      </trkpt>
      <trkpt lat="44.90543" lon="6.69301">
        <ele>1838.18</ele>
        <time>2016-02-03T11:00:50Z</time>
      </trkpt>
      <trkpt lat="44.90544" lon="6.69299">
        <ele>1837.22</ele>
        <time>2016-02-03T11:01:02Z</time>
      </trkpt>
      <trkpt lat="44.90542" lon="6.69304">
        <ele>1838.18</ele>
        <time>2016-02-03T11:01:14Z</time>
      </trkpt>
      <trkpt lat="44.90542" lon="6.69308">
        <ele>1841.06</ele>
        <time>2016-02-03T11:01:33Z</time>
      </trkpt>
      <trkpt lat="44.90542" lon="6.69316">
        <ele>1842.5</ele>
        <time>2016-02-03T11:01:47Z</time>
      </trkpt>
      <trkpt lat="44.9054" lon="6.69322">
        <ele>1843.95</ele>
        <time>2016-02-03T11:01:59Z</time>
      </trkpt>
      <trkpt lat="44.90539" lon="6.69329">
        <ele>1845.87</ele>
        <time>2016-02-03T11:02:13Z</time>
      </trkpt>
      <trkpt lat="44.90539" lon="6.69337">
        <ele>1847.31</ele>
        <time>2016-02-03T11:02:27Z</time>
      </trkpt>
      <trkpt lat="44.90537" lon="6.69345">
        <ele>1849.23</ele>
        <time>2016-02-03T11:02:40Z</time>
      </trkpt>
      <trkpt lat="44.90534" lon="6.69344">
        <ele>1851.16</ele>
        <time>2016-02-03T11:02:54Z</time>
      </trkpt>
      <trkpt lat="44.90532" lon="6.69349">
        <ele>1853.08</ele>
        <time>2016-02-03T11:03:08Z</time>
      </trkpt>
      <trkpt lat="44.90531" lon="6.69355">
        <ele>1855</ele>
        <time>2016-02-03T11:03:25Z</time>
      </trkpt>
      <trkpt lat="44.90527" lon="6.69357">
        <ele>1855.96</ele>
        <time>2016-02-03T11:03:40Z</time>
      </trkpt>
      <trkpt lat="44.90524" lon="6.69361">
        <ele>1857.4</ele>
        <time>2016-02-03T11:03:54Z</time>
      </trkpt>
      <trkpt lat="44.90522" lon="6.69369">
        <ele>1859.33</ele>
        <time>2016-02-03T11:04:12Z</time>
      </trkpt>
      <trkpt lat="44.90518" lon="6.69375">
        <ele>1861.25</ele>
        <time>2016-02-03T11:04:28Z</time>
      </trkpt>
      <trkpt lat="44.90516" lon="6.69382">
        <ele>1863.17</ele>
        <time>2016-02-03T11:04:41Z</time>
      </trkpt>
      <trkpt lat="44.90512" lon="6.69388">
        <ele>1864.61</ele>
        <time>2016-02-03T11:04:54Z</time>
      </trkpt>
      <trkpt lat="44.90509" lon="6.69387">
        <ele>1866.54</ele>
        <time>2016-02-03T11:05:08Z</time>
      </trkpt>
      <trkpt lat="44.90504" lon="6.69387">
        <ele>1867.98</ele>
        <time>2016-02-03T11:05:22Z</time>
      </trkpt>
      <trkpt lat="44.90499" lon="6.69387">
        <ele>1869.9</ele>
        <time>2016-02-03T11:05:35Z</time>
      </trkpt>
      <trkpt lat="44.90496" lon="6.69392">
        <ele>1871.34</ele>
        <time>2016-02-03T11:05:49Z</time>
      </trkpt>
      <trkpt lat="44.90494" lon="6.69394">
        <ele>1873.27</ele>
        <time>2016-02-03T11:06:02Z</time>
      </trkpt>
      <trkpt lat="44.90492" lon="6.69401">
        <ele>1874.71</ele>
        <time>2016-02-03T11:06:16Z</time>
      </trkpt>
      <trkpt lat="44.90488" lon="6.69405">
        <ele>1876.63</ele>
        <time>2016-02-03T11:06:32Z</time>
      </trkpt>
      <trkpt lat="44.90482" lon="6.69407">
        <ele>1878.07</ele>
        <time>2016-02-03T11:06:47Z</time>
      </trkpt>
      <trkpt lat="44.90476" lon="6.69412">
        <ele>1880</ele>
        <time>2016-02-03T11:07:03Z</time>
      </trkpt>
      <trkpt lat="44.90473" lon="6.69415">
        <ele>1881.44</ele>
        <time>2016-02-03T11:07:17Z</time>
      </trkpt>
      <trkpt lat="44.90468" lon="6.69421">
        <ele>1883.36</ele>
        <time>2016-02-03T11:07:34Z</time>
      </trkpt>
      <trkpt lat="44.90462" lon="6.69421">
        <ele>1885.28</ele>
        <time>2016-02-03T11:07:48Z</time>
      </trkpt>
      <trkpt lat="44.90457" lon="6.69425">
        <ele>1887.21</ele>
        <time>2016-02-03T11:08:02Z</time>
      </trkpt>
      <trkpt lat="44.90454" lon="6.69429">
        <ele>1889.13</ele>
        <time>2016-02-03T11:08:16Z</time>
      </trkpt>
      <trkpt lat="44.90448" lon="6.69429">
        <ele>1891.05</ele>
        <time>2016-02-03T11:08:30Z</time>
      </trkpt>
      <trkpt lat="44.90442" lon="6.6943">
        <ele>1892.97</ele>
        <time>2016-02-03T11:08:47Z</time>
      </trkpt>
      <trkpt lat="44.90438" lon="6.69431">
        <ele>1894.9</ele>
        <time>2016-02-03T11:09:00Z</time>
      </trkpt>
      <trkpt lat="44.90436" lon="6.69441">
        <ele>1896.34</ele>
        <time>2016-02-03T11:09:18Z</time>
      </trkpt>
      <trkpt lat="44.90432" lon="6.69446">
        <ele>1898.26</ele>
        <time>2016-02-03T11:09:35Z</time>
      </trkpt>
      <trkpt lat="44.90427" lon="6.69452">
        <ele>1900.18</ele>
        <time>2016-02-03T11:09:51Z</time>
      </trkpt>
      <trkpt lat="44.90422" lon="6.69458">
        <ele>1902.11</ele>
        <time>2016-02-03T11:10:06Z</time>
      </trkpt>
      <trkpt lat="44.90416" lon="6.69465">
        <ele>1903.55</ele>
        <time>2016-02-03T11:10:21Z</time>
      </trkpt>
      <trkpt lat="44.9041" lon="6.6947">
        <ele>1904.99</ele>
        <time>2016-02-03T11:10:36Z</time>
      </trkpt>
      <trkpt lat="44.90406" lon="6.69475">
        <ele>1907.39</ele>
        <time>2016-02-03T11:10:53Z</time>
      </trkpt>
      <trkpt lat="44.90401" lon="6.6948">
        <ele>1907.87</ele>
        <time>2016-02-03T11:11:05Z</time>
      </trkpt>
      <trkpt lat="44.90397" lon="6.69487">
        <ele>1909.32</ele>
        <time>2016-02-03T11:11:18Z</time>
      </trkpt>
      <trkpt lat="44.90393" lon="6.69492">
        <ele>1910.76</ele>
        <time>2016-02-03T11:11:32Z</time>
      </trkpt>
      <trkpt lat="44.90386" lon="6.69492">
        <ele>1912.2</ele>
        <time>2016-02-03T11:11:45Z</time>
      </trkpt>
      <trkpt lat="44.9038" lon="6.69489">
        <ele>1913.64</ele>
        <time>2016-02-03T11:11:58Z</time>
      </trkpt>
      <trkpt lat="44.90376" lon="6.69489">
        <ele>1915.08</ele>
        <time>2016-02-03T11:12:09Z</time>
      </trkpt>
      <trkpt lat="44.90372" lon="6.69489">
        <ele>1916.53</ele>
        <time>2016-02-03T11:12:21Z</time>
      </trkpt>
      <trkpt lat="44.90366" lon="6.69493">
        <ele>1918.45</ele>
        <time>2016-02-03T11:12:36Z</time>
      </trkpt>
      <trkpt lat="44.9036" lon="6.69496">
        <ele>1920.37</ele>
        <time>2016-02-03T11:12:52Z</time>
      </trkpt>
      <trkpt lat="44.90355" lon="6.69504">
        <ele>1922.29</ele>
        <time>2016-02-03T11:13:07Z</time>
      </trkpt>
      <trkpt lat="44.90351" lon="6.69516">
        <ele>1923.74</ele>
        <time>2016-02-03T11:13:23Z</time>
      </trkpt>
      <trkpt lat="44.90346" lon="6.69522">
        <ele>1926.14</ele>
        <time>2016-02-03T11:13:41Z</time>
      </trkpt>
      <trkpt lat="44.90345" lon="6.69516">
        <ele>1927.58</ele>
        <time>2016-02-03T11:13:53Z</time>
      </trkpt>
      <trkpt lat="44.90339" lon="6.69508">
        <ele>1929.02</ele>
        <time>2016-02-03T11:14:08Z</time>
      </trkpt>
      <trkpt lat="44.90333" lon="6.69508">
        <ele>1930.95</ele>
        <time>2016-02-03T11:14:24Z</time>
      </trkpt>
      <trkpt lat="44.90328" lon="6.69512">
        <ele>1933.35</ele>
        <time>2016-02-03T11:14:40Z</time>
      </trkpt>
      <trkpt lat="44.90325" lon="6.69514">
        <ele>1934.31</ele>
        <time>2016-02-03T11:14:53Z</time>
      </trkpt>
      <trkpt lat="44.90324" lon="6.69516">
        <ele>1935.27</ele>
        <time>2016-02-03T11:15:07Z</time>
      </trkpt>
      <trkpt lat="44.90321" lon="6.69525">
        <ele>1935.75</ele>
        <time>2016-02-03T11:15:21Z</time>
      </trkpt>
      <trkpt lat="44.90312" lon="6.69529">
        <ele>1937.67</ele>
        <time>2016-02-03T11:15:39Z</time>
      </trkpt>
      <trkpt lat="44.90304" lon="6.69527">
        <ele>1938.64</ele>
        <time>2016-02-03T11:15:52Z</time>
      </trkpt>
      <trkpt lat="44.90296" lon="6.6953">
        <ele>1940.56</ele>
        <time>2016-02-03T11:16:07Z</time>
      </trkpt>
      <trkpt lat="44.90287" lon="6.69534">
        <ele>1941.52</ele>
        <time>2016-02-03T11:16:22Z</time>
      </trkpt>
      <trkpt lat="44.90282" lon="6.69536">
        <ele>1943.44</ele>
        <time>2016-02-03T11:16:35Z</time>
      </trkpt>
      <trkpt lat="44.90277" lon="6.69538">
        <ele>1944.88</ele>
        <time>2016-02-03T11:16:48Z</time>
      </trkpt>
      <trkpt lat="44.90269" lon="6.69546">
        <ele>1946.33</ele>
        <time>2016-02-03T11:17:06Z</time>
      </trkpt>
      <trkpt lat="44.90264" lon="6.69553">
        <ele>1948.25</ele>
        <time>2016-02-03T11:17:22Z</time>
      </trkpt>
      <trkpt lat="44.90255" lon="6.69557">
        <ele>1949.69</ele>
        <time>2016-02-03T11:17:40Z</time>
      </trkpt>
      <trkpt lat="44.90249" lon="6.69563">
        <ele>1951.61</ele>
        <time>2016-02-03T11:17:53Z</time>
      </trkpt>
      <trkpt lat="44.90241" lon="6.69565">
        <ele>1953.06</ele>
        <time>2016-02-03T11:18:11Z</time>
      </trkpt>
      <trkpt lat="44.90237" lon="6.69568">
        <ele>1954.02</ele>
        <time>2016-02-03T11:18:23Z</time>
      </trkpt>
      <trkpt lat="44.90229" lon="6.69571">
        <ele>1955.94</ele>
        <time>2016-02-03T11:18:38Z</time>
      </trkpt>
      <trkpt lat="44.90222" lon="6.69575">
        <ele>1957.38</ele>
        <time>2016-02-03T11:18:53Z</time>
      </trkpt>
      <trkpt lat="44.90217" lon="6.69576">
        <ele>1959.78</ele>
        <time>2016-02-03T11:19:06Z</time>
      </trkpt>
      <trkpt lat="44.90211" lon="6.69573">
        <ele>1961.23</ele>
        <time>2016-02-03T11:19:20Z</time>
      </trkpt>
      <trkpt lat="44.90203" lon="6.69572">
        <ele>1962.19</ele>
        <time>2016-02-03T11:19:35Z</time>
      </trkpt>
      <trkpt lat="44.90195" lon="6.69571">
        <ele>1963.63</ele>
        <time>2016-02-03T11:19:52Z</time>
      </trkpt>
      <trkpt lat="44.90191" lon="6.69567">
        <ele>1965.55</ele>
        <time>2016-02-03T11:20:06Z</time>
      </trkpt>
      <trkpt lat="44.90186" lon="6.69567">
        <ele>1966.99</ele>
        <time>2016-02-03T11:20:19Z</time>
      </trkpt>
      <trkpt lat="44.90185" lon="6.69574">
        <ele>1967.48</ele>
        <time>2016-02-03T11:20:34Z</time>
      </trkpt>
      <trkpt lat="44.90176" lon="6.69571">
        <ele>1968.44</ele>
        <time>2016-02-03T11:20:49Z</time>
      </trkpt>
      <trkpt lat="44.90165" lon="6.69577">
        <ele>1970.36</ele>
        <time>2016-02-03T11:21:09Z</time>
      </trkpt>
      <trkpt lat="44.90161" lon="6.69581">
        <ele>1971.8</ele>
        <time>2016-02-03T11:21:24Z</time>
      </trkpt>
      <trkpt lat="44.90152" lon="6.69585">
        <ele>1973.72</ele>
        <time>2016-02-03T11:21:41Z</time>
      </trkpt>
      <trkpt lat="44.90146" lon="6.6959">
        <ele>1975.65</ele>
        <time>2016-02-03T11:21:56Z</time>
      </trkpt>
      <trkpt lat="44.90137" lon="6.69595">
        <ele>1977.09</ele>
        <time>2016-02-03T11:22:12Z</time>
      </trkpt>
      <trkpt lat="44.90133" lon="6.69598">
        <ele>1979.01</ele>
        <time>2016-02-03T11:22:28Z</time>
      </trkpt>
      <trkpt lat="44.90127" lon="6.69602">
        <ele>1980.93</ele>
        <time>2016-02-03T11:22:42Z</time>
      </trkpt>
      <trkpt lat="44.90122" lon="6.69606">
        <ele>1982.86</ele>
        <time>2016-02-03T11:22:56Z</time>
      </trkpt>
      <trkpt lat="44.90116" lon="6.69612">
        <ele>1984.3</ele>
        <time>2016-02-03T11:23:12Z</time>
      </trkpt>
      <trkpt lat="44.90109" lon="6.69618">
        <ele>1985.74</ele>
        <time>2016-02-03T11:23:28Z</time>
      </trkpt>
      <trkpt lat="44.90105" lon="6.69625">
        <ele>1987.18</ele>
        <time>2016-02-03T11:23:44Z</time>
      </trkpt>
      <trkpt lat="44.901" lon="6.6963">
        <ele>1989.1</ele>
        <time>2016-02-03T11:23:57Z</time>
      </trkpt>
      <trkpt lat="44.90095" lon="6.69636">
        <ele>1991.03</ele>
        <time>2016-02-03T11:24:11Z</time>
      </trkpt>
      <trkpt lat="44.9009" lon="6.6964">
        <ele>1991.99</ele>
        <time>2016-02-03T11:24:25Z</time>
      </trkpt>
      <trkpt lat="44.90086" lon="6.69647">
        <ele>1993.91</ele>
        <time>2016-02-03T11:24:40Z</time>
      </trkpt>
      <trkpt lat="44.90081" lon="6.69653">
        <ele>1996.32</ele>
        <time>2016-02-03T11:24:55Z</time>
      </trkpt>
      <trkpt lat="44.90075" lon="6.69656">
        <ele>1997.76</ele>
        <time>2016-02-03T11:25:09Z</time>
      </trkpt>
      <trkpt lat="44.90069" lon="6.69661">
        <ele>1999.2</ele>
        <time>2016-02-03T11:25:25Z</time>
      </trkpt>
      <trkpt lat="44.90067" lon="6.69663">
        <ele>2001.12</ele>
        <time>2016-02-03T11:25:39Z</time>
      </trkpt>
      <trkpt lat="44.90061" lon="6.69665">
        <ele>2002.56</ele>
        <time>2016-02-03T11:25:53Z</time>
      </trkpt>
      <trkpt lat="44.90057" lon="6.69673">
        <ele>2003.52</ele>
        <time>2016-02-03T11:26:06Z</time>
      </trkpt>
      <trkpt lat="44.90057" lon="6.69677">
        <ele>2004.49</ele>
        <time>2016-02-03T11:26:19Z</time>
      </trkpt>
      <trkpt lat="44.90055" lon="6.69681">
        <ele>2004.97</ele>
        <time>2016-02-03T11:26:32Z</time>
      </trkpt>
      <trkpt lat="44.90056" lon="6.69676">
        <ele>2003.52</ele>
        <time>2016-02-03T11:26:49Z</time>
      </trkpt>
      <trkpt lat="44.90058" lon="6.69681">
        <ele>2004.49</ele>
        <time>2016-02-03T11:27:09Z</time>
      </trkpt>
      <trkpt lat="44.90054" lon="6.69686">
        <ele>2005.45</ele>
        <time>2016-02-03T11:27:30Z</time>
      </trkpt>
      <trkpt lat="44.9005" lon="6.69692">
        <ele>2007.37</ele>
        <time>2016-02-03T11:27:45Z</time>
      </trkpt>
      <trkpt lat="44.90044" lon="6.69698">
        <ele>2008.33</ele>
        <time>2016-02-03T11:27:58Z</time>
      </trkpt>
      <trkpt lat="44.90039" lon="6.69706">
        <ele>2010.25</ele>
        <time>2016-02-03T11:28:12Z</time>
      </trkpt>
      <trkpt lat="44.90034" lon="6.69718">
        <ele>2011.7</ele>
        <time>2016-02-03T11:28:29Z</time>
      </trkpt>
      <trkpt lat="44.90031" lon="6.69726">
        <ele>2013.14</ele>
        <time>2016-02-03T11:28:44Z</time>
      </trkpt>
      <trkpt lat="44.90028" lon="6.69734">
        <ele>2014.1</ele>
        <time>2016-02-03T11:28:57Z</time>
      </trkpt>
      <trkpt lat="44.90025" lon="6.6974">
        <ele>2015.06</ele>
        <time>2016-02-03T11:29:11Z</time>
      </trkpt>
      <trkpt lat="44.90019" lon="6.69743">
        <ele>2016.98</ele>
        <time>2016-02-03T11:29:26Z</time>
      </trkpt>
      <trkpt lat="44.90013" lon="6.69748">
        <ele>2018.91</ele>
        <time>2016-02-03T11:29:42Z</time>
      </trkpt>
      <trkpt lat="44.9001" lon="6.69757">
        <ele>2020.35</ele>
        <time>2016-02-03T11:29:56Z</time>
      </trkpt>
      <trkpt lat="44.90006" lon="6.69762">
        <ele>2022.27</ele>
        <time>2016-02-03T11:30:09Z</time>
      </trkpt>
      <trkpt lat="44.90002" lon="6.69771">
        <ele>2023.71</ele>
        <time>2016-02-03T11:30:25Z</time>
      </trkpt>
      <trkpt lat="44.89999" lon="6.69776">
        <ele>2025.64</ele>
        <time>2016-02-03T11:30:38Z</time>
      </trkpt>
      <trkpt lat="44.89995" lon="6.6978">
        <ele>2027.08</ele>
        <time>2016-02-03T11:30:53Z</time>
      </trkpt>
      <trkpt lat="44.8999" lon="6.69783">
        <ele>2028.52</ele>
        <time>2016-02-03T11:31:06Z</time>
      </trkpt>
      <trkpt lat="44.89985" lon="6.69789">
        <ele>2029.96</ele>
        <time>2016-02-03T11:31:21Z</time>
      </trkpt>
      <trkpt lat="44.89979" lon="6.69792">
        <ele>2032.84</ele>
        <time>2016-02-03T11:31:34Z</time>
      </trkpt>
      <trkpt lat="44.89976" lon="6.69798">
        <ele>2033.81</ele>
        <time>2016-02-03T11:31:48Z</time>
      </trkpt>
      <trkpt lat="44.89971" lon="6.69804">
        <ele>2035.25</ele>
        <time>2016-02-03T11:32:02Z</time>
      </trkpt>
      <trkpt lat="44.89965" lon="6.69811">
        <ele>2036.69</ele>
        <time>2016-02-03T11:32:17Z</time>
      </trkpt>
      <trkpt lat="44.8996" lon="6.69819">
        <ele>2037.65</ele>
        <time>2016-02-03T11:32:31Z</time>
      </trkpt>
      <trkpt lat="44.89956" lon="6.69824">
        <ele>2040.54</ele>
        <time>2016-02-03T11:32:46Z</time>
      </trkpt>
      <trkpt lat="44.89952" lon="6.69826">
        <ele>2042.46</ele>
        <time>2016-02-03T11:33:00Z</time>
      </trkpt>
      <trkpt lat="44.89949" lon="6.69827">
        <ele>2044.38</ele>
        <time>2016-02-03T11:33:12Z</time>
      </trkpt>
      <trkpt lat="44.89945" lon="6.69833">
        <ele>2046.3</ele>
        <time>2016-02-03T11:33:30Z</time>
      </trkpt>
      <trkpt lat="44.89942" lon="6.69837">
        <ele>2047.75</ele>
        <time>2016-02-03T11:33:42Z</time>
      </trkpt>
      <trkpt lat="44.8994" lon="6.69846">
        <ele>2049.67</ele>
        <time>2016-02-03T11:33:57Z</time>
      </trkpt>
      <trkpt lat="44.89938" lon="6.69848">
        <ele>2050.63</ele>
        <time>2016-02-03T11:34:10Z</time>
      </trkpt>
      <trkpt lat="44.89933" lon="6.69847">
        <ele>2052.55</ele>
        <time>2016-02-03T11:34:22Z</time>
      </trkpt>
      <trkpt lat="44.89929" lon="6.69848">
        <ele>2053.99</ele>
        <time>2016-02-03T11:34:34Z</time>
      </trkpt>
      <trkpt lat="44.89927" lon="6.69855">
        <ele>2055.44</ele>
        <time>2016-02-03T11:34:47Z</time>
      </trkpt>
      <trkpt lat="44.89923" lon="6.6986">
        <ele>2057.36</ele>
        <time>2016-02-03T11:35:00Z</time>
      </trkpt>
      <trkpt lat="44.89921" lon="6.69867">
        <ele>2058.8</ele>
        <time>2016-02-03T11:35:13Z</time>
      </trkpt>
      <trkpt lat="44.89918" lon="6.69878">
        <ele>2059.76</ele>
        <time>2016-02-03T11:35:29Z</time>
      </trkpt>
      <trkpt lat="44.89919" lon="6.69886">
        <ele>2061.68</ele>
        <time>2016-02-03T11:35:43Z</time>
      </trkpt>
      <trkpt lat="44.8992" lon="6.69895">
        <ele>2063.13</ele>
        <time>2016-02-03T11:35:56Z</time>
      </trkpt>
      <trkpt lat="44.89922" lon="6.69898">
        <ele>2064.57</ele>
        <time>2016-02-03T11:36:09Z</time>
      </trkpt>
      <trkpt lat="44.89926" lon="6.69906">
        <ele>2066.49</ele>
        <time>2016-02-03T11:36:24Z</time>
      </trkpt>
      <trkpt lat="44.89923" lon="6.69915">
        <ele>2068.41</ele>
        <time>2016-02-03T11:36:40Z</time>
      </trkpt>
      <trkpt lat="44.89925" lon="6.69921">
        <ele>2069.86</ele>
        <time>2016-02-03T11:36:54Z</time>
      </trkpt>
      <trkpt lat="44.89924" lon="6.69928">
        <ele>2071.3</ele>
        <time>2016-02-03T11:37:06Z</time>
      </trkpt>
      <trkpt lat="44.89923" lon="6.69926">
        <ele>2073.22</ele>
        <time>2016-02-03T11:37:21Z</time>
      </trkpt>
      <trkpt lat="44.89919" lon="6.69921">
        <ele>2075.14</ele>
        <time>2016-02-03T11:37:36Z</time>
      </trkpt>
      <trkpt lat="44.89913" lon="6.69921">
        <ele>2076.59</ele>
        <time>2016-02-03T11:37:49Z</time>
      </trkpt>
      <trkpt lat="44.89915" lon="6.69933">
        <ele>2078.51</ele>
        <time>2016-02-03T11:38:03Z</time>
      </trkpt>
      <trkpt lat="44.8992" lon="6.69938">
        <ele>2079.95</ele>
        <time>2016-02-03T11:38:18Z</time>
      </trkpt>
      <trkpt lat="44.89918" lon="6.69944">
        <ele>2080.91</ele>
        <time>2016-02-03T11:38:31Z</time>
      </trkpt>
      <trkpt lat="44.89915" lon="6.69954">
        <ele>2082.83</ele>
        <time>2016-02-03T11:38:47Z</time>
      </trkpt>
      <trkpt lat="44.89918" lon="6.69961">
        <ele>2084.76</ele>
        <time>2016-02-03T11:39:05Z</time>
      </trkpt>
      <trkpt lat="44.89922" lon="6.69969">
        <ele>2086.68</ele>
        <time>2016-02-03T11:39:22Z</time>
      </trkpt>
      <trkpt lat="44.89923" lon="6.69975">
        <ele>2090.52</ele>
        <time>2016-02-03T11:39:37Z</time>
      </trkpt>
      <trkpt lat="44.89925" lon="6.69977">
        <ele>2090.52</ele>
        <time>2016-02-03T11:39:54Z</time>
      </trkpt>
      <trkpt lat="44.89925" lon="6.69988">
        <ele>2092.93</ele>
        <time>2016-02-03T11:40:12Z</time>
      </trkpt>
      <trkpt lat="44.89927" lon="6.69995">
        <ele>2094.85</ele>
        <time>2016-02-03T11:40:30Z</time>
      </trkpt>
      <trkpt lat="44.89929" lon="6.70007">
        <ele>2096.29</ele>
        <time>2016-02-03T11:40:48Z</time>
      </trkpt>
      <trkpt lat="44.89936" lon="6.70014">
        <ele>2098.7</ele>
        <time>2016-02-03T11:41:06Z</time>
      </trkpt>
      <trkpt lat="44.89938" lon="6.70026">
        <ele>2099.18</ele>
        <time>2016-02-03T11:41:22Z</time>
      </trkpt>
      <trkpt lat="44.89942" lon="6.70032">
        <ele>2100.62</ele>
        <time>2016-02-03T11:41:37Z</time>
      </trkpt>
      <trkpt lat="44.89952" lon="6.70026">
        <ele>2102.54</ele>
        <time>2016-02-03T11:41:49Z</time>
      </trkpt>
      <trkpt lat="44.89953" lon="6.70036">
        <ele>2104.94</ele>
        <time>2016-02-03T11:42:04Z</time>
      </trkpt>
      <trkpt lat="44.89956" lon="6.70052">
        <ele>2107.35</ele>
        <time>2016-02-03T11:42:23Z</time>
      </trkpt>
      <trkpt lat="44.8996" lon="6.70059">
        <ele>2108.31</ele>
        <time>2016-02-03T11:42:38Z</time>
      </trkpt>
      <trkpt lat="44.8996" lon="6.70066">
        <ele>2110.71</ele>
        <time>2016-02-03T11:42:52Z</time>
      </trkpt>
      <trkpt lat="44.89962" lon="6.70073">
        <ele>2112.63</ele>
        <time>2016-02-03T11:43:06Z</time>
      </trkpt>
      <trkpt lat="44.89973" lon="6.70079">
        <ele>2114.56</ele>
        <time>2016-02-03T11:43:24Z</time>
      </trkpt>
      <trkpt lat="44.89977" lon="6.70083">
        <ele>2116</ele>
        <time>2016-02-03T11:43:37Z</time>
      </trkpt>
      <trkpt lat="44.89979" lon="6.70087">
        <ele>2117.44</ele>
        <time>2016-02-03T11:43:49Z</time>
      </trkpt>
      <trkpt lat="44.89981" lon="6.70094">
        <ele>2118.4</ele>
        <time>2016-02-03T11:44:01Z</time>
      </trkpt>
      <trkpt lat="44.89982" lon="6.70102">
        <ele>2120.32</ele>
        <time>2016-02-03T11:44:12Z</time>
      </trkpt>
      <trkpt lat="44.89986" lon="6.70105">
        <ele>2121.29</ele>
        <time>2016-02-03T11:44:24Z</time>
      </trkpt>
      <trkpt lat="44.89989" lon="6.7011">
        <ele>2122.73</ele>
        <time>2016-02-03T11:44:37Z</time>
      </trkpt>
      <trkpt lat="44.89989" lon="6.70115">
        <ele>2124.65</ele>
        <time>2016-02-03T11:44:51Z</time>
      </trkpt>
      <trkpt lat="44.89989" lon="6.70121">
        <ele>2127.05</ele>
        <time>2016-02-03T11:45:06Z</time>
      </trkpt>
      <trkpt lat="44.89988" lon="6.70131">
        <ele>2129.94</ele>
        <time>2016-02-03T11:45:21Z</time>
      </trkpt>
      <trkpt lat="44.89987" lon="6.70141">
        <ele>2131.86</ele>
        <time>2016-02-03T11:45:36Z</time>
      </trkpt>
      <trkpt lat="44.89988" lon="6.70144">
        <ele>2133.3</ele>
        <time>2016-02-03T11:45:49Z</time>
      </trkpt>
      <trkpt lat="44.89986" lon="6.70151">
        <ele>2135.23</ele>
        <time>2016-02-03T11:46:03Z</time>
      </trkpt>
      <trkpt lat="44.89986" lon="6.70158">
        <ele>2137.15</ele>
        <time>2016-02-03T11:46:18Z</time>
      </trkpt>
      <trkpt lat="44.89985" lon="6.70165">
        <ele>2139.07</ele>
        <time>2016-02-03T11:46:34Z</time>
      </trkpt>
      <trkpt lat="44.89982" lon="6.70171">
        <ele>2140.99</ele>
        <time>2016-02-03T11:46:50Z</time>
      </trkpt>
      <trkpt lat="44.89982" lon="6.70181">
        <ele>2143.4</ele>
        <time>2016-02-03T11:47:06Z</time>
      </trkpt>
      <trkpt lat="44.89983" lon="6.70189">
        <ele>2145.32</ele>
        <time>2016-02-03T11:47:20Z</time>
      </trkpt>
      <trkpt lat="44.89985" lon="6.70194">
        <ele>2147.72</ele>
        <time>2016-02-03T11:47:34Z</time>
      </trkpt>
      <trkpt lat="44.8999" lon="6.70197">
        <ele>2149.16</ele>
        <time>2016-02-03T11:47:49Z</time>
      </trkpt>
      <trkpt lat="44.89989" lon="6.70206">
        <ele>2150.61</ele>
        <time>2016-02-03T11:48:05Z</time>
      </trkpt>
      <trkpt lat="44.89989" lon="6.70211">
        <ele>2152.05</ele>
        <time>2016-02-03T11:48:17Z</time>
      </trkpt>
      <trkpt lat="44.89991" lon="6.70218">
        <ele>2153.97</ele>
        <time>2016-02-03T11:48:30Z</time>
      </trkpt>
      <trkpt lat="44.89991" lon="6.70227">
        <ele>2155.89</ele>
        <time>2016-02-03T11:48:44Z</time>
      </trkpt>
      <trkpt lat="44.89993" lon="6.70233">
        <ele>2156.86</ele>
        <time>2016-02-03T11:48:56Z</time>
      </trkpt>
      <trkpt lat="44.89995" lon="6.70237">
        <ele>2158.3</ele>
        <time>2016-02-03T11:49:09Z</time>
      </trkpt>
      <trkpt lat="44.89994" lon="6.70242">
        <ele>2158.78</ele>
        <time>2016-02-03T11:49:24Z</time>
      </trkpt>
      <trkpt lat="44.89991" lon="6.70253">
        <ele>2160.22</ele>
        <time>2016-02-03T11:49:38Z</time>
      </trkpt>
      <trkpt lat="44.89989" lon="6.70255">
        <ele>2161.18</ele>
        <time>2016-02-03T11:49:50Z</time>
      </trkpt>
      <trkpt lat="44.89987" lon="6.70263">
        <ele>2162.62</ele>
        <time>2016-02-03T11:50:04Z</time>
      </trkpt>
      <trkpt lat="44.89988" lon="6.70274">
        <ele>2164.55</ele>
        <time>2016-02-03T11:50:18Z</time>
      </trkpt>
      <trkpt lat="44.89987" lon="6.70285">
        <ele>2165.51</ele>
        <time>2016-02-03T11:50:32Z</time>
      </trkpt>
      <trkpt lat="44.89987" lon="6.7029">
        <ele>2167.91</ele>
        <time>2016-02-03T11:50:44Z</time>
      </trkpt>
      <trkpt lat="44.89988" lon="6.70295">
        <ele>2169.35</ele>
        <time>2016-02-03T11:50:58Z</time>
      </trkpt>
      <trkpt lat="44.89988" lon="6.70299">
        <ele>2171.27</ele>
        <time>2016-02-03T11:51:11Z</time>
      </trkpt>
      <trkpt lat="44.89986" lon="6.70306">
        <ele>2173.68</ele>
        <time>2016-02-03T11:51:27Z</time>
      </trkpt>
      <trkpt lat="44.89986" lon="6.70314">
        <ele>2175.12</ele>
        <time>2016-02-03T11:51:42Z</time>
      </trkpt>
      <trkpt lat="44.89985" lon="6.70315">
        <ele>2177.04</ele>
        <time>2016-02-03T11:51:44Z</time>
      </trkpt>
      <trkpt lat="44.89984" lon="6.70322">
        <ele>2177.52</ele>
        <time>2016-02-03T11:51:57Z</time>
      </trkpt>
      <trkpt lat="44.8998" lon="6.7033">
        <ele>2178.97</ele>
        <time>2016-02-03T11:52:11Z</time>
      </trkpt>
      <trkpt lat="44.89979" lon="6.70334">
        <ele>2180.41</ele>
        <time>2016-02-03T11:52:27Z</time>
      </trkpt>
      <trkpt lat="44.89976" lon="6.7034">
        <ele>2182.81</ele>
        <time>2016-02-03T11:52:41Z</time>
      </trkpt>
      <trkpt lat="44.89974" lon="6.70348">
        <ele>2184.73</ele>
        <time>2016-02-03T11:52:56Z</time>
      </trkpt>
      <trkpt lat="44.89973" lon="6.70357">
        <ele>2187.14</ele>
        <time>2016-02-03T11:53:11Z</time>
      </trkpt>
      <trkpt lat="44.89971" lon="6.70364">
        <ele>2189.06</ele>
        <time>2016-02-03T11:53:24Z</time>
      </trkpt>
      <trkpt lat="44.89969" lon="6.7037">
        <ele>2190.5</ele>
        <time>2016-02-03T11:53:38Z</time>
      </trkpt>
      <trkpt lat="44.89969" lon="6.70373">
        <ele>2193.39</ele>
        <time>2016-02-03T11:53:45Z</time>
      </trkpt>
      <trkpt lat="44.89968" lon="6.70378">
        <ele>2192.9</ele>
        <time>2016-02-03T11:53:58Z</time>
      </trkpt>
      <trkpt lat="44.89967" lon="6.70385">
        <ele>2194.83</ele>
        <time>2016-02-03T11:54:13Z</time>
      </trkpt>
      <trkpt lat="44.89966" lon="6.70389">
        <ele>2196.75</ele>
        <time>2016-02-03T11:54:28Z</time>
      </trkpt>
      <trkpt lat="44.89963" lon="6.70394">
        <ele>2198.67</ele>
        <time>2016-02-03T11:54:43Z</time>
      </trkpt>
      <trkpt lat="44.89957" lon="6.70396">
        <ele>2199.15</ele>
        <time>2016-02-03T11:54:57Z</time>
      </trkpt>
      <trkpt lat="44.8995" lon="6.70396">
        <ele>2200.11</ele>
        <time>2016-02-03T11:55:12Z</time>
      </trkpt>
      <trkpt lat="44.89945" lon="6.70398">
        <ele>2202.52</ele>
        <time>2016-02-03T11:55:28Z</time>
      </trkpt>
      <trkpt lat="44.89944" lon="6.70409">
        <ele>2203.48</ele>
        <time>2016-02-03T11:55:42Z</time>
      </trkpt>
      <trkpt lat="44.89941" lon="6.70416">
        <ele>2204.92</ele>
        <time>2016-02-03T11:55:59Z</time>
      </trkpt>
      <trkpt lat="44.8994" lon="6.70414">
        <ele>2205.88</ele>
        <time>2016-02-03T11:56:12Z</time>
      </trkpt>
      <trkpt lat="44.89937" lon="6.70418">
        <ele>2208.29</ele>
        <time>2016-02-03T11:56:26Z</time>
      </trkpt>
      <trkpt lat="44.89933" lon="6.70421">
        <ele>2209.25</ele>
        <time>2016-02-03T11:56:41Z</time>
      </trkpt>
      <trkpt lat="44.8993" lon="6.7042">
        <ele>2211.17</ele>
        <time>2016-02-03T11:56:54Z</time>
      </trkpt>
      <trkpt lat="44.89929" lon="6.70429">
        <ele>2213.09</ele>
        <time>2016-02-03T11:57:08Z</time>
      </trkpt>
      <trkpt lat="44.89925" lon="6.70435">
        <ele>2213.57</ele>
        <time>2016-02-03T11:57:24Z</time>
      </trkpt>
      <trkpt lat="44.8992" lon="6.70435">
        <ele>2215.5</ele>
        <time>2016-02-03T11:57:40Z</time>
      </trkpt>
      <trkpt lat="44.89918" lon="6.70433">
        <ele>2218.38</ele>
        <time>2016-02-03T11:57:48Z</time>
      </trkpt>
      <trkpt lat="44.89918" lon="6.70433">
        <ele>2216.94</ele>
        <time>2016-02-03T11:57:49Z</time>
      </trkpt>
      <trkpt lat="44.89913" lon="6.70433">
        <ele>2218.86</ele>
        <time>2016-02-03T11:58:04Z</time>
      </trkpt>
      <trkpt lat="44.89916" lon="6.7044">
        <ele>2219.82</ele>
        <time>2016-02-03T11:58:14Z</time>
      </trkpt>
      <trkpt lat="44.89919" lon="6.70446">
        <ele>2220.78</ele>
        <time>2016-02-03T11:58:34Z</time>
      </trkpt>
      <trkpt lat="44.89917" lon="6.70452">
        <ele>2221.74</ele>
        <time>2016-02-03T11:58:49Z</time>
      </trkpt>
      <trkpt lat="44.89912" lon="6.70447">
        <ele>2223.67</ele>
        <time>2016-02-03T11:59:03Z</time>
      </trkpt>
      <trkpt lat="44.89906" lon="6.70452">
        <ele>2225.59</ele>
        <time>2016-02-03T11:59:19Z</time>
      </trkpt>
      <trkpt lat="44.89903" lon="6.70457">
        <ele>2227.03</ele>
        <time>2016-02-03T11:59:35Z</time>
      </trkpt>
      <trkpt lat="44.899" lon="6.70462">
        <ele>2227.99</ele>
        <time>2016-02-03T11:59:48Z</time>
      </trkpt>
      <trkpt lat="44.899" lon="6.70462">
        <ele>2229.92</ele>
        <time>2016-02-03T11:59:49Z</time>
      </trkpt>
      <trkpt lat="44.89896" lon="6.70466">
        <ele>2229.92</ele>
        <time>2016-02-03T12:00:03Z</time>
      </trkpt>
      <trkpt lat="44.89891" lon="6.70472">
        <ele>2232.32</ele>
        <time>2016-02-03T12:00:18Z</time>
      </trkpt>
      <trkpt lat="44.89889" lon="6.70477">
        <ele>2233.28</ele>
        <time>2016-02-03T12:00:33Z</time>
      </trkpt>
      <trkpt lat="44.89886" lon="6.70484">
        <ele>2233.28</ele>
        <time>2016-02-03T12:00:50Z</time>
      </trkpt>
      <trkpt lat="44.8988" lon="6.70486">
        <ele>2234.72</ele>
        <time>2016-02-03T12:01:03Z</time>
      </trkpt>
      <trkpt lat="44.89878" lon="6.70481">
        <ele>2236.64</ele>
        <time>2016-02-03T12:01:19Z</time>
      </trkpt>
      <trkpt lat="44.89877" lon="6.70475">
        <ele>2237.13</ele>
        <time>2016-02-03T12:01:34Z</time>
      </trkpt>
      <trkpt lat="44.89876" lon="6.70475">
        <ele>2238.09</ele>
        <time>2016-02-03T12:01:36Z</time>
      </trkpt>
      <trkpt lat="44.89872" lon="6.7048">
        <ele>2239.53</ele>
        <time>2016-02-03T12:01:52Z</time>
      </trkpt>
      <trkpt lat="44.89868" lon="6.70484">
        <ele>2240.97</ele>
        <time>2016-02-03T12:02:07Z</time>
      </trkpt>
      <trkpt lat="44.89861" lon="6.70489">
        <ele>2240.97</ele>
        <time>2016-02-03T12:02:23Z</time>
      </trkpt>
      <trkpt lat="44.89856" lon="6.70494">
        <ele>2242.89</ele>
        <time>2016-02-03T12:02:38Z</time>
      </trkpt>
      <trkpt lat="44.89852" lon="6.70494">
        <ele>2244.33</ele>
        <time>2016-02-03T12:02:54Z</time>
      </trkpt>
      <trkpt lat="44.89847" lon="6.70491">
        <ele>2245.78</ele>
        <time>2016-02-03T12:03:10Z</time>
      </trkpt>
      <trkpt lat="44.89842" lon="6.70487">
        <ele>2247.22</ele>
        <time>2016-02-03T12:03:26Z</time>
      </trkpt>
      <trkpt lat="44.89842" lon="6.70482">
        <ele>2247.7</ele>
        <time>2016-02-03T12:03:43Z</time>
      </trkpt>
      <trkpt lat="44.89841" lon="6.70477">
        <ele>2249.14</ele>
        <time>2016-02-03T12:03:52Z</time>
      </trkpt>
      <trkpt lat="44.89836" lon="6.7047">
        <ele>2251.06</ele>
        <time>2016-02-03T12:04:10Z</time>
      </trkpt>
      <trkpt lat="44.89831" lon="6.70475">
        <ele>2251.54</ele>
        <time>2016-02-03T12:04:25Z</time>
      </trkpt>
      <trkpt lat="44.89828" lon="6.70468">
        <ele>2253.95</ele>
        <time>2016-02-03T12:04:40Z</time>
      </trkpt>
      <trkpt lat="44.89826" lon="6.70461">
        <ele>2255.39</ele>
        <time>2016-02-03T12:04:54Z</time>
      </trkpt>
      <trkpt lat="44.89824" lon="6.70457">
        <ele>2256.35</ele>
        <time>2016-02-03T12:05:08Z</time>
      </trkpt>
      <trkpt lat="44.89821" lon="6.70456">
        <ele>2258.27</ele>
        <time>2016-02-03T12:05:21Z</time>
      </trkpt>
      <trkpt lat="44.8982" lon="6.70459">
        <ele>2258.27</ele>
        <time>2016-02-03T12:05:38Z</time>
      </trkpt>
      <trkpt lat="44.89815" lon="6.70461">
        <ele>2260.2</ele>
        <time>2016-02-03T12:05:53Z</time>
      </trkpt>
      <trkpt lat="44.89811" lon="6.70455">
        <ele>2261.64</ele>
        <time>2016-02-03T12:06:06Z</time>
      </trkpt>
      <trkpt lat="44.89807" lon="6.7045">
        <ele>2262.6</ele>
        <time>2016-02-03T12:06:20Z</time>
      </trkpt>
      <trkpt lat="44.89803" lon="6.7045">
        <ele>2264.04</ele>
        <time>2016-02-03T12:06:34Z</time>
      </trkpt>
      <trkpt lat="44.898" lon="6.70451">
        <ele>2266.45</ele>
        <time>2016-02-03T12:06:47Z</time>
      </trkpt>
      <trkpt lat="44.89797" lon="6.70449">
        <ele>2267.41</ele>
        <time>2016-02-03T12:06:59Z</time>
      </trkpt>
      <trkpt lat="44.89792" lon="6.70446">
        <ele>2268.37</ele>
        <time>2016-02-03T12:07:13Z</time>
      </trkpt>
      <trkpt lat="44.89791" lon="6.70443">
        <ele>2269.33</ele>
        <time>2016-02-03T12:07:27Z</time>
      </trkpt>
      <trkpt lat="44.8979" lon="6.70436">
        <ele>2271.25</ele>
        <time>2016-02-03T12:07:41Z</time>
      </trkpt>
      <trkpt lat="44.89788" lon="6.70431">
        <ele>2274.14</ele>
        <time>2016-02-03T12:07:54Z</time>
      </trkpt>
      <trkpt lat="44.89787" lon="6.70432">
        <ele>2273.17</ele>
        <time>2016-02-03T12:08:07Z</time>
      </trkpt>
      <trkpt lat="44.89783" lon="6.70433">
        <ele>2274.14</ele>
        <time>2016-02-03T12:08:20Z</time>
      </trkpt>
      <trkpt lat="44.89778" lon="6.70434">
        <ele>2275.1</ele>
        <time>2016-02-03T12:08:33Z</time>
      </trkpt>
      <trkpt lat="44.89774" lon="6.70434">
        <ele>2276.54</ele>
        <time>2016-02-03T12:08:47Z</time>
      </trkpt>
      <trkpt lat="44.89772" lon="6.7043">
        <ele>2277.02</ele>
        <time>2016-02-03T12:08:59Z</time>
      </trkpt>
      <trkpt lat="44.89769" lon="6.70425">
        <ele>2278.46</ele>
        <time>2016-02-03T12:09:11Z</time>
      </trkpt>
      <trkpt lat="44.89766" lon="6.70423">
        <ele>2279.9</ele>
        <time>2016-02-03T12:09:23Z</time>
      </trkpt>
      <trkpt lat="44.89764" lon="6.70429">
        <ele>2280.87</ele>
        <time>2016-02-03T12:09:35Z</time>
      </trkpt>
      <trkpt lat="44.89761" lon="6.70431">
        <ele>2281.35</ele>
        <time>2016-02-03T12:09:48Z</time>
      </trkpt>
      <trkpt lat="44.89756" lon="6.70426">
        <ele>2283.75</ele>
        <time>2016-02-03T12:10:02Z</time>
      </trkpt>
      <trkpt lat="44.89752" lon="6.70424">
        <ele>2285.19</ele>
        <time>2016-02-03T12:10:15Z</time>
      </trkpt>
      <trkpt lat="44.89749" lon="6.70424">
        <ele>2286.15</ele>
        <time>2016-02-03T12:10:28Z</time>
      </trkpt>
      <trkpt lat="44.89745" lon="6.70424">
        <ele>2287.11</ele>
        <time>2016-02-03T12:10:42Z</time>
      </trkpt>
      <trkpt lat="44.89742" lon="6.70423">
        <ele>2289.04</ele>
        <time>2016-02-03T12:10:49Z</time>
      </trkpt>
      <trkpt lat="44.89738" lon="6.70423">
        <ele>2290</ele>
        <time>2016-02-03T12:11:02Z</time>
      </trkpt>
      <trkpt lat="44.89733" lon="6.70425">
        <ele>2290.96</ele>
        <time>2016-02-03T12:11:16Z</time>
      </trkpt>
      <trkpt lat="44.8973" lon="6.70427">
        <ele>2292.88</ele>
        <time>2016-02-03T12:11:28Z</time>
      </trkpt>
      <trkpt lat="44.89725" lon="6.70428">
        <ele>2293.84</ele>
        <time>2016-02-03T12:11:41Z</time>
      </trkpt>
      <trkpt lat="44.89721" lon="6.70428">
        <ele>2295.28</ele>
        <time>2016-02-03T12:11:55Z</time>
      </trkpt>
      <trkpt lat="44.89717" lon="6.7043">
        <ele>2296.73</ele>
        <time>2016-02-03T12:12:08Z</time>
      </trkpt>
      <trkpt lat="44.89714" lon="6.7043">
        <ele>2297.69</ele>
        <time>2016-02-03T12:12:23Z</time>
      </trkpt>
      <trkpt lat="44.8971" lon="6.70429">
        <ele>2298.65</ele>
        <time>2016-02-03T12:12:38Z</time>
      </trkpt>
      <trkpt lat="44.89706" lon="6.70429">
        <ele>2300.09</ele>
        <time>2016-02-03T12:12:51Z</time>
      </trkpt>
      <trkpt lat="44.89703" lon="6.70425">
        <ele>2301.53</ele>
        <time>2016-02-03T12:13:04Z</time>
      </trkpt>
      <trkpt lat="44.89702" lon="6.7042">
        <ele>2302.98</ele>
        <time>2016-02-03T12:13:17Z</time>
      </trkpt>
      <trkpt lat="44.897" lon="6.70416">
        <ele>2303.94</ele>
        <time>2016-02-03T12:13:27Z</time>
      </trkpt>
      <trkpt lat="44.89698" lon="6.70414">
        <ele>2304.9</ele>
        <time>2016-02-03T12:13:38Z</time>
      </trkpt>
      <trkpt lat="44.89695" lon="6.70418">
        <ele>2306.82</ele>
        <time>2016-02-03T12:13:51Z</time>
      </trkpt>
      <trkpt lat="44.89692" lon="6.70421">
        <ele>2307.3</ele>
        <time>2016-02-03T12:14:04Z</time>
      </trkpt>
      <trkpt lat="44.89689" lon="6.70426">
        <ele>2309.7</ele>
        <time>2016-02-03T12:14:20Z</time>
      </trkpt>
      <trkpt lat="44.89685" lon="6.7043">
        <ele>2310.67</ele>
        <time>2016-02-03T12:14:35Z</time>
      </trkpt>
      <trkpt lat="44.89682" lon="6.7043">
        <ele>2311.63</ele>
        <time>2016-02-03T12:14:46Z</time>
      </trkpt>
      <trkpt lat="44.89679" lon="6.70433">
        <ele>2312.59</ele>
        <time>2016-02-03T12:14:58Z</time>
      </trkpt>
      <trkpt lat="44.89677" lon="6.70438">
        <ele>2314.99</ele>
        <time>2016-02-03T12:15:12Z</time>
      </trkpt>
      <trkpt lat="44.89675" lon="6.70442">
        <ele>2315.47</ele>
        <time>2016-02-03T12:15:24Z</time>
      </trkpt>
      <trkpt lat="44.89675" lon="6.70445">
        <ele>2317.4</ele>
        <time>2016-02-03T12:15:36Z</time>
      </trkpt>
      <trkpt lat="44.89671" lon="6.70449">
        <ele>2318.84</ele>
        <time>2016-02-03T12:15:51Z</time>
      </trkpt>
      <trkpt lat="44.89669" lon="6.70447">
        <ele>2322.2</ele>
        <time>2016-02-03T12:15:58Z</time>
      </trkpt>
      <trkpt lat="44.89664" lon="6.70444">
        <ele>2320.76</ele>
        <time>2016-02-03T12:16:10Z</time>
      </trkpt>
      <trkpt lat="44.8966" lon="6.7044">
        <ele>2322.2</ele>
        <time>2016-02-03T12:16:21Z</time>
      </trkpt>
      <trkpt lat="44.89657" lon="6.70438">
        <ele>2323.64</ele>
        <time>2016-02-03T12:16:32Z</time>
      </trkpt>
      <trkpt lat="44.89654" lon="6.70435">
        <ele>2324.61</ele>
        <time>2016-02-03T12:16:43Z</time>
      </trkpt>
      <trkpt lat="44.89653" lon="6.70433">
        <ele>2325.09</ele>
        <time>2016-02-03T12:16:54Z</time>
      </trkpt>
      <trkpt lat="44.8965" lon="6.7043">
        <ele>2327.01</ele>
        <time>2016-02-03T12:17:06Z</time>
      </trkpt>
      <trkpt lat="44.89647" lon="6.70425">
        <ele>2327.97</ele>
        <time>2016-02-03T12:17:20Z</time>
      </trkpt>
      <trkpt lat="44.89645" lon="6.70428">
        <ele>2328.93</ele>
        <time>2016-02-03T12:17:33Z</time>
      </trkpt>
      <trkpt lat="44.89645" lon="6.70431">
        <ele>2329.89</ele>
        <time>2016-02-03T12:17:49Z</time>
      </trkpt>
      <trkpt lat="44.89646" lon="6.70431">
        <ele>2328.93</ele>
        <time>2016-02-03T12:18:04Z</time>
      </trkpt>
      <trkpt lat="44.89648" lon="6.7043">
        <ele>2328.93</ele>
        <time>2016-02-03T12:18:40Z</time>
      </trkpt>
      <trkpt lat="44.89646" lon="6.70432">
        <ele>2329.41</ele>
        <time>2016-02-03T12:19:19Z</time>
      </trkpt>
      <trkpt lat="44.89645" lon="6.70433">
        <ele>2330.37</ele>
        <time>2016-02-03T12:19:44Z</time>
      </trkpt>
      <trkpt lat="44.89646" lon="6.70432">
        <ele>2329.89</ele>
        <time>2016-02-03T12:20:08Z</time>
      </trkpt>
      <trkpt lat="44.89644" lon="6.70431">
        <ele>2330.37</ele>
        <time>2016-02-03T12:20:33Z</time>
      </trkpt>
      <trkpt lat="44.89645" lon="6.70433">
        <ele>2329.89</ele>
        <time>2016-02-03T12:20:57Z</time>
      </trkpt>
      <trkpt lat="44.89642" lon="6.70438">
        <ele>2331.81</ele>
        <time>2016-02-03T12:21:13Z</time>
      </trkpt>
      <trkpt lat="44.8964" lon="6.70441">
        <ele>2333.74</ele>
        <time>2016-02-03T12:21:21Z</time>
      </trkpt>
      <trkpt lat="44.89637" lon="6.70437">
        <ele>2334.22</ele>
        <time>2016-02-03T12:21:32Z</time>
      </trkpt>
      <trkpt lat="44.89633" lon="6.70433">
        <ele>2338.06</ele>
        <time>2016-02-03T12:21:45Z</time>
      </trkpt>
      <trkpt lat="44.8963" lon="6.7043">
        <ele>2338.06</ele>
        <time>2016-02-03T12:21:57Z</time>
      </trkpt>
      <trkpt lat="44.89627" lon="6.7043">
        <ele>2339.99</ele>
        <time>2016-02-03T12:22:09Z</time>
      </trkpt>
      <trkpt lat="44.89625" lon="6.70432">
        <ele>2341.43</ele>
        <time>2016-02-03T12:22:21Z</time>
      </trkpt>
      <trkpt lat="44.89624" lon="6.70434">
        <ele>2343.35</ele>
        <time>2016-02-03T12:22:27Z</time>
      </trkpt>
      <trkpt lat="44.8962" lon="6.70437">
        <ele>2343.35</ele>
        <time>2016-02-03T12:22:40Z</time>
      </trkpt>
      <trkpt lat="44.89618" lon="6.70439">
        <ele>2344.79</ele>
        <time>2016-02-03T12:22:51Z</time>
      </trkpt>
      <trkpt lat="44.89615" lon="6.70441">
        <ele>2345.75</ele>
        <time>2016-02-03T12:23:02Z</time>
      </trkpt>
      <trkpt lat="44.89612" lon="6.70436">
        <ele>2345.75</ele>
        <time>2016-02-03T12:23:15Z</time>
      </trkpt>
      <trkpt lat="44.8961" lon="6.70431">
        <ele>2347.68</ele>
        <time>2016-02-03T12:23:27Z</time>
      </trkpt>
      <trkpt lat="44.89608" lon="6.70427">
        <ele>2348.16</ele>
        <time>2016-02-03T12:23:40Z</time>
      </trkpt>
      <trkpt lat="44.89606" lon="6.70422">
        <ele>2347.68</ele>
        <time>2016-02-03T12:23:52Z</time>
      </trkpt>
      <trkpt lat="44.89603" lon="6.70417">
        <ele>2351.52</ele>
        <time>2016-02-03T12:24:03Z</time>
      </trkpt>
      <trkpt lat="44.89599" lon="6.70409">
        <ele>2350.56</ele>
        <time>2016-02-03T12:24:17Z</time>
      </trkpt>
      <trkpt lat="44.89595" lon="6.70403">
        <ele>2351.04</ele>
        <time>2016-02-03T12:24:30Z</time>
      </trkpt>
      <trkpt lat="44.89591" lon="6.70397">
        <ele>2352</ele>
        <time>2016-02-03T12:24:43Z</time>
      </trkpt>
      <trkpt lat="44.89588" lon="6.70394">
        <ele>2352.48</ele>
        <time>2016-02-03T12:24:54Z</time>
      </trkpt>
      <trkpt lat="44.89582" lon="6.70387">
        <ele>2353.44</ele>
        <time>2016-02-03T12:25:10Z</time>
      </trkpt>
      <trkpt lat="44.89576" lon="6.70384">
        <ele>2354.89</ele>
        <time>2016-02-03T12:25:24Z</time>
      </trkpt>
      <trkpt lat="44.89569" lon="6.70383">
        <ele>2354.89</ele>
        <time>2016-02-03T12:25:39Z</time>
      </trkpt>
      <trkpt lat="44.89562" lon="6.70378">
        <ele>2355.37</ele>
        <time>2016-02-03T12:25:54Z</time>
      </trkpt>
      <trkpt lat="44.89558" lon="6.70373">
        <ele>2354.89</ele>
        <time>2016-02-03T12:26:05Z</time>
      </trkpt>
      <trkpt lat="44.89551" lon="6.70369">
        <ele>2354.89</ele>
        <time>2016-02-03T12:26:18Z</time>
      </trkpt>
      <trkpt lat="44.89546" lon="6.70367">
        <ele>2354.41</ele>
        <time>2016-02-03T12:26:31Z</time>
      </trkpt>
      <trkpt lat="44.89539" lon="6.70363">
        <ele>2353.93</ele>
        <time>2016-02-03T12:26:43Z</time>
      </trkpt>
      <trkpt lat="44.8953" lon="6.70357">
        <ele>2354.41</ele>
        <time>2016-02-03T12:26:58Z</time>
      </trkpt>
      <trkpt lat="44.89522" lon="6.70353">
        <ele>2353.44</ele>
        <time>2016-02-03T12:27:09Z</time>
      </trkpt>
      <trkpt lat="44.8951" lon="6.70348">
        <ele>2352.48</ele>
        <time>2016-02-03T12:27:26Z</time>
      </trkpt>
      <trkpt lat="44.89506" lon="6.70347">
        <ele>2352.48</ele>
        <time>2016-02-03T12:27:39Z</time>
      </trkpt>
      <trkpt lat="44.89496" lon="6.70343">
        <ele>2352.48</ele>
        <time>2016-02-03T12:27:52Z</time>
      </trkpt>
      <trkpt lat="44.89486" lon="6.70339">
        <ele>2350.56</ele>
        <time>2016-02-03T12:28:07Z</time>
      </trkpt>
      <trkpt lat="44.89475" lon="6.70335">
        <ele>2350.08</ele>
        <time>2016-02-03T12:28:24Z</time>
      </trkpt>
      <trkpt lat="44.89462" lon="6.70329">
        <ele>2348.64</ele>
        <time>2016-02-03T12:28:41Z</time>
      </trkpt>
      <trkpt lat="44.8945" lon="6.70326">
        <ele>2348.64</ele>
        <time>2016-02-03T12:28:58Z</time>
      </trkpt>
      <trkpt lat="44.89439" lon="6.70321">
        <ele>2347.68</ele>
        <time>2016-02-03T12:29:17Z</time>
      </trkpt>
      <trkpt lat="44.89435" lon="6.70316">
        <ele>2348.16</ele>
        <time>2016-02-03T12:29:30Z</time>
      </trkpt>
      <trkpt lat="44.8943" lon="6.70305">
        <ele>2348.16</ele>
        <time>2016-02-03T12:29:43Z</time>
      </trkpt>
      <trkpt lat="44.89426" lon="6.70295">
        <ele>2349.12</ele>
        <time>2016-02-03T12:29:59Z</time>
      </trkpt>
      <trkpt lat="44.89422" lon="6.70286">
        <ele>2350.56</ele>
        <time>2016-02-03T12:30:13Z</time>
      </trkpt>
      <trkpt lat="44.89419" lon="6.70278">
        <ele>2352</ele>
        <time>2016-02-03T12:30:27Z</time>
      </trkpt>
      <trkpt lat="44.89417" lon="6.70273">
        <ele>2352.96</ele>
        <time>2016-02-03T12:30:39Z</time>
      </trkpt>
      <trkpt lat="44.89414" lon="6.70268">
        <ele>2353.93</ele>
        <time>2016-02-03T12:30:52Z</time>
      </trkpt>
      <trkpt lat="44.89412" lon="6.70263">
        <ele>2354.89</ele>
        <time>2016-02-03T12:31:04Z</time>
      </trkpt>
      <trkpt lat="44.89409" lon="6.70257">
        <ele>2356.33</ele>
        <time>2016-02-03T12:31:16Z</time>
      </trkpt>
      <trkpt lat="44.89407" lon="6.70252">
        <ele>2357.29</ele>
        <time>2016-02-03T12:31:29Z</time>
      </trkpt>
      <trkpt lat="44.89404" lon="6.70249">
        <ele>2357.29</ele>
        <time>2016-02-03T12:31:40Z</time>
      </trkpt>
      <trkpt lat="44.89402" lon="6.70245">
        <ele>2357.77</ele>
        <time>2016-02-03T12:31:51Z</time>
      </trkpt>
      <trkpt lat="44.89401" lon="6.70242">
        <ele>2358.73</ele>
        <time>2016-02-03T12:31:55Z</time>
      </trkpt>
      <trkpt lat="44.89398" lon="6.70238">
        <ele>2360.65</ele>
        <time>2016-02-03T12:32:07Z</time>
      </trkpt>
      <trkpt lat="44.89396" lon="6.7023">
        <ele>2361.14</ele>
        <time>2016-02-03T12:32:20Z</time>
      </trkpt>
      <trkpt lat="44.89393" lon="6.70225">
        <ele>2362.1</ele>
        <time>2016-02-03T12:32:33Z</time>
      </trkpt>
      <trkpt lat="44.89395" lon="6.7022">
        <ele>2364.5</ele>
        <time>2016-02-03T12:32:47Z</time>
      </trkpt>
      <trkpt lat="44.89397" lon="6.70216">
        <ele>2366.9</ele>
        <time>2016-02-03T12:32:59Z</time>
      </trkpt>
      <trkpt lat="44.89398" lon="6.70212">
        <ele>2365.46</ele>
        <time>2016-02-03T12:33:12Z</time>
      </trkpt>
      <trkpt lat="44.894" lon="6.70206">
        <ele>2367.86</ele>
        <time>2016-02-03T12:33:26Z</time>
      </trkpt>
      <trkpt lat="44.89401" lon="6.70203">
        <ele>2367.86</ele>
        <time>2016-02-03T12:33:39Z</time>
      </trkpt>
      <trkpt lat="44.89402" lon="6.70198">
        <ele>2370.27</ele>
        <time>2016-02-03T12:33:51Z</time>
      </trkpt>
      <trkpt lat="44.89402" lon="6.70193">
        <ele>2371.71</ele>
        <time>2016-02-03T12:34:03Z</time>
      </trkpt>
      <trkpt lat="44.89403" lon="6.7019">
        <ele>2372.19</ele>
        <time>2016-02-03T12:34:13Z</time>
      </trkpt>
      <trkpt lat="44.89402" lon="6.70186">
        <ele>2373.15</ele>
        <time>2016-02-03T12:34:25Z</time>
      </trkpt>
      <trkpt lat="44.89403" lon="6.70181">
        <ele>2374.11</ele>
        <time>2016-02-03T12:34:36Z</time>
      </trkpt>
      <trkpt lat="44.89401" lon="6.70176">
        <ele>2375.55</ele>
        <time>2016-02-03T12:34:48Z</time>
      </trkpt>
      <trkpt lat="44.89399" lon="6.70175">
        <ele>2377</ele>
        <time>2016-02-03T12:35:00Z</time>
      </trkpt>
      <trkpt lat="44.89397" lon="6.70174">
        <ele>2377.96</ele>
        <time>2016-02-03T12:35:12Z</time>
      </trkpt>
      <trkpt lat="44.89395" lon="6.70173">
        <ele>2378.44</ele>
        <time>2016-02-03T12:35:21Z</time>
      </trkpt>
      <trkpt lat="44.89393" lon="6.70173">
        <ele>2381.8</ele>
        <time>2016-02-03T12:35:29Z</time>
      </trkpt>
      <trkpt lat="44.89391" lon="6.7017">
        <ele>2382.28</ele>
        <time>2016-02-03T12:35:41Z</time>
      </trkpt>
      <trkpt lat="44.89389" lon="6.70167">
        <ele>2382.28</ele>
        <time>2016-02-03T12:35:53Z</time>
      </trkpt>
      <trkpt lat="44.89387" lon="6.70165">
        <ele>2383.25</ele>
        <time>2016-02-03T12:36:05Z</time>
      </trkpt>
      <trkpt lat="44.89385" lon="6.70161">
        <ele>2382.76</ele>
        <time>2016-02-03T12:36:18Z</time>
      </trkpt>
      <trkpt lat="44.89383" lon="6.70158">
        <ele>2383.73</ele>
        <time>2016-02-03T12:36:28Z</time>
      </trkpt>
      <trkpt lat="44.89382" lon="6.70155">
        <ele>2386.13</ele>
        <time>2016-02-03T12:36:40Z</time>
      </trkpt>
      <trkpt lat="44.89382" lon="6.70155">
        <ele>2382.28</ele>
        <time>2016-02-03T12:36:42Z</time>
      </trkpt>
      <trkpt lat="44.89382" lon="6.70155">
        <ele>2383.25</ele>
        <time>2016-02-03T12:36:43Z</time>
      </trkpt>
      <trkpt lat="44.89381" lon="6.70155">
        <ele>2386.13</ele>
        <time>2016-02-03T12:36:45Z</time>
      </trkpt>
      <trkpt lat="44.8938" lon="6.70152">
        <ele>2387.57</ele>
        <time>2016-02-03T12:37:01Z</time>
      </trkpt>
      <trkpt lat="44.89378" lon="6.70147">
        <ele>2388.05</ele>
        <time>2016-02-03T12:37:17Z</time>
      </trkpt>
      <trkpt lat="44.89376" lon="6.7014">
        <ele>2388.53</ele>
        <time>2016-02-03T12:37:32Z</time>
      </trkpt>
      <trkpt lat="44.89377" lon="6.70134">
        <ele>2389.97</ele>
        <time>2016-02-03T12:37:45Z</time>
      </trkpt>
      <trkpt lat="44.89379" lon="6.70127">
        <ele>2390.94</ele>
        <time>2016-02-03T12:38:01Z</time>
      </trkpt>
      <trkpt lat="44.8938" lon="6.70123">
        <ele>2391.9</ele>
        <time>2016-02-03T12:38:12Z</time>
      </trkpt>
      <trkpt lat="44.89382" lon="6.70118">
        <ele>2392.86</ele>
        <time>2016-02-03T12:38:26Z</time>
      </trkpt>
      <trkpt lat="44.89383" lon="6.70115">
        <ele>2394.78</ele>
        <time>2016-02-03T12:38:38Z</time>
      </trkpt>
      <trkpt lat="44.89386" lon="6.7011">
        <ele>2395.26</ele>
        <time>2016-02-03T12:38:52Z</time>
      </trkpt>
      <trkpt lat="44.89387" lon="6.70106">
        <ele>2395.26</ele>
        <time>2016-02-03T12:39:03Z</time>
      </trkpt>
      <trkpt lat="44.89385" lon="6.70104">
        <ele>2398.15</ele>
        <time>2016-02-03T12:39:14Z</time>
      </trkpt>
      <trkpt lat="44.89384" lon="6.70101">
        <ele>2400.55</ele>
        <time>2016-02-03T12:39:26Z</time>
      </trkpt>
      <trkpt lat="44.89381" lon="6.70098">
        <ele>2401.03</ele>
        <time>2016-02-03T12:39:38Z</time>
      </trkpt>
      <trkpt lat="44.89379" lon="6.70096">
        <ele>2402.47</ele>
        <time>2016-02-03T12:39:50Z</time>
      </trkpt>
      <trkpt lat="44.89377" lon="6.70093">
        <ele>2403.43</ele>
        <time>2016-02-03T12:40:01Z</time>
      </trkpt>
      <trkpt lat="44.89375" lon="6.7009">
        <ele>2404.88</ele>
        <time>2016-02-03T12:40:12Z</time>
      </trkpt>
      <trkpt lat="44.89373" lon="6.70088">
        <ele>2405.84</ele>
        <time>2016-02-03T12:40:26Z</time>
      </trkpt>
      <trkpt lat="44.89372" lon="6.70087">
        <ele>2406.8</ele>
        <time>2016-02-03T12:40:28Z</time>
      </trkpt>
      <trkpt lat="44.8937" lon="6.70084">
        <ele>2406.32</ele>
        <time>2016-02-03T12:40:40Z</time>
      </trkpt>
      <trkpt lat="44.89368" lon="6.70079">
        <ele>2408.72</ele>
        <time>2016-02-03T12:40:53Z</time>
      </trkpt>
      <trkpt lat="44.89367" lon="6.70073">
        <ele>2409.68</ele>
        <time>2016-02-03T12:41:06Z</time>
      </trkpt>
      <trkpt lat="44.89368" lon="6.70073">
        <ele>2410.16</ele>
        <time>2016-02-03T12:41:24Z</time>
      </trkpt>
      <trkpt lat="44.8937" lon="6.70074">
        <ele>2410.64</ele>
        <time>2016-02-03T12:41:40Z</time>
      </trkpt>
      <trkpt lat="44.89373" lon="6.70074">
        <ele>2411.6</ele>
        <time>2016-02-03T12:41:55Z</time>
      </trkpt>
      <trkpt lat="44.89373" lon="6.70073">
        <ele>2412.09</ele>
        <time>2016-02-03T12:42:10Z</time>
      </trkpt>
      <trkpt lat="44.89375" lon="6.70072">
        <ele>2413.53</ele>
        <time>2016-02-03T12:42:30Z</time>
      </trkpt>
      <trkpt lat="44.89376" lon="6.70071">
        <ele>2411.6</ele>
        <time>2016-02-03T12:42:32Z</time>
      </trkpt>
      <trkpt lat="44.89375" lon="6.70072">
        <ele>2414.49</ele>
        <time>2016-02-03T12:42:36Z</time>
      </trkpt>
      <trkpt lat="44.89376" lon="6.70071">
        <ele>2417.37</ele>
        <time>2016-02-03T12:42:53Z</time>
      </trkpt>
      <trkpt lat="44.89376" lon="6.70069">
        <ele>2414.97</ele>
        <time>2016-02-03T12:43:04Z</time>
      </trkpt>
      <trkpt lat="44.89377" lon="6.7007">
        <ele>2415.93</ele>
        <time>2016-02-03T12:43:18Z</time>
      </trkpt>
      <trkpt lat="44.89378" lon="6.70071">
        <ele>2415.45</ele>
        <time>2016-02-03T12:43:25Z</time>
      </trkpt>
      <trkpt lat="44.89377" lon="6.7007">
        <ele>2415.45</ele>
        <time>2016-02-03T12:43:32Z</time>
      </trkpt>
      <trkpt lat="44.89375" lon="6.7007">
        <ele>2417.37</ele>
        <time>2016-02-03T12:43:50Z</time>
      </trkpt>
      <trkpt lat="44.89375" lon="6.70069">
        <ele>2416.41</ele>
        <time>2016-02-03T12:43:54Z</time>
      </trkpt>
      <trkpt lat="44.89377" lon="6.7007">
        <ele>2414.97</ele>
        <time>2016-02-03T12:44:01Z</time>
      </trkpt>
      <trkpt lat="44.89375" lon="6.70069">
        <ele>2411.6</ele>
        <time>2016-02-03T12:44:15Z</time>
      </trkpt>
      <trkpt lat="44.89375" lon="6.70069">
        <ele>2412.57</ele>
        <time>2016-02-03T12:44:16Z</time>
      </trkpt>
      <trkpt lat="44.89375" lon="6.70069">
        <ele>2415.45</ele>
        <time>2016-02-03T12:44:18Z</time>
      </trkpt>
      <trkpt lat="44.89375" lon="6.7007">
        <ele>2414.49</ele>
        <time>2016-02-03T12:44:19Z</time>
      </trkpt>
      <trkpt lat="44.89375" lon="6.7007">
        <ele>2413.05</ele>
        <time>2016-02-03T12:44:36Z</time>
      </trkpt>
      <trkpt lat="44.89374" lon="6.70068">
        <ele>2412.57</ele>
        <time>2016-02-03T12:44:42Z</time>
      </trkpt>
      <trkpt lat="44.89373" lon="6.70069">
        <ele>2414.97</ele>
        <time>2016-02-03T12:44:46Z</time>
      </trkpt>
      <trkpt lat="44.89374" lon="6.70069">
        <ele>2414.97</ele>
        <time>2016-02-03T12:45:09Z</time>
      </trkpt>
      <trkpt lat="44.89374" lon="6.70068">
        <ele>2413.05</ele>
        <time>2016-02-03T12:45:16Z</time>
      </trkpt>
      <trkpt lat="44.89374" lon="6.70066">
        <ele>2410.16</ele>
        <time>2016-02-03T12:45:19Z</time>
      </trkpt>
      <trkpt lat="44.89374" lon="6.70066">
        <ele>2413.05</ele>
        <time>2016-02-03T12:45:21Z</time>
      </trkpt>
      <trkpt lat="44.89374" lon="6.70066">
        <ele>2413.05</ele>
        <time>2016-02-03T12:45:22Z</time>
      </trkpt>
      <trkpt lat="44.89373" lon="6.70065">
        <ele>2409.68</ele>
        <time>2016-02-03T12:45:23Z</time>
      </trkpt>
      <trkpt lat="44.89373" lon="6.70064">
        <ele>2412.09</ele>
        <time>2016-02-03T12:45:26Z</time>
      </trkpt>
      <trkpt lat="44.8937" lon="6.70056">
        <ele>2413.53</ele>
        <time>2016-02-03T12:45:39Z</time>
      </trkpt>
      <trkpt lat="44.89369" lon="6.70051">
        <ele>2412.57</ele>
        <time>2016-02-03T12:45:50Z</time>
      </trkpt>
      <trkpt lat="44.89368" lon="6.70049">
        <ele>2415.45</ele>
        <time>2016-02-03T12:45:53Z</time>
      </trkpt>
      <trkpt lat="44.89366" lon="6.70042">
        <ele>2417.85</ele>
        <time>2016-02-03T12:46:07Z</time>
      </trkpt>
      <trkpt lat="44.89366" lon="6.70038">
        <ele>2419.78</ele>
        <time>2016-02-03T12:46:18Z</time>
      </trkpt>
      <trkpt lat="44.89365" lon="6.70037">
        <ele>2420.26</ele>
        <time>2016-02-03T12:46:34Z</time>
      </trkpt>
      <trkpt lat="44.89365" lon="6.70037">
        <ele>2418.33</ele>
        <time>2016-02-03T12:46:37Z</time>
      </trkpt>
      <trkpt lat="44.89365" lon="6.70036">
        <ele>2414.49</ele>
        <time>2016-02-03T12:46:49Z</time>
      </trkpt>
      <trkpt lat="44.89365" lon="6.70037">
        <ele>2417.37</ele>
        <time>2016-02-03T12:46:50Z</time>
      </trkpt>
      <trkpt lat="44.89365" lon="6.70035">
        <ele>2413.53</ele>
        <time>2016-02-03T12:46:55Z</time>
      </trkpt>
      <trkpt lat="44.89364" lon="6.70034">
        <ele>2414.49</ele>
        <time>2016-02-03T12:46:56Z</time>
      </trkpt>
      <trkpt lat="44.89364" lon="6.70026">
        <ele>2417.37</ele>
        <time>2016-02-03T12:47:09Z</time>
      </trkpt>
      <trkpt lat="44.89363" lon="6.70022">
        <ele>2420.74</ele>
        <time>2016-02-03T12:47:16Z</time>
      </trkpt>
      <trkpt lat="44.89363" lon="6.70018">
        <ele>2421.7</ele>
        <time>2016-02-03T12:47:26Z</time>
      </trkpt>
      <trkpt lat="44.89362" lon="6.70015">
        <ele>2423.14</ele>
        <time>2016-02-03T12:47:38Z</time>
      </trkpt>
      <trkpt lat="44.8936" lon="6.7001">
        <ele>2420.74</ele>
        <time>2016-02-03T12:47:52Z</time>
      </trkpt>
      <trkpt lat="44.8936" lon="6.70007">
        <ele>2423.62</ele>
        <time>2016-02-03T12:47:59Z</time>
      </trkpt>
      <trkpt lat="44.8936" lon="6.70006">
        <ele>2420.26</ele>
        <time>2016-02-03T12:48:01Z</time>
      </trkpt>
      <trkpt lat="44.8936" lon="6.70006">
        <ele>2421.22</ele>
        <time>2016-02-03T12:48:02Z</time>
      </trkpt>
      <trkpt lat="44.89359" lon="6.70004">
        <ele>2422.18</ele>
        <time>2016-02-03T12:48:15Z</time>
      </trkpt>
      <trkpt lat="44.89359" lon="6.70004">
        <ele>2421.7</ele>
        <time>2016-02-03T12:48:32Z</time>
      </trkpt>
      <trkpt lat="44.8936" lon="6.70005">
        <ele>2423.14</ele>
        <time>2016-02-03T12:48:37Z</time>
      </trkpt>
      <trkpt lat="44.8936" lon="6.70004">
        <ele>2425.54</ele>
        <time>2016-02-03T12:48:45Z</time>
      </trkpt>
      <trkpt lat="44.8936" lon="6.70004">
        <ele>2422.18</ele>
        <time>2016-02-03T12:48:51Z</time>
      </trkpt>
      <trkpt lat="44.89359" lon="6.70004">
        <ele>2422.66</ele>
        <time>2016-02-03T12:48:52Z</time>
      </trkpt>
      <trkpt lat="44.89359" lon="6.70003">
        <ele>2425.54</ele>
        <time>2016-02-03T12:48:54Z</time>
      </trkpt>
      <trkpt lat="44.89359" lon="6.70005">
        <ele>2425.06</ele>
        <time>2016-02-03T12:49:19Z</time>
      </trkpt>
      <trkpt lat="44.8936" lon="6.70004">
        <ele>2428.43</ele>
        <time>2016-02-03T12:49:29Z</time>
      </trkpt>
      <trkpt lat="44.89358" lon="6.70002">
        <ele>2424.1</ele>
        <time>2016-02-03T12:49:33Z</time>
      </trkpt>
      <trkpt lat="44.89357" lon="6.70002">
        <ele>2423.14</ele>
        <time>2016-02-03T12:49:35Z</time>
      </trkpt>
      <trkpt lat="44.89356" lon="6.70001">
        <ele>2419.78</ele>
        <time>2016-02-03T12:49:37Z</time>
      </trkpt>
      <trkpt lat="44.89356" lon="6.7">
        <ele>2423.62</ele>
        <time>2016-02-03T12:49:43Z</time>
      </trkpt>
      <trkpt lat="44.89356" lon="6.7">
        <ele>2423.14</ele>
        <time>2016-02-03T12:49:44Z</time>
      </trkpt>
      <trkpt lat="44.89357" lon="6.69997">
        <ele>2421.22</ele>
        <time>2016-02-03T12:49:59Z</time>
      </trkpt>
      <trkpt lat="44.89359" lon="6.7">
        <ele>2421.22</ele>
        <time>2016-02-03T12:50:16Z</time>
      </trkpt>
      <trkpt lat="44.8936" lon="6.70002">
        <ele>2424.1</ele>
        <time>2016-02-03T12:50:20Z</time>
      </trkpt>
      <trkpt lat="44.8936" lon="6.70002">
        <ele>2423.14</ele>
        <time>2016-02-03T12:50:21Z</time>
      </trkpt>
      <trkpt lat="44.8936" lon="6.70002">
        <ele>2419.78</ele>
        <time>2016-02-03T12:50:24Z</time>
      </trkpt>
      <trkpt lat="44.8936" lon="6.70001">
        <ele>2420.26</ele>
        <time>2016-02-03T12:50:25Z</time>
      </trkpt>
      <trkpt lat="44.8936" lon="6.70001">
        <ele>2421.7</ele>
        <time>2016-02-03T12:50:27Z</time>
      </trkpt>
      <trkpt lat="44.8936" lon="6.70001">
        <ele>2418.81</ele>
        <time>2016-02-03T12:50:34Z</time>
      </trkpt>
      <trkpt lat="44.8936" lon="6.70001">
        <ele>2418.81</ele>
        <time>2016-02-03T12:50:35Z</time>
      </trkpt>
      <trkpt lat="44.8936" lon="6.70001">
        <ele>2422.66</ele>
        <time>2016-02-03T12:50:37Z</time>
      </trkpt>
      <trkpt lat="44.8936" lon="6.70001">
        <ele>2422.66</ele>
        <time>2016-02-03T12:50:38Z</time>
      </trkpt>
      <trkpt lat="44.89361" lon="6.70002">
        <ele>2419.78</ele>
        <time>2016-02-03T12:50:44Z</time>
      </trkpt>
      <trkpt lat="44.89361" lon="6.70002">
        <ele>2423.14</ele>
        <time>2016-02-03T12:50:45Z</time>
      </trkpt>
      <trkpt lat="44.89361" lon="6.70003">
        <ele>2422.66</ele>
        <time>2016-02-03T12:50:46Z</time>
      </trkpt>
      <trkpt lat="44.8936" lon="6.70004">
        <ele>2421.22</ele>
        <time>2016-02-03T12:51:02Z</time>
      </trkpt>
      <trkpt lat="44.89359" lon="6.70005">
        <ele>2421.7</ele>
        <time>2016-02-03T12:51:19Z</time>
      </trkpt>
      <trkpt lat="44.89359" lon="6.70004">
        <ele>2417.85</ele>
        <time>2016-02-03T12:51:36Z</time>
      </trkpt>
      <trkpt lat="44.89359" lon="6.70003">
        <ele>2417.85</ele>
        <time>2016-02-03T12:51:37Z</time>
      </trkpt>
      <trkpt lat="44.89361" lon="6.70004">
        <ele>2418.33</ele>
        <time>2016-02-03T12:52:11Z</time>
      </trkpt>
      <trkpt lat="44.89362" lon="6.70005">
        <ele>2417.85</ele>
        <time>2016-02-03T12:52:21Z</time>
      </trkpt>
      <trkpt lat="44.89362" lon="6.70004">
        <ele>2417.85</ele>
        <time>2016-02-03T12:52:50Z</time>
      </trkpt>
      <trkpt lat="44.8936" lon="6.70003">
        <ele>2417.85</ele>
        <time>2016-02-03T12:53:21Z</time>
      </trkpt>
      <trkpt lat="44.89361" lon="6.70003">
        <ele>2418.81</ele>
        <time>2016-02-03T12:53:49Z</time>
      </trkpt>
      <trkpt lat="44.89362" lon="6.70003">
        <ele>2417.85</ele>
        <time>2016-02-03T12:54:21Z</time>
      </trkpt>
      <trkpt lat="44.89361" lon="6.70003">
        <ele>2418.33</ele>
        <time>2016-02-03T12:54:57Z</time>
      </trkpt>
      <trkpt lat="44.89361" lon="6.70003">
        <ele>2417.85</ele>
        <time>2016-02-03T12:55:27Z</time>
      </trkpt>
      <trkpt lat="44.8936" lon="6.70003">
        <ele>2419.3</ele>
        <time>2016-02-03T12:55:51Z</time>
      </trkpt>
      <trkpt lat="44.89361" lon="6.70004">
        <ele>2419.78</ele>
        <time>2016-02-03T12:56:18Z</time>
      </trkpt>
      <trkpt lat="44.89358" lon="6.70002">
        <ele>2419.78</ele>
        <time>2016-02-03T12:56:36Z</time>
      </trkpt>
      <trkpt lat="44.8936" lon="6.70002">
        <ele>2418.81</ele>
        <time>2016-02-03T12:57:03Z</time>
      </trkpt>
      <trkpt lat="44.89361" lon="6.70002">
        <ele>2419.3</ele>
        <time>2016-02-03T12:57:33Z</time>
      </trkpt>
      <trkpt lat="44.89361" lon="6.70002">
        <ele>2422.66</ele>
        <time>2016-02-03T12:57:50Z</time>
      </trkpt>
      <trkpt lat="44.89361" lon="6.70004">
        <ele>2421.22</ele>
        <time>2016-02-03T12:58:05Z</time>
      </trkpt>
      <trkpt lat="44.8936" lon="6.70004">
        <ele>2420.74</ele>
        <time>2016-02-03T12:58:19Z</time>
      </trkpt>
      <trkpt lat="44.89359" lon="6.70005">
        <ele>2419.78</ele>
        <time>2016-02-03T12:58:36Z</time>
      </trkpt>
      <trkpt lat="44.8936" lon="6.70003">
        <ele>2421.22</ele>
        <time>2016-02-03T12:58:41Z</time>
      </trkpt>
      <trkpt lat="44.89361" lon="6.70003">
        <ele>2420.26</ele>
        <time>2016-02-03T12:58:55Z</time>
      </trkpt>
      <trkpt lat="44.8936" lon="6.70003">
        <ele>2421.7</ele>
        <time>2016-02-03T12:59:14Z</time>
      </trkpt>
      <trkpt lat="44.89359" lon="6.70003">
        <ele>2421.7</ele>
        <time>2016-02-03T12:59:39Z</time>
      </trkpt>
      <trkpt lat="44.8936" lon="6.70002">
        <ele>2423.14</ele>
        <time>2016-02-03T12:59:55Z</time>
      </trkpt>
      <trkpt lat="44.8936" lon="6.70001">
        <ele>2422.66</ele>
        <time>2016-02-03T13:00:17Z</time>
      </trkpt>
      <trkpt lat="44.8936" lon="6.70004">
        <ele>2423.14</ele>
        <time>2016-02-03T13:00:39Z</time>
      </trkpt>
      <trkpt lat="44.8936" lon="6.70002">
        <ele>2421.7</ele>
        <time>2016-02-03T13:00:59Z</time>
      </trkpt>
      <trkpt lat="44.89361" lon="6.70003">
        <ele>2421.22</ele>
        <time>2016-02-03T13:01:15Z</time>
      </trkpt>
      <trkpt lat="44.8936" lon="6.70002">
        <ele>2423.62</ele>
        <time>2016-02-03T13:01:28Z</time>
      </trkpt>
      <trkpt lat="44.89361" lon="6.70004">
        <ele>2421.7</ele>
        <time>2016-02-03T13:01:49Z</time>
      </trkpt>
      <trkpt lat="44.89362" lon="6.70004">
        <ele>2421.7</ele>
        <time>2016-02-03T13:02:04Z</time>
      </trkpt>
      <trkpt lat="44.89361" lon="6.70004">
        <ele>2420.74</ele>
        <time>2016-02-03T13:02:11Z</time>
      </trkpt>
      <trkpt lat="44.89363" lon="6.70004">
        <ele>2419.78</ele>
        <time>2016-02-03T13:02:32Z</time>
      </trkpt>
      <trkpt lat="44.89362" lon="6.70004">
        <ele>2420.26</ele>
        <time>2016-02-03T13:02:48Z</time>
      </trkpt>
      <trkpt lat="44.89361" lon="6.70006">
        <ele>2418.81</ele>
        <time>2016-02-03T13:03:04Z</time>
      </trkpt>
      <trkpt lat="44.89362" lon="6.70006">
        <ele>2419.78</ele>
        <time>2016-02-03T13:03:13Z</time>
      </trkpt>
      <trkpt lat="44.89365" lon="6.70014">
        <ele>2416.89</ele>
        <time>2016-02-03T13:03:18Z</time>
      </trkpt>
      <trkpt lat="44.89365" lon="6.70014">
        <ele>2417.37</ele>
        <time>2016-02-03T13:03:19Z</time>
      </trkpt>
      <trkpt lat="44.89363" lon="6.70014">
        <ele>2416.41</ele>
        <time>2016-02-03T13:03:46Z</time>
      </trkpt>
      <trkpt lat="44.89361" lon="6.70016">
        <ele>2415.93</ele>
        <time>2016-02-03T13:04:04Z</time>
      </trkpt>
      <trkpt lat="44.89361" lon="6.70015">
        <ele>2415.45</ele>
        <time>2016-02-03T13:04:21Z</time>
      </trkpt>
      <trkpt lat="44.89362" lon="6.70016">
        <ele>2414.97</ele>
        <time>2016-02-03T13:04:42Z</time>
      </trkpt>
      <trkpt lat="44.89362" lon="6.70017">
        <ele>2415.45</ele>
        <time>2016-02-03T13:04:56Z</time>
      </trkpt>
      <trkpt lat="44.89365" lon="6.70023">
        <ele>2415.93</ele>
        <time>2016-02-03T13:05:00Z</time>
      </trkpt>
      <trkpt lat="44.89367" lon="6.70031">
        <ele>2413.53</ele>
        <time>2016-02-03T13:05:03Z</time>
      </trkpt>
      <trkpt lat="44.89369" lon="6.70047">
        <ele>2411.12</ele>
        <time>2016-02-03T13:05:08Z</time>
      </trkpt>
      <trkpt lat="44.89377" lon="6.70066">
        <ele>2407.76</ele>
        <time>2016-02-03T13:05:13Z</time>
      </trkpt>
      <trkpt lat="44.89377" lon="6.70068">
        <ele>2406.8</ele>
        <time>2016-02-03T13:05:24Z</time>
      </trkpt>
      <trkpt lat="44.89378" lon="6.70073">
        <ele>2405.84</ele>
        <time>2016-02-03T13:05:41Z</time>
      </trkpt>
      <trkpt lat="44.89379" lon="6.70075">
        <ele>2405.36</ele>
        <time>2016-02-03T13:05:57Z</time>
      </trkpt>
      <trkpt lat="44.89378" lon="6.70075">
        <ele>2404.39</ele>
        <time>2016-02-03T13:06:03Z</time>
      </trkpt>
      <trkpt lat="44.89373" lon="6.70083">
        <ele>2400.55</ele>
        <time>2016-02-03T13:06:07Z</time>
      </trkpt>
      <trkpt lat="44.89384" lon="6.70091">
        <ele>2396.7</ele>
        <time>2016-02-03T13:06:12Z</time>
      </trkpt>
      <trkpt lat="44.89381" lon="6.70101">
        <ele>2393.34</ele>
        <time>2016-02-03T13:06:15Z</time>
      </trkpt>
      <trkpt lat="44.89383" lon="6.70111">
        <ele>2389.49</ele>
        <time>2016-02-03T13:06:18Z</time>
      </trkpt>
      <trkpt lat="44.89381" lon="6.70114">
        <ele>2388.05</ele>
        <time>2016-02-03T13:06:24Z</time>
      </trkpt>
      <trkpt lat="44.89382" lon="6.70113">
        <ele>2387.57</ele>
        <time>2016-02-03T13:06:48Z</time>
      </trkpt>
      <trkpt lat="44.89381" lon="6.70113">
        <ele>2387.09</ele>
        <time>2016-02-03T13:06:49Z</time>
      </trkpt>
      <trkpt lat="44.89379" lon="6.70131">
        <ele>2383.73</ele>
        <time>2016-02-03T13:06:54Z</time>
      </trkpt>
      <trkpt lat="44.89376" lon="6.70133">
        <ele>2382.28</ele>
        <time>2016-02-03T13:06:56Z</time>
      </trkpt>
      <trkpt lat="44.89374" lon="6.70133">
        <ele>2382.28</ele>
        <time>2016-02-03T13:07:07Z</time>
      </trkpt>
      <trkpt lat="44.89376" lon="6.70145">
        <ele>2379.88</ele>
        <time>2016-02-03T13:07:14Z</time>
      </trkpt>
      <trkpt lat="44.89377" lon="6.70145">
        <ele>2379.4</ele>
        <time>2016-02-03T13:07:26Z</time>
      </trkpt>
      <trkpt lat="44.89377" lon="6.70145">
        <ele>2379.88</ele>
        <time>2016-02-03T13:07:46Z</time>
      </trkpt>
      <trkpt lat="44.89384" lon="6.70147">
        <ele>2378.92</ele>
        <time>2016-02-03T13:08:04Z</time>
      </trkpt>
      <trkpt lat="44.89384" lon="6.70148">
        <ele>2378.92</ele>
        <time>2016-02-03T13:08:17Z</time>
      </trkpt>
      <trkpt lat="44.89386" lon="6.70159">
        <ele>2377.96</ele>
        <time>2016-02-03T13:08:21Z</time>
      </trkpt>
      <trkpt lat="44.89388" lon="6.70184">
        <ele>2371.71</ele>
        <time>2016-02-03T13:08:28Z</time>
      </trkpt>
      <trkpt lat="44.8939" lon="6.70186">
        <ele>2371.71</ele>
        <time>2016-02-03T13:08:29Z</time>
      </trkpt>
      <trkpt lat="44.89392" lon="6.70185">
        <ele>2370.27</ele>
        <time>2016-02-03T13:08:31Z</time>
      </trkpt>
      <trkpt lat="44.89392" lon="6.70185">
        <ele>2371.71</ele>
        <time>2016-02-03T13:08:33Z</time>
      </trkpt>
      <trkpt lat="44.89392" lon="6.70185">
        <ele>2370.75</ele>
        <time>2016-02-03T13:09:01Z</time>
      </trkpt>
      <trkpt lat="44.89393" lon="6.70185">
        <ele>2371.23</ele>
        <time>2016-02-03T13:09:02Z</time>
      </trkpt>
      <trkpt lat="44.89395" lon="6.70195">
        <ele>2367.38</ele>
        <time>2016-02-03T13:09:06Z</time>
      </trkpt>
      <trkpt lat="44.894" lon="6.70196">
        <ele>2364.02</ele>
        <time>2016-02-03T13:09:08Z</time>
      </trkpt>
      <trkpt lat="44.89402" lon="6.70198">
        <ele>2364.5</ele>
        <time>2016-02-03T13:09:09Z</time>
      </trkpt>
      <trkpt lat="44.89402" lon="6.70201">
        <ele>2361.14</ele>
        <time>2016-02-03T13:09:11Z</time>
      </trkpt>
      <trkpt lat="44.89402" lon="6.70199">
        <ele>2361.14</ele>
        <time>2016-02-03T13:09:12Z</time>
      </trkpt>
      <trkpt lat="44.89402" lon="6.70197">
        <ele>2361.14</ele>
        <time>2016-02-03T13:09:16Z</time>
      </trkpt>
      <trkpt lat="44.8941" lon="6.70209">
        <ele>2357.77</ele>
        <time>2016-02-03T13:09:20Z</time>
      </trkpt>
      <trkpt lat="44.89413" lon="6.70221">
        <ele>2354.41</ele>
        <time>2016-02-03T13:09:22Z</time>
      </trkpt>
      <trkpt lat="44.89425" lon="6.70243">
        <ele>2350.56</ele>
        <time>2016-02-03T13:09:26Z</time>
      </trkpt>
      <trkpt lat="44.89428" lon="6.70249">
        <ele>2351.04</ele>
        <time>2016-02-03T13:09:27Z</time>
      </trkpt>
      <trkpt lat="44.89433" lon="6.70263">
        <ele>2346.72</ele>
        <time>2016-02-03T13:09:29Z</time>
      </trkpt>
      <trkpt lat="44.89447" lon="6.70315">
        <ele>2339.02</ele>
        <time>2016-02-03T13:09:35Z</time>
      </trkpt>
      <trkpt lat="44.89452" lon="6.70327">
        <ele>2340.95</ele>
        <time>2016-02-03T13:09:42Z</time>
      </trkpt>
      <trkpt lat="44.8946" lon="6.70328">
        <ele>2341.43</ele>
        <time>2016-02-03T13:09:56Z</time>
      </trkpt>
      <trkpt lat="44.89471" lon="6.70331">
        <ele>2342.87</ele>
        <time>2016-02-03T13:10:12Z</time>
      </trkpt>
      <trkpt lat="44.89479" lon="6.70336">
        <ele>2342.87</ele>
        <time>2016-02-03T13:10:27Z</time>
      </trkpt>
      <trkpt lat="44.89488" lon="6.70339">
        <ele>2345.27</ele>
        <time>2016-02-03T13:10:44Z</time>
      </trkpt>
      <trkpt lat="44.89488" lon="6.70338">
        <ele>2340.95</ele>
        <time>2016-02-03T13:10:48Z</time>
      </trkpt>
      <trkpt lat="44.89488" lon="6.70338">
        <ele>2341.43</ele>
        <time>2016-02-03T13:10:49Z</time>
      </trkpt>
      <trkpt lat="44.89488" lon="6.70339">
        <ele>2342.87</ele>
        <time>2016-02-03T13:10:51Z</time>
      </trkpt>
      <trkpt lat="44.89489" lon="6.70338">
        <ele>2338.54</ele>
        <time>2016-02-03T13:11:02Z</time>
      </trkpt>
      <trkpt lat="44.89489" lon="6.70338">
        <ele>2339.99</ele>
        <time>2016-02-03T13:11:03Z</time>
      </trkpt>
      <trkpt lat="44.89489" lon="6.70338">
        <ele>2340.47</ele>
        <time>2016-02-03T13:11:05Z</time>
      </trkpt>
      <trkpt lat="44.89489" lon="6.70338">
        <ele>2343.83</ele>
        <time>2016-02-03T13:11:14Z</time>
      </trkpt>
      <trkpt lat="44.89489" lon="6.70338">
        <ele>2340.47</ele>
        <time>2016-02-03T13:11:16Z</time>
      </trkpt>
      <trkpt lat="44.89489" lon="6.70339">
        <ele>2343.83</ele>
        <time>2016-02-03T13:11:17Z</time>
      </trkpt>
      <trkpt lat="44.8949" lon="6.70339">
        <ele>2344.79</ele>
        <time>2016-02-03T13:11:19Z</time>
      </trkpt>
      <trkpt lat="44.89494" lon="6.70342">
        <ele>2344.31</ele>
        <time>2016-02-03T13:11:31Z</time>
      </trkpt>
      <trkpt lat="44.89497" lon="6.70343">
        <ele>2344.79</ele>
        <time>2016-02-03T13:11:38Z</time>
      </trkpt>
      <trkpt lat="44.89504" lon="6.70347">
        <ele>2343.35</ele>
        <time>2016-02-03T13:11:53Z</time>
      </trkpt>
      <trkpt lat="44.8951" lon="6.7035">
        <ele>2343.35</ele>
        <time>2016-02-03T13:12:06Z</time>
      </trkpt>
      <trkpt lat="44.89518" lon="6.70353">
        <ele>2342.39</ele>
        <time>2016-02-03T13:12:22Z</time>
      </trkpt>
      <trkpt lat="44.89526" lon="6.70356">
        <ele>2342.87</ele>
        <time>2016-02-03T13:12:36Z</time>
      </trkpt>
      <trkpt lat="44.89535" lon="6.7036">
        <ele>2343.83</ele>
        <time>2016-02-03T13:12:51Z</time>
      </trkpt>
      <trkpt lat="44.89543" lon="6.70366">
        <ele>2344.31</ele>
        <time>2016-02-03T13:13:07Z</time>
      </trkpt>
      <trkpt lat="44.89552" lon="6.70371">
        <ele>2344.31</ele>
        <time>2016-02-03T13:13:22Z</time>
      </trkpt>
      <trkpt lat="44.89553" lon="6.70371">
        <ele>2344.31</ele>
        <time>2016-02-03T13:13:24Z</time>
      </trkpt>
      <trkpt lat="44.89562" lon="6.70376">
        <ele>2344.31</ele>
        <time>2016-02-03T13:13:39Z</time>
      </trkpt>
      <trkpt lat="44.89566" lon="6.7038">
        <ele>2344.79</ele>
        <time>2016-02-03T13:13:54Z</time>
      </trkpt>
      <trkpt lat="44.89568" lon="6.70381">
        <ele>2344.79</ele>
        <time>2016-02-03T13:14:15Z</time>
      </trkpt>
      <trkpt lat="44.89569" lon="6.70381">
        <ele>2343.83</ele>
        <time>2016-02-03T13:14:23Z</time>
      </trkpt>
      <trkpt lat="44.8958" lon="6.70386">
        <ele>2343.35</ele>
        <time>2016-02-03T13:14:43Z</time>
      </trkpt>
      <trkpt lat="44.89595" lon="6.70396">
        <ele>2340.47</ele>
        <time>2016-02-03T13:14:49Z</time>
      </trkpt>
      <trkpt lat="44.89608" lon="6.70412">
        <ele>2336.14</ele>
        <time>2016-02-03T13:14:54Z</time>
      </trkpt>
      <trkpt lat="44.89611" lon="6.70409">
        <ele>2334.22</ele>
        <time>2016-02-03T13:14:55Z</time>
      </trkpt>
      <trkpt lat="44.89613" lon="6.70402">
        <ele>2333.74</ele>
        <time>2016-02-03T13:14:57Z</time>
      </trkpt>
      <trkpt lat="44.89615" lon="6.70399">
        <ele>2334.22</ele>
        <time>2016-02-03T13:14:58Z</time>
      </trkpt>
      <trkpt lat="44.89619" lon="6.70401">
        <ele>2337.58</ele>
        <time>2016-02-03T13:15:01Z</time>
      </trkpt>
      <trkpt lat="44.89619" lon="6.70402">
        <ele>2336.14</ele>
        <time>2016-02-03T13:15:02Z</time>
      </trkpt>
      <trkpt lat="44.89618" lon="6.70401">
        <ele>2335.66</ele>
        <time>2016-02-03T13:15:09Z</time>
      </trkpt>
      <trkpt lat="44.89618" lon="6.704">
        <ele>2335.18</ele>
        <time>2016-02-03T13:15:18Z</time>
      </trkpt>
      <trkpt lat="44.89618" lon="6.704">
        <ele>2335.66</ele>
        <time>2016-02-03T13:15:26Z</time>
      </trkpt>
      <trkpt lat="44.89618" lon="6.70401">
        <ele>2335.66</ele>
        <time>2016-02-03T13:15:31Z</time>
      </trkpt>
      <trkpt lat="44.89619" lon="6.70402">
        <ele>2334.22</ele>
        <time>2016-02-03T13:15:52Z</time>
      </trkpt>
      <trkpt lat="44.89628" lon="6.70394">
        <ele>2329.89</ele>
        <time>2016-02-03T13:15:56Z</time>
      </trkpt>
      <trkpt lat="44.8963" lon="6.70391">
        <ele>2329.89</ele>
        <time>2016-02-03T13:15:57Z</time>
      </trkpt>
      <trkpt lat="44.89632" lon="6.70387">
        <ele>2328.93</ele>
        <time>2016-02-03T13:15:59Z</time>
      </trkpt>
      <trkpt lat="44.89639" lon="6.70393">
        <ele>2325.09</ele>
        <time>2016-02-03T13:16:03Z</time>
      </trkpt>
      <trkpt lat="44.89643" lon="6.70391">
        <ele>2321.72</ele>
        <time>2016-02-03T13:16:05Z</time>
      </trkpt>
      <trkpt lat="44.89646" lon="6.70391">
        <ele>2321.72</ele>
        <time>2016-02-03T13:16:06Z</time>
      </trkpt>
      <trkpt lat="44.89649" lon="6.70397">
        <ele>2317.88</ele>
        <time>2016-02-03T13:16:08Z</time>
      </trkpt>
      <trkpt lat="44.89658" lon="6.70405">
        <ele>2312.59</ele>
        <time>2016-02-03T13:16:11Z</time>
      </trkpt>
      <trkpt lat="44.89663" lon="6.70403">
        <ele>2307.3</ele>
        <time>2016-02-03T13:16:13Z</time>
      </trkpt>
      <trkpt lat="44.89664" lon="6.70398">
        <ele>2307.3</ele>
        <time>2016-02-03T13:16:14Z</time>
      </trkpt>
      <trkpt lat="44.89671" lon="6.70381">
        <ele>2306.34</ele>
        <time>2016-02-03T13:16:18Z</time>
      </trkpt>
      <trkpt lat="44.89675" lon="6.70378">
        <ele>2306.82</ele>
        <time>2016-02-03T13:16:29Z</time>
      </trkpt>
      <trkpt lat="44.89678" lon="6.70377">
        <ele>2306.82</ele>
        <time>2016-02-03T13:16:38Z</time>
      </trkpt>
      <trkpt lat="44.89681" lon="6.70385">
        <ele>2304.42</ele>
        <time>2016-02-03T13:16:43Z</time>
      </trkpt>
      <trkpt lat="44.8968" lon="6.70386">
        <ele>2304.42</ele>
        <time>2016-02-03T13:16:55Z</time>
      </trkpt>
      <trkpt lat="44.89681" lon="6.70389">
        <ele>2304.42</ele>
        <time>2016-02-03T13:17:17Z</time>
      </trkpt>
      <trkpt lat="44.89681" lon="6.7039">
        <ele>2304.42</ele>
        <time>2016-02-03T13:17:19Z</time>
      </trkpt>
      <trkpt lat="44.89688" lon="6.70391">
        <ele>2300.09</ele>
        <time>2016-02-03T13:17:23Z</time>
      </trkpt>
      <trkpt lat="44.89693" lon="6.70389">
        <ele>2299.61</ele>
        <time>2016-02-03T13:17:25Z</time>
      </trkpt>
      <trkpt lat="44.89698" lon="6.70394">
        <ele>2295.28</ele>
        <time>2016-02-03T13:17:27Z</time>
      </trkpt>
      <trkpt lat="44.89701" lon="6.70396">
        <ele>2292.4</ele>
        <time>2016-02-03T13:17:28Z</time>
      </trkpt>
      <trkpt lat="44.89709" lon="6.70403">
        <ele>2288.56</ele>
        <time>2016-02-03T13:17:30Z</time>
      </trkpt>
      <trkpt lat="44.89717" lon="6.70414">
        <ele>2283.75</ele>
        <time>2016-02-03T13:17:32Z</time>
      </trkpt>
      <trkpt lat="44.89727" lon="6.70423">
        <ele>2280.38</ele>
        <time>2016-02-03T13:17:34Z</time>
      </trkpt>
      <trkpt lat="44.89736" lon="6.70429">
        <ele>2277.98</ele>
        <time>2016-02-03T13:17:36Z</time>
      </trkpt>
      <trkpt lat="44.89744" lon="6.70429">
        <ele>2274.62</ele>
        <time>2016-02-03T13:17:38Z</time>
      </trkpt>
      <trkpt lat="44.89745" lon="6.70427">
        <ele>2274.14</ele>
        <time>2016-02-03T13:17:39Z</time>
      </trkpt>
      <trkpt lat="44.89745" lon="6.70427">
        <ele>2275.1</ele>
        <time>2016-02-03T13:17:48Z</time>
      </trkpt>
      <trkpt lat="44.89748" lon="6.70427">
        <ele>2275.1</ele>
        <time>2016-02-03T13:18:10Z</time>
      </trkpt>
      <trkpt lat="44.89749" lon="6.70428">
        <ele>2275.58</ele>
        <time>2016-02-03T13:18:31Z</time>
      </trkpt>
      <trkpt lat="44.8975" lon="6.70428">
        <ele>2275.58</ele>
        <time>2016-02-03T13:18:52Z</time>
      </trkpt>
      <trkpt lat="44.89751" lon="6.70428">
        <ele>2276.06</ele>
        <time>2016-02-03T13:18:57Z</time>
      </trkpt>
      <trkpt lat="44.89757" lon="6.70443">
        <ele>2272.21</ele>
        <time>2016-02-03T13:19:02Z</time>
      </trkpt>
      <trkpt lat="44.89766" lon="6.70448">
        <ele>2268.37</ele>
        <time>2016-02-03T13:19:06Z</time>
      </trkpt>
      <trkpt lat="44.89774" lon="6.70445">
        <ele>2264.52</ele>
        <time>2016-02-03T13:19:08Z</time>
      </trkpt>
      <trkpt lat="44.89781" lon="6.70451">
        <ele>2261.16</ele>
        <time>2016-02-03T13:19:10Z</time>
      </trkpt>
      <trkpt lat="44.89792" lon="6.70454">
        <ele>2256.83</ele>
        <time>2016-02-03T13:19:13Z</time>
      </trkpt>
      <trkpt lat="44.89797" lon="6.7044">
        <ele>2256.35</ele>
        <time>2016-02-03T13:19:19Z</time>
      </trkpt>
      <trkpt lat="44.89797" lon="6.70439">
        <ele>2256.83</ele>
        <time>2016-02-03T13:19:42Z</time>
      </trkpt>
      <trkpt lat="44.89796" lon="6.70439">
        <ele>2256.83</ele>
        <time>2016-02-03T13:20:07Z</time>
      </trkpt>
      <trkpt lat="44.89796" lon="6.70439">
        <ele>2256.83</ele>
        <time>2016-02-03T13:20:08Z</time>
      </trkpt>
      <trkpt lat="44.89808" lon="6.70445">
        <ele>2252.03</ele>
        <time>2016-02-03T13:20:13Z</time>
      </trkpt>
      <trkpt lat="44.8982" lon="6.70441">
        <ele>2247.7</ele>
        <time>2016-02-03T13:20:16Z</time>
      </trkpt>
      <trkpt lat="44.89829" lon="6.7044">
        <ele>2244.33</ele>
        <time>2016-02-03T13:20:19Z</time>
      </trkpt>
      <trkpt lat="44.89829" lon="6.70437">
        <ele>2244.33</ele>
        <time>2016-02-03T13:20:20Z</time>
      </trkpt>
      <trkpt lat="44.89831" lon="6.70436">
        <ele>2243.85</ele>
        <time>2016-02-03T13:20:21Z</time>
      </trkpt>
      <trkpt lat="44.89829" lon="6.70439">
        <ele>2242.41</ele>
        <time>2016-02-03T13:20:36Z</time>
      </trkpt>
      <trkpt lat="44.89827" lon="6.70441">
        <ele>2242.41</ele>
        <time>2016-02-03T13:20:54Z</time>
      </trkpt>
      <trkpt lat="44.89826" lon="6.70449">
        <ele>2242.41</ele>
        <time>2016-02-03T13:21:10Z</time>
      </trkpt>
      <trkpt lat="44.89826" lon="6.7045">
        <ele>2242.41</ele>
        <time>2016-02-03T13:21:11Z</time>
      </trkpt>
      <trkpt lat="44.89833" lon="6.70446">
        <ele>2239.05</ele>
        <time>2016-02-03T13:21:15Z</time>
      </trkpt>
      <trkpt lat="44.89837" lon="6.70446">
        <ele>2239.05</ele>
        <time>2016-02-03T13:21:24Z</time>
      </trkpt>
      <trkpt lat="44.89838" lon="6.70448">
        <ele>2238.57</ele>
        <time>2016-02-03T13:21:35Z</time>
      </trkpt>
      <trkpt lat="44.89846" lon="6.70455">
        <ele>2235.2</ele>
        <time>2016-02-03T13:21:39Z</time>
      </trkpt>
      <trkpt lat="44.89849" lon="6.70469">
        <ele>2232.32</ele>
        <time>2016-02-03T13:21:44Z</time>
      </trkpt>
      <trkpt lat="44.89851" lon="6.70474">
        <ele>2230.4</ele>
        <time>2016-02-03T13:21:49Z</time>
      </trkpt>
      <trkpt lat="44.89856" lon="6.70477">
        <ele>2227.03</ele>
        <time>2016-02-03T13:21:53Z</time>
      </trkpt>
      <trkpt lat="44.89855" lon="6.70479">
        <ele>2227.03</ele>
        <time>2016-02-03T13:22:09Z</time>
      </trkpt>
      <trkpt lat="44.89856" lon="6.7048">
        <ele>2227.99</ele>
        <time>2016-02-03T13:22:25Z</time>
      </trkpt>
      <trkpt lat="44.89857" lon="6.70481">
        <ele>2228.47</ele>
        <time>2016-02-03T13:22:44Z</time>
      </trkpt>
      <trkpt lat="44.89859" lon="6.70481">
        <ele>2228.47</ele>
        <time>2016-02-03T13:23:10Z</time>
      </trkpt>
      <trkpt lat="44.89859" lon="6.70479">
        <ele>2228.47</ele>
        <time>2016-02-03T13:23:30Z</time>
      </trkpt>
      <trkpt lat="44.89861" lon="6.70478">
        <ele>2228.47</ele>
        <time>2016-02-03T13:23:36Z</time>
      </trkpt>
      <trkpt lat="44.89863" lon="6.70471">
        <ele>2226.55</ele>
        <time>2016-02-03T13:23:40Z</time>
      </trkpt>
      <trkpt lat="44.89863" lon="6.70466">
        <ele>2226.55</ele>
        <time>2016-02-03T13:23:45Z</time>
      </trkpt>
      <trkpt lat="44.89866" lon="6.70465">
        <ele>2223.67</ele>
        <time>2016-02-03T13:23:48Z</time>
      </trkpt>
      <trkpt lat="44.89866" lon="6.70469">
        <ele>2223.19</ele>
        <time>2016-02-03T13:23:50Z</time>
      </trkpt>
      <trkpt lat="44.89868" lon="6.70474">
        <ele>2222.71</ele>
        <time>2016-02-03T13:23:53Z</time>
      </trkpt>
      <trkpt lat="44.89881" lon="6.70466">
        <ele>2219.34</ele>
        <time>2016-02-03T13:23:58Z</time>
      </trkpt>
      <trkpt lat="44.89885" lon="6.70467">
        <ele>2219.34</ele>
        <time>2016-02-03T13:24:07Z</time>
      </trkpt>
      <trkpt lat="44.89886" lon="6.70467">
        <ele>2219.34</ele>
        <time>2016-02-03T13:24:21Z</time>
      </trkpt>
      <trkpt lat="44.89893" lon="6.70471">
        <ele>2218.38</ele>
        <time>2016-02-03T13:24:26Z</time>
      </trkpt>
      <trkpt lat="44.89903" lon="6.70473">
        <ele>2216.46</ele>
        <time>2016-02-03T13:24:41Z</time>
      </trkpt>
      <trkpt lat="44.89906" lon="6.7047">
        <ele>2215.5</ele>
        <time>2016-02-03T13:24:48Z</time>
      </trkpt>
      <trkpt lat="44.89909" lon="6.70466">
        <ele>2214.05</ele>
        <time>2016-02-03T13:24:50Z</time>
      </trkpt>
      <trkpt lat="44.89912" lon="6.70458">
        <ele>2212.61</ele>
        <time>2016-02-03T13:24:54Z</time>
      </trkpt>
      <trkpt lat="44.89912" lon="6.70454">
        <ele>2212.13</ele>
        <time>2016-02-03T13:24:56Z</time>
      </trkpt>
      <trkpt lat="44.89913" lon="6.7045">
        <ele>2210.21</ele>
        <time>2016-02-03T13:25:00Z</time>
      </trkpt>
      <trkpt lat="44.89911" lon="6.70447">
        <ele>2208.29</ele>
        <time>2016-02-03T13:25:16Z</time>
      </trkpt>
      <trkpt lat="44.89914" lon="6.70447">
        <ele>2207.81</ele>
        <time>2016-02-03T13:25:40Z</time>
      </trkpt>
      <trkpt lat="44.89915" lon="6.70447">
        <ele>2207.81</ele>
        <time>2016-02-03T13:25:53Z</time>
      </trkpt>
      <trkpt lat="44.89919" lon="6.70446">
        <ele>2207.32</ele>
        <time>2016-02-03T13:25:56Z</time>
      </trkpt>
      <trkpt lat="44.89923" lon="6.70437">
        <ele>2204.92</ele>
        <time>2016-02-03T13:26:11Z</time>
      </trkpt>
      <trkpt lat="44.8993" lon="6.70431">
        <ele>2203</ele>
        <time>2016-02-03T13:26:25Z</time>
      </trkpt>
      <trkpt lat="44.89936" lon="6.70432">
        <ele>2200.59</ele>
        <time>2016-02-03T13:26:27Z</time>
      </trkpt>
      <trkpt lat="44.89937" lon="6.70433">
        <ele>2200.59</ele>
        <time>2016-02-03T13:26:34Z</time>
      </trkpt>
      <trkpt lat="44.89944" lon="6.70432">
        <ele>2198.67</ele>
        <time>2016-02-03T13:26:36Z</time>
      </trkpt>
      <trkpt lat="44.89951" lon="6.70434">
        <ele>2198.67</ele>
        <time>2016-02-03T13:26:43Z</time>
      </trkpt>
      <trkpt lat="44.89955" lon="6.70434">
        <ele>2198.67</ele>
        <time>2016-02-03T13:27:11Z</time>
      </trkpt>
      <trkpt lat="44.89957" lon="6.70432">
        <ele>2198.67</ele>
        <time>2016-02-03T13:27:27Z</time>
      </trkpt>
      <trkpt lat="44.89959" lon="6.70432">
        <ele>2198.19</ele>
        <time>2016-02-03T13:27:28Z</time>
      </trkpt>
      <trkpt lat="44.8996" lon="6.70429">
        <ele>2197.23</ele>
        <time>2016-02-03T13:27:29Z</time>
      </trkpt>
      <trkpt lat="44.8996" lon="6.70421">
        <ele>2195.79</ele>
        <time>2016-02-03T13:27:32Z</time>
      </trkpt>
      <trkpt lat="44.89961" lon="6.70418">
        <ele>2194.83</ele>
        <time>2016-02-03T13:27:33Z</time>
      </trkpt>
      <trkpt lat="44.89969" lon="6.70419">
        <ele>2191.94</ele>
        <time>2016-02-03T13:27:36Z</time>
      </trkpt>
      <trkpt lat="44.89956" lon="6.70426">
        <ele>2191.94</ele>
        <time>2016-02-03T13:27:42Z</time>
      </trkpt>
      <trkpt lat="44.89966" lon="6.70414">
        <ele>2188.1</ele>
        <time>2016-02-03T13:27:45Z</time>
      </trkpt>
      <trkpt lat="44.8997" lon="6.70409">
        <ele>2187.62</ele>
        <time>2016-02-03T13:27:47Z</time>
      </trkpt>
      <trkpt lat="44.89972" lon="6.70407">
        <ele>2188.1</ele>
        <time>2016-02-03T13:27:48Z</time>
      </trkpt>
      <trkpt lat="44.89981" lon="6.70403">
        <ele>2186.18</ele>
        <time>2016-02-03T13:27:52Z</time>
      </trkpt>
      <trkpt lat="44.89978" lon="6.70395">
        <ele>2183.29</ele>
        <time>2016-02-03T13:27:56Z</time>
      </trkpt>
      <trkpt lat="44.8998" lon="6.70393">
        <ele>2183.77</ele>
        <time>2016-02-03T13:28:06Z</time>
      </trkpt>
      <trkpt lat="44.89984" lon="6.70376">
        <ele>2180.89</ele>
        <time>2016-02-03T13:28:10Z</time>
      </trkpt>
      <trkpt lat="44.89985" lon="6.70372">
        <ele>2181.85</ele>
        <time>2016-02-03T13:28:12Z</time>
      </trkpt>
      <trkpt lat="44.89982" lon="6.70367">
        <ele>2179.45</ele>
        <time>2016-02-03T13:28:16Z</time>
      </trkpt>
      <trkpt lat="44.89983" lon="6.7037">
        <ele>2179.93</ele>
        <time>2016-02-03T13:28:38Z</time>
      </trkpt>
      <trkpt lat="44.89979" lon="6.70366">
        <ele>2179.45</ele>
        <time>2016-02-03T13:29:02Z</time>
      </trkpt>
      <trkpt lat="44.89977" lon="6.70362">
        <ele>2179.45</ele>
        <time>2016-02-03T13:29:28Z</time>
      </trkpt>
      <trkpt lat="44.89978" lon="6.70366">
        <ele>2178.97</ele>
        <time>2016-02-03T13:29:53Z</time>
      </trkpt>
      <trkpt lat="44.89974" lon="6.70365">
        <ele>2178</ele>
        <time>2016-02-03T13:30:03Z</time>
      </trkpt>
      <trkpt lat="44.89974" lon="6.70356">
        <ele>2174.64</ele>
        <time>2016-02-03T13:30:07Z</time>
      </trkpt>
      <trkpt lat="44.8998" lon="6.70348">
        <ele>2173.68</ele>
        <time>2016-02-03T13:30:10Z</time>
      </trkpt>
      <trkpt lat="44.8998" lon="6.70332">
        <ele>2168.87</ele>
        <time>2016-02-03T13:30:14Z</time>
      </trkpt>
      <trkpt lat="44.89984" lon="6.70325">
        <ele>2166.95</ele>
        <time>2016-02-03T13:30:17Z</time>
      </trkpt>
      <trkpt lat="44.89993" lon="6.70311">
        <ele>2163.58</ele>
        <time>2016-02-03T13:30:25Z</time>
      </trkpt>
      <trkpt lat="44.89994" lon="6.70309">
        <ele>2162.62</ele>
        <time>2016-02-03T13:30:28Z</time>
      </trkpt>
      <trkpt lat="44.89989" lon="6.70302">
        <ele>2158.3</ele>
        <time>2016-02-03T13:30:32Z</time>
      </trkpt>
      <trkpt lat="44.89986" lon="6.70301">
        <ele>2158.3</ele>
        <time>2016-02-03T13:30:33Z</time>
      </trkpt>
      <trkpt lat="44.8998" lon="6.70285">
        <ele>2153.97</ele>
        <time>2016-02-03T13:30:41Z</time>
      </trkpt>
      <trkpt lat="44.89991" lon="6.70282">
        <ele>2153.49</ele>
        <time>2016-02-03T13:30:44Z</time>
      </trkpt>
      <trkpt lat="44.89995" lon="6.70273">
        <ele>2151.57</ele>
        <time>2016-02-03T13:30:49Z</time>
      </trkpt>
      <trkpt lat="44.89995" lon="6.70271">
        <ele>2151.57</ele>
        <time>2016-02-03T13:31:09Z</time>
      </trkpt>
      <trkpt lat="44.89993" lon="6.70272">
        <ele>2151.57</ele>
        <time>2016-02-03T13:31:28Z</time>
      </trkpt>
      <trkpt lat="44.8999" lon="6.7027">
        <ele>2151.09</ele>
        <time>2016-02-03T13:31:46Z</time>
      </trkpt>
      <trkpt lat="44.89998" lon="6.70245">
        <ele>2145.32</ele>
        <time>2016-02-03T13:31:53Z</time>
      </trkpt>
      <trkpt lat="44.89999" lon="6.70241">
        <ele>2146.28</ele>
        <time>2016-02-03T13:31:54Z</time>
      </trkpt>
      <trkpt lat="44.90001" lon="6.70233">
        <ele>2142.92</ele>
        <time>2016-02-03T13:31:56Z</time>
      </trkpt>
      <trkpt lat="44.90001" lon="6.7023">
        <ele>2141.47</ele>
        <time>2016-02-03T13:31:57Z</time>
      </trkpt>
      <trkpt lat="44.89998" lon="6.70224">
        <ele>2141.95</ele>
        <time>2016-02-03T13:31:59Z</time>
      </trkpt>
      <trkpt lat="44.89996" lon="6.7021">
        <ele>2137.15</ele>
        <time>2016-02-03T13:32:02Z</time>
      </trkpt>
      <trkpt lat="44.89995" lon="6.70208">
        <ele>2136.67</ele>
        <time>2016-02-03T13:32:03Z</time>
      </trkpt>
      <trkpt lat="44.89998" lon="6.70193">
        <ele>2133.78</ele>
        <time>2016-02-03T13:32:05Z</time>
      </trkpt>
      <trkpt lat="44.9" lon="6.70186">
        <ele>2132.34</ele>
        <time>2016-02-03T13:32:06Z</time>
      </trkpt>
      <trkpt lat="44.90003" lon="6.70182">
        <ele>2131.86</ele>
        <time>2016-02-03T13:32:07Z</time>
      </trkpt>
      <trkpt lat="44.90007" lon="6.7017">
        <ele>2128.02</ele>
        <time>2016-02-03T13:32:10Z</time>
      </trkpt>
      <trkpt lat="44.90007" lon="6.70161">
        <ele>2124.17</ele>
        <time>2016-02-03T13:32:13Z</time>
      </trkpt>
      <trkpt lat="44.90008" lon="6.7016">
        <ele>2124.65</ele>
        <time>2016-02-03T13:32:15Z</time>
      </trkpt>
      <trkpt lat="44.9001" lon="6.70152">
        <ele>2122.73</ele>
        <time>2016-02-03T13:32:18Z</time>
      </trkpt>
      <trkpt lat="44.90014" lon="6.70146">
        <ele>2120.32</ele>
        <time>2016-02-03T13:32:21Z</time>
      </trkpt>
      <trkpt lat="44.90016" lon="6.7014">
        <ele>2118.88</ele>
        <time>2016-02-03T13:32:23Z</time>
      </trkpt>
      <trkpt lat="44.90021" lon="6.70119">
        <ele>2116.96</ele>
        <time>2016-02-03T13:32:28Z</time>
      </trkpt>
      <trkpt lat="44.90022" lon="6.70115">
        <ele>2115.04</ele>
        <time>2016-02-03T13:32:29Z</time>
      </trkpt>
      <trkpt lat="44.90027" lon="6.70096">
        <ele>2111.19</ele>
        <time>2016-02-03T13:32:34Z</time>
      </trkpt>
      <trkpt lat="44.90024" lon="6.70086">
        <ele>2110.71</ele>
        <time>2016-02-03T13:32:36Z</time>
      </trkpt>
      <trkpt lat="44.90017" lon="6.70089">
        <ele>2110.71</ele>
        <time>2016-02-03T13:32:50Z</time>
      </trkpt>
      <trkpt lat="44.90005" lon="6.70093">
        <ele>2110.23</ele>
        <time>2016-02-03T13:33:07Z</time>
      </trkpt>
      <trkpt lat="44.90004" lon="6.70094">
        <ele>2110.71</ele>
        <time>2016-02-03T13:33:09Z</time>
      </trkpt>
      <trkpt lat="44.89997" lon="6.70099">
        <ele>2110.71</ele>
        <time>2016-02-03T13:33:29Z</time>
      </trkpt>
      <trkpt lat="44.89995" lon="6.701">
        <ele>2110.71</ele>
        <time>2016-02-03T13:34:00Z</time>
      </trkpt>
      <trkpt lat="44.89993" lon="6.70097">
        <ele>2111.67</ele>
        <time>2016-02-03T13:34:21Z</time>
      </trkpt>
      <trkpt lat="44.89989" lon="6.70095">
        <ele>2110.23</ele>
        <time>2016-02-03T13:34:37Z</time>
      </trkpt>
      <trkpt lat="44.89985" lon="6.70095">
        <ele>2110.71</ele>
        <time>2016-02-03T13:35:02Z</time>
      </trkpt>
      <trkpt lat="44.89984" lon="6.70092">
        <ele>2110.23</ele>
        <time>2016-02-03T13:35:13Z</time>
      </trkpt>
      <trkpt lat="44.89981" lon="6.70084">
        <ele>2106.39</ele>
        <time>2016-02-03T13:35:17Z</time>
      </trkpt>
      <trkpt lat="44.8998" lon="6.7008">
        <ele>2106.39</ele>
        <time>2016-02-03T13:35:18Z</time>
      </trkpt>
      <trkpt lat="44.89976" lon="6.70074">
        <ele>2103.02</ele>
        <time>2016-02-03T13:35:20Z</time>
      </trkpt>
      <trkpt lat="44.89974" lon="6.70072">
        <ele>2102.06</ele>
        <time>2016-02-03T13:35:21Z</time>
      </trkpt>
      <trkpt lat="44.89962" lon="6.70063">
        <ele>2101.58</ele>
        <time>2016-02-03T13:35:28Z</time>
      </trkpt>
      <trkpt lat="44.89965" lon="6.70061">
        <ele>2101.1</ele>
        <time>2016-02-03T13:35:45Z</time>
      </trkpt>
      <trkpt lat="44.89967" lon="6.7006">
        <ele>2100.62</ele>
        <time>2016-02-03T13:35:49Z</time>
      </trkpt>
      <trkpt lat="44.89975" lon="6.70052">
        <ele>2099.18</ele>
        <time>2016-02-03T13:35:58Z</time>
      </trkpt>
      <trkpt lat="44.89974" lon="6.70041">
        <ele>2097.73</ele>
        <time>2016-02-03T13:36:02Z</time>
      </trkpt>
      <trkpt lat="44.89971" lon="6.70035">
        <ele>2096.29</ele>
        <time>2016-02-03T13:36:11Z</time>
      </trkpt>
      <trkpt lat="44.89969" lon="6.70035">
        <ele>2096.29</ele>
        <time>2016-02-03T13:36:26Z</time>
      </trkpt>
      <trkpt lat="44.89969" lon="6.70024">
        <ele>2093.41</ele>
        <time>2016-02-03T13:36:32Z</time>
      </trkpt>
      <trkpt lat="44.89969" lon="6.7001">
        <ele>2089.56</ele>
        <time>2016-02-03T13:36:36Z</time>
      </trkpt>
      <trkpt lat="44.89969" lon="6.70007">
        <ele>2088.12</ele>
        <time>2016-02-03T13:36:37Z</time>
      </trkpt>
      <trkpt lat="44.89959" lon="6.69994">
        <ele>2087.16</ele>
        <time>2016-02-03T13:36:50Z</time>
      </trkpt>
      <trkpt lat="44.89958" lon="6.69988">
        <ele>2086.68</ele>
        <time>2016-02-03T13:37:07Z</time>
      </trkpt>
      <trkpt lat="44.89963" lon="6.69994">
        <ele>2086.2</ele>
        <time>2016-02-03T13:37:26Z</time>
      </trkpt>
      <trkpt lat="44.89962" lon="6.69984">
        <ele>2085.24</ele>
        <time>2016-02-03T13:37:44Z</time>
      </trkpt>
      <trkpt lat="44.89968" lon="6.69985">
        <ele>2084.76</ele>
        <time>2016-02-03T13:37:59Z</time>
      </trkpt>
      <trkpt lat="44.89969" lon="6.69986">
        <ele>2084.76</ele>
        <time>2016-02-03T13:38:24Z</time>
      </trkpt>
      <trkpt lat="44.89969" lon="6.69986">
        <ele>2084.76</ele>
        <time>2016-02-03T13:38:47Z</time>
      </trkpt>
      <trkpt lat="44.8997" lon="6.69987">
        <ele>2084.76</ele>
        <time>2016-02-03T13:39:11Z</time>
      </trkpt>
      <trkpt lat="44.8997" lon="6.69987">
        <ele>2084.76</ele>
        <time>2016-02-03T13:39:16Z</time>
      </trkpt>
      <trkpt lat="44.89974" lon="6.6998">
        <ele>2081.39</ele>
        <time>2016-02-03T13:39:20Z</time>
      </trkpt>
      <trkpt lat="44.89979" lon="6.69969">
        <ele>2076.1</ele>
        <time>2016-02-03T13:39:25Z</time>
      </trkpt>
      <trkpt lat="44.89979" lon="6.69961">
        <ele>2074.18</ele>
        <time>2016-02-03T13:39:34Z</time>
      </trkpt>
      <trkpt lat="44.89977" lon="6.6996">
        <ele>2074.18</ele>
        <time>2016-02-03T13:39:52Z</time>
      </trkpt>
      <trkpt lat="44.8997" lon="6.69953">
        <ele>2072.26</ele>
        <time>2016-02-03T13:40:06Z</time>
      </trkpt>
      <trkpt lat="44.89972" lon="6.6994">
        <ele>2069.38</ele>
        <time>2016-02-03T13:40:20Z</time>
      </trkpt>
      <trkpt lat="44.89972" lon="6.69935">
        <ele>2066.49</ele>
        <time>2016-02-03T13:40:29Z</time>
      </trkpt>
      <trkpt lat="44.89971" lon="6.69934">
        <ele>2065.05</ele>
        <time>2016-02-03T13:40:30Z</time>
      </trkpt>
      <trkpt lat="44.8997" lon="6.69933">
        <ele>2063.61</ele>
        <time>2016-02-03T13:40:32Z</time>
      </trkpt>
      <trkpt lat="44.8997" lon="6.69923">
        <ele>2061.68</ele>
        <time>2016-02-03T13:40:52Z</time>
      </trkpt>
      <trkpt lat="44.89969" lon="6.69923">
        <ele>2059.76</ele>
        <time>2016-02-03T13:41:08Z</time>
      </trkpt>
      <trkpt lat="44.89971" lon="6.69922">
        <ele>2060.24</ele>
        <time>2016-02-03T13:41:09Z</time>
      </trkpt>
      <trkpt lat="44.89979" lon="6.69917">
        <ele>2058.32</ele>
        <time>2016-02-03T13:41:18Z</time>
      </trkpt>
      <trkpt lat="44.89984" lon="6.69913">
        <ele>2054.47</ele>
        <time>2016-02-03T13:41:24Z</time>
      </trkpt>
      <trkpt lat="44.89984" lon="6.69913">
        <ele>2054.47</ele>
        <time>2016-02-03T13:41:25Z</time>
      </trkpt>
      <trkpt lat="44.89983" lon="6.69912">
        <ele>2054.47</ele>
        <time>2016-02-03T13:41:27Z</time>
      </trkpt>
      <trkpt lat="44.89983" lon="6.69906">
        <ele>2051.59</ele>
        <time>2016-02-03T13:41:32Z</time>
      </trkpt>
      <trkpt lat="44.89963" lon="6.69903">
        <ele>2052.07</ele>
        <time>2016-02-03T13:41:48Z</time>
      </trkpt>
      <trkpt lat="44.89971" lon="6.69892">
        <ele>2047.75</ele>
        <time>2016-02-03T13:41:54Z</time>
      </trkpt>
      <trkpt lat="44.89973" lon="6.69891">
        <ele>2046.78</ele>
        <time>2016-02-03T13:41:56Z</time>
      </trkpt>
      <trkpt lat="44.89972" lon="6.69889">
        <ele>2045.82</ele>
        <time>2016-02-03T13:42:02Z</time>
      </trkpt>
      <trkpt lat="44.89972" lon="6.69878">
        <ele>2043.42</ele>
        <time>2016-02-03T13:42:06Z</time>
      </trkpt>
      <trkpt lat="44.89972" lon="6.69869">
        <ele>2040.54</ele>
        <time>2016-02-03T13:42:10Z</time>
      </trkpt>
      <trkpt lat="44.8997" lon="6.69868">
        <ele>2040.54</ele>
        <time>2016-02-03T13:42:12Z</time>
      </trkpt>
      <trkpt lat="44.89967" lon="6.6986">
        <ele>2039.57</ele>
        <time>2016-02-03T13:42:15Z</time>
      </trkpt>
      <trkpt lat="44.89965" lon="6.6986">
        <ele>2038.61</ele>
        <time>2016-02-03T13:42:26Z</time>
      </trkpt>
      <trkpt lat="44.89964" lon="6.69857">
        <ele>2037.65</ele>
        <time>2016-02-03T13:42:48Z</time>
      </trkpt>
      <trkpt lat="44.89963" lon="6.69852">
        <ele>2037.65</ele>
        <time>2016-02-03T13:43:30Z</time>
      </trkpt>
      <trkpt lat="44.89959" lon="6.69853">
        <ele>2037.65</ele>
        <time>2016-02-03T13:44:02Z</time>
      </trkpt>
      <trkpt lat="44.89962" lon="6.69859">
        <ele>2038.13</ele>
        <time>2016-02-03T13:44:28Z</time>
      </trkpt>
      <trkpt lat="44.89965" lon="6.69859">
        <ele>2036.69</ele>
        <time>2016-02-03T13:44:57Z</time>
      </trkpt>
      <trkpt lat="44.89962" lon="6.69853">
        <ele>2036.21</ele>
        <time>2016-02-03T13:45:19Z</time>
      </trkpt>
      <trkpt lat="44.89961" lon="6.69855">
        <ele>2036.69</ele>
        <time>2016-02-03T13:45:44Z</time>
      </trkpt>
      <trkpt lat="44.89964" lon="6.69859">
        <ele>2036.69</ele>
        <time>2016-02-03T13:46:03Z</time>
      </trkpt>
      <trkpt lat="44.89965" lon="6.69859">
        <ele>2037.17</ele>
        <time>2016-02-03T13:46:12Z</time>
      </trkpt>
      <trkpt lat="44.89967" lon="6.69853">
        <ele>2032.84</ele>
        <time>2016-02-03T13:46:15Z</time>
      </trkpt>
      <trkpt lat="44.89968" lon="6.6985">
        <ele>2032.84</ele>
        <time>2016-02-03T13:46:16Z</time>
      </trkpt>
      <trkpt lat="44.89972" lon="6.69841">
        <ele>2029.48</ele>
        <time>2016-02-03T13:46:19Z</time>
      </trkpt>
      <trkpt lat="44.89974" lon="6.69834">
        <ele>2029.48</ele>
        <time>2016-02-03T13:46:23Z</time>
      </trkpt>
      <trkpt lat="44.89981" lon="6.69829">
        <ele>2026.6</ele>
        <time>2016-02-03T13:46:27Z</time>
      </trkpt>
      <trkpt lat="44.89986" lon="6.69825">
        <ele>2025.64</ele>
        <time>2016-02-03T13:46:32Z</time>
      </trkpt>
      <trkpt lat="44.89989" lon="6.69825">
        <ele>2023.71</ele>
        <time>2016-02-03T13:46:36Z</time>
      </trkpt>
      <trkpt lat="44.89989" lon="6.69822">
        <ele>2022.75</ele>
        <time>2016-02-03T13:46:38Z</time>
      </trkpt>
      <trkpt lat="44.89989" lon="6.6982">
        <ele>2022.27</ele>
        <time>2016-02-03T13:46:39Z</time>
      </trkpt>
      <trkpt lat="44.8999" lon="6.69816">
        <ele>2021.31</ele>
        <time>2016-02-03T13:46:41Z</time>
      </trkpt>
      <trkpt lat="44.89993" lon="6.69807">
        <ele>2016.98</ele>
        <time>2016-02-03T13:46:44Z</time>
      </trkpt>
      <trkpt lat="44.89993" lon="6.69802">
        <ele>2015.06</ele>
        <time>2016-02-03T13:46:45Z</time>
      </trkpt>
      <trkpt lat="44.8999" lon="6.69794">
        <ele>2016.02</ele>
        <time>2016-02-03T13:46:47Z</time>
      </trkpt>
      <trkpt lat="44.90001" lon="6.69779">
        <ele>2011.22</ele>
        <time>2016-02-03T13:46:53Z</time>
      </trkpt>
      <trkpt lat="44.90004" lon="6.69775">
        <ele>2011.7</ele>
        <time>2016-02-03T13:46:54Z</time>
      </trkpt>
      <trkpt lat="44.90014" lon="6.69769">
        <ele>2006.89</ele>
        <time>2016-02-03T13:46:58Z</time>
      </trkpt>
      <trkpt lat="44.90023" lon="6.6975">
        <ele>2002.56</ele>
        <time>2016-02-03T13:47:04Z</time>
      </trkpt>
      <trkpt lat="44.90033" lon="6.6973">
        <ele>1999.2</ele>
        <time>2016-02-03T13:47:09Z</time>
      </trkpt>
      <trkpt lat="44.90036" lon="6.69722">
        <ele>1996.8</ele>
        <time>2016-02-03T13:47:11Z</time>
      </trkpt>
      <trkpt lat="44.90047" lon="6.69707">
        <ele>1993.43</ele>
        <time>2016-02-03T13:47:16Z</time>
      </trkpt>
      <trkpt lat="44.90052" lon="6.69698">
        <ele>1992.95</ele>
        <time>2016-02-03T13:47:18Z</time>
      </trkpt>
      <trkpt lat="44.90062" lon="6.69694">
        <ele>1989.59</ele>
        <time>2016-02-03T13:47:21Z</time>
      </trkpt>
      <trkpt lat="44.90065" lon="6.69691">
        <ele>1990.07</ele>
        <time>2016-02-03T13:47:28Z</time>
      </trkpt>
      <trkpt lat="44.90065" lon="6.69694">
        <ele>1989.59</ele>
        <time>2016-02-03T13:47:43Z</time>
      </trkpt>
      <trkpt lat="44.90068" lon="6.6969">
        <ele>1989.1</ele>
        <time>2016-02-03T13:48:11Z</time>
      </trkpt>
      <trkpt lat="44.90067" lon="6.69691">
        <ele>1990.55</ele>
        <time>2016-02-03T13:48:42Z</time>
      </trkpt>
      <trkpt lat="44.90067" lon="6.69691">
        <ele>1990.55</ele>
        <time>2016-02-03T13:49:00Z</time>
      </trkpt>
      <trkpt lat="44.90068" lon="6.6969">
        <ele>1990.55</ele>
        <time>2016-02-03T13:49:01Z</time>
      </trkpt>
      <trkpt lat="44.9008" lon="6.69679">
        <ele>1987.18</ele>
        <time>2016-02-03T13:49:07Z</time>
      </trkpt>
      <trkpt lat="44.90085" lon="6.69671">
        <ele>1983.34</ele>
        <time>2016-02-03T13:49:10Z</time>
      </trkpt>
      <trkpt lat="44.90085" lon="6.69667">
        <ele>1983.34</ele>
        <time>2016-02-03T13:49:11Z</time>
      </trkpt>
      <trkpt lat="44.90092" lon="6.69659">
        <ele>1980.93</ele>
        <time>2016-02-03T13:49:15Z</time>
      </trkpt>
      <trkpt lat="44.90098" lon="6.69651">
        <ele>1977.09</ele>
        <time>2016-02-03T13:49:18Z</time>
      </trkpt>
      <trkpt lat="44.901" lon="6.69647">
        <ele>1976.61</ele>
        <time>2016-02-03T13:49:19Z</time>
      </trkpt>
      <trkpt lat="44.90114" lon="6.69627">
        <ele>1972.28</ele>
        <time>2016-02-03T13:49:25Z</time>
      </trkpt>
      <trkpt lat="44.90126" lon="6.69613">
        <ele>1968.92</ele>
        <time>2016-02-03T13:49:30Z</time>
      </trkpt>
      <trkpt lat="44.90128" lon="6.69602">
        <ele>1967.48</ele>
        <time>2016-02-03T13:49:33Z</time>
      </trkpt>
      <trkpt lat="44.90132" lon="6.69604">
        <ele>1966.51</ele>
        <time>2016-02-03T13:49:41Z</time>
      </trkpt>
      <trkpt lat="44.90132" lon="6.69603">
        <ele>1966.51</ele>
        <time>2016-02-03T13:50:03Z</time>
      </trkpt>
      <trkpt lat="44.90132" lon="6.69603">
        <ele>1966.51</ele>
        <time>2016-02-03T13:50:11Z</time>
      </trkpt>
      <trkpt lat="44.90151" lon="6.69618">
        <ele>1964.11</ele>
        <time>2016-02-03T13:50:20Z</time>
      </trkpt>
      <trkpt lat="44.90161" lon="6.69608">
        <ele>1960.27</ele>
        <time>2016-02-03T13:50:24Z</time>
      </trkpt>
      <trkpt lat="44.90171" lon="6.69594">
        <ele>1955.94</ele>
        <time>2016-02-03T13:50:27Z</time>
      </trkpt>
      <trkpt lat="44.90173" lon="6.69589">
        <ele>1955.94</ele>
        <time>2016-02-03T13:50:28Z</time>
      </trkpt>
      <trkpt lat="44.90187" lon="6.69597">
        <ele>1953.06</ele>
        <time>2016-02-03T13:50:32Z</time>
      </trkpt>
      <trkpt lat="44.90203" lon="6.69588">
        <ele>1949.69</ele>
        <time>2016-02-03T13:50:38Z</time>
      </trkpt>
      <trkpt lat="44.90209" lon="6.6957">
        <ele>1947.77</ele>
        <time>2016-02-03T13:50:41Z</time>
      </trkpt>
      <trkpt lat="44.90221" lon="6.69571">
        <ele>1945.85</ele>
        <time>2016-02-03T13:50:46Z</time>
      </trkpt>
      <trkpt lat="44.90241" lon="6.69573">
        <ele>1940.08</ele>
        <time>2016-02-03T13:50:52Z</time>
      </trkpt>
      <trkpt lat="44.90245" lon="6.69569">
        <ele>1940.08</ele>
        <time>2016-02-03T13:50:58Z</time>
      </trkpt>
      <trkpt lat="44.90243" lon="6.69567">
        <ele>1939.6</ele>
        <time>2016-02-03T13:51:18Z</time>
      </trkpt>
      <trkpt lat="44.90246" lon="6.69565">
        <ele>1938.16</ele>
        <time>2016-02-03T13:51:37Z</time>
      </trkpt>
      <trkpt lat="44.90258" lon="6.69558">
        <ele>1934.79</ele>
        <time>2016-02-03T13:51:42Z</time>
      </trkpt>
      <trkpt lat="44.90267" lon="6.69548">
        <ele>1932.39</ele>
        <time>2016-02-03T13:51:45Z</time>
      </trkpt>
      <trkpt lat="44.90269" lon="6.69542">
        <ele>1931.91</ele>
        <time>2016-02-03T13:51:46Z</time>
      </trkpt>
      <trkpt lat="44.90286" lon="6.69533">
        <ele>1928.54</ele>
        <time>2016-02-03T13:51:51Z</time>
      </trkpt>
      <trkpt lat="44.90289" lon="6.69529">
        <ele>1928.54</ele>
        <time>2016-02-03T13:51:52Z</time>
      </trkpt>
      <trkpt lat="44.90304" lon="6.69527">
        <ele>1924.7</ele>
        <time>2016-02-03T13:51:56Z</time>
      </trkpt>
      <trkpt lat="44.90315" lon="6.69518">
        <ele>1922.77</ele>
        <time>2016-02-03T13:52:00Z</time>
      </trkpt>
      <trkpt lat="44.90319" lon="6.69524">
        <ele>1921.81</ele>
        <time>2016-02-03T13:52:02Z</time>
      </trkpt>
      <trkpt lat="44.90323" lon="6.69523">
        <ele>1920.85</ele>
        <time>2016-02-03T13:52:04Z</time>
      </trkpt>
      <trkpt lat="44.90333" lon="6.69511">
        <ele>1917.49</ele>
        <time>2016-02-03T13:52:11Z</time>
      </trkpt>
      <trkpt lat="44.90333" lon="6.69508">
        <ele>1917.49</ele>
        <time>2016-02-03T13:52:12Z</time>
      </trkpt>
      <trkpt lat="44.90333" lon="6.69507">
        <ele>1918.93</ele>
        <time>2016-02-03T13:52:14Z</time>
      </trkpt>
      <trkpt lat="44.90333" lon="6.69507">
        <ele>1919.41</ele>
        <time>2016-02-03T13:52:37Z</time>
      </trkpt>
      <trkpt lat="44.90334" lon="6.6951">
        <ele>1917.49</ele>
        <time>2016-02-03T13:52:44Z</time>
      </trkpt>
      <trkpt lat="44.90343" lon="6.69516">
        <ele>1915.08</ele>
        <time>2016-02-03T13:52:54Z</time>
      </trkpt>
      <trkpt lat="44.90349" lon="6.69526">
        <ele>1912.2</ele>
        <time>2016-02-03T13:53:06Z</time>
      </trkpt>
      <trkpt lat="44.9035" lon="6.69529">
        <ele>1911.72</ele>
        <time>2016-02-03T13:53:19Z</time>
      </trkpt>
      <trkpt lat="44.90351" lon="6.69536">
        <ele>1910.76</ele>
        <time>2016-02-03T13:53:35Z</time>
      </trkpt>
      <trkpt lat="44.90352" lon="6.6954">
        <ele>1910.28</ele>
        <time>2016-02-03T13:53:37Z</time>
      </trkpt>
      <trkpt lat="44.9036" lon="6.6953">
        <ele>1905.95</ele>
        <time>2016-02-03T13:53:40Z</time>
      </trkpt>
      <trkpt lat="44.90366" lon="6.69512">
        <ele>1904.51</ele>
        <time>2016-02-03T13:53:43Z</time>
      </trkpt>
      <trkpt lat="44.90378" lon="6.6951">
        <ele>1901.14</ele>
        <time>2016-02-03T13:53:47Z</time>
      </trkpt>
      <trkpt lat="44.90382" lon="6.69497">
        <ele>1899.22</ele>
        <time>2016-02-03T13:53:50Z</time>
      </trkpt>
      <trkpt lat="44.90393" lon="6.69492">
        <ele>1895.86</ele>
        <time>2016-02-03T13:53:54Z</time>
      </trkpt>
      <trkpt lat="44.90394" lon="6.69488">
        <ele>1895.86</ele>
        <time>2016-02-03T13:53:55Z</time>
      </trkpt>
      <trkpt lat="44.90405" lon="6.69472">
        <ele>1892.01</ele>
        <time>2016-02-03T13:54:00Z</time>
      </trkpt>
      <trkpt lat="44.90407" lon="6.69467">
        <ele>1892.01</ele>
        <time>2016-02-03T13:54:01Z</time>
      </trkpt>
      <trkpt lat="44.90409" lon="6.69456">
        <ele>1891.05</ele>
        <time>2016-02-03T13:54:03Z</time>
      </trkpt>
      <trkpt lat="44.90419" lon="6.69455">
        <ele>1889.13</ele>
        <time>2016-02-03T13:54:07Z</time>
      </trkpt>
      <trkpt lat="44.90429" lon="6.69451">
        <ele>1886.72</ele>
        <time>2016-02-03T13:54:15Z</time>
      </trkpt>
      <trkpt lat="44.9043" lon="6.69451">
        <ele>1886.72</ele>
        <time>2016-02-03T13:54:36Z</time>
      </trkpt>
      <trkpt lat="44.90429" lon="6.6945">
        <ele>1886.72</ele>
        <time>2016-02-03T13:54:42Z</time>
      </trkpt>
      <trkpt lat="44.90435" lon="6.69445">
        <ele>1885.76</ele>
        <time>2016-02-03T13:54:57Z</time>
      </trkpt>
      <trkpt lat="44.90436" lon="6.69443">
        <ele>1885.28</ele>
        <time>2016-02-03T13:55:15Z</time>
      </trkpt>
      <trkpt lat="44.90435" lon="6.69442">
        <ele>1885.28</ele>
        <time>2016-02-03T13:55:36Z</time>
      </trkpt>
      <trkpt lat="44.90436" lon="6.69439">
        <ele>1886.24</ele>
        <time>2016-02-03T13:55:49Z</time>
      </trkpt>
      <trkpt lat="44.90439" lon="6.69435">
        <ele>1885.28</ele>
        <time>2016-02-03T13:55:51Z</time>
      </trkpt>
      <trkpt lat="44.90445" lon="6.69434">
        <ele>1880.96</ele>
        <time>2016-02-03T13:55:54Z</time>
      </trkpt>
      <trkpt lat="44.90455" lon="6.6943">
        <ele>1877.11</ele>
        <time>2016-02-03T13:55:58Z</time>
      </trkpt>
      <trkpt lat="44.90463" lon="6.69425">
        <ele>1873.75</ele>
        <time>2016-02-03T13:56:02Z</time>
      </trkpt>
      <trkpt lat="44.90467" lon="6.69421">
        <ele>1872.3</ele>
        <time>2016-02-03T13:56:04Z</time>
      </trkpt>
      <trkpt lat="44.90475" lon="6.6942">
        <ele>1867.98</ele>
        <time>2016-02-03T13:56:07Z</time>
      </trkpt>
      <trkpt lat="44.9048" lon="6.69416">
        <ele>1866.54</ele>
        <time>2016-02-03T13:56:09Z</time>
      </trkpt>
      <trkpt lat="44.90487" lon="6.69412">
        <ele>1863.17</ele>
        <time>2016-02-03T13:56:12Z</time>
      </trkpt>
      <trkpt lat="44.90486" lon="6.69406">
        <ele>1863.65</ele>
        <time>2016-02-03T13:56:20Z</time>
      </trkpt>
      <trkpt lat="44.90491" lon="6.69406">
        <ele>1863.17</ele>
        <time>2016-02-03T13:56:43Z</time>
      </trkpt>
      <trkpt lat="44.90491" lon="6.69405">
        <ele>1863.17</ele>
        <time>2016-02-03T13:56:48Z</time>
      </trkpt>
      <trkpt lat="44.90499" lon="6.69403">
        <ele>1859.33</ele>
        <time>2016-02-03T13:56:53Z</time>
      </trkpt>
      <trkpt lat="44.90504" lon="6.6939">
        <ele>1856.92</ele>
        <time>2016-02-03T13:56:58Z</time>
      </trkpt>
      <trkpt lat="44.90518" lon="6.69385">
        <ele>1850.19</ele>
        <time>2016-02-03T13:57:03Z</time>
      </trkpt>
      <trkpt lat="44.9052" lon="6.69381">
        <ele>1850.19</ele>
        <time>2016-02-03T13:57:04Z</time>
      </trkpt>
      <trkpt lat="44.90522" lon="6.6938">
        <ele>1848.75</ele>
        <time>2016-02-03T13:57:07Z</time>
      </trkpt>
      <trkpt lat="44.90523" lon="6.69382">
        <ele>1848.27</ele>
        <time>2016-02-03T13:57:09Z</time>
      </trkpt>
      <trkpt lat="44.90526" lon="6.69377">
        <ele>1845.87</ele>
        <time>2016-02-03T13:57:13Z</time>
      </trkpt>
      <trkpt lat="44.90526" lon="6.69373">
        <ele>1845.39</ele>
        <time>2016-02-03T13:57:30Z</time>
      </trkpt>
      <trkpt lat="44.90528" lon="6.69366">
        <ele>1843.47</ele>
        <time>2016-02-03T13:57:51Z</time>
      </trkpt>
      <trkpt lat="44.90532" lon="6.69364">
        <ele>1842.5</ele>
        <time>2016-02-03T13:58:03Z</time>
      </trkpt>
      <trkpt lat="44.90531" lon="6.69358">
        <ele>1842.02</ele>
        <time>2016-02-03T13:58:16Z</time>
      </trkpt>
      <trkpt lat="44.90534" lon="6.69356">
        <ele>1842.02</ele>
        <time>2016-02-03T13:58:29Z</time>
      </trkpt>
      <trkpt lat="44.90534" lon="6.69349">
        <ele>1840.58</ele>
        <time>2016-02-03T13:58:33Z</time>
      </trkpt>
      <trkpt lat="44.90535" lon="6.69345">
        <ele>1839.14</ele>
        <time>2016-02-03T13:58:47Z</time>
      </trkpt>
      <trkpt lat="44.90538" lon="6.69342">
        <ele>1837.22</ele>
        <time>2016-02-03T13:58:51Z</time>
      </trkpt>
      <trkpt lat="44.90541" lon="6.69335">
        <ele>1833.85</ele>
        <time>2016-02-03T13:59:01Z</time>
      </trkpt>
      <trkpt lat="44.90542" lon="6.69331">
        <ele>1833.37</ele>
        <time>2016-02-03T13:59:18Z</time>
      </trkpt>
      <trkpt lat="44.90541" lon="6.69329">
        <ele>1832.41</ele>
        <time>2016-02-03T13:59:20Z</time>
      </trkpt>
      <trkpt lat="44.90544" lon="6.69322">
        <ele>1830.49</ele>
        <time>2016-02-03T13:59:34Z</time>
      </trkpt>
      <trkpt lat="44.90543" lon="6.69318">
        <ele>1829.53</ele>
        <time>2016-02-03T13:59:55Z</time>
      </trkpt>
      <trkpt lat="44.90548" lon="6.69315">
        <ele>1828.08</ele>
        <time>2016-02-03T14:00:00Z</time>
      </trkpt>
      <trkpt lat="44.90547" lon="6.69308">
        <ele>1826.16</ele>
        <time>2016-02-03T14:00:03Z</time>
      </trkpt>
      <trkpt lat="44.90543" lon="6.69305">
        <ele>1826.64</ele>
        <time>2016-02-03T14:00:15Z</time>
      </trkpt>
      <trkpt lat="44.90543" lon="6.69306">
        <ele>1826.16</ele>
        <time>2016-02-03T14:00:21Z</time>
      </trkpt>
      <trkpt lat="44.90542" lon="6.69301">
        <ele>1824.24</ele>
        <time>2016-02-03T14:00:31Z</time>
      </trkpt>
      <trkpt lat="44.90541" lon="6.69296">
        <ele>1823.28</ele>
        <time>2016-02-03T14:00:47Z</time>
      </trkpt>
      <trkpt lat="44.90539" lon="6.69293">
        <ele>1823.28</ele>
        <time>2016-02-03T14:01:08Z</time>
      </trkpt>
      <trkpt lat="44.90543" lon="6.69293">
        <ele>1821.35</ele>
        <time>2016-02-03T14:01:26Z</time>
      </trkpt>
      <trkpt lat="44.90547" lon="6.69287">
        <ele>1817.03</ele>
        <time>2016-02-03T14:01:30Z</time>
      </trkpt>
      <trkpt lat="44.90548" lon="6.69285">
        <ele>1817.03</ele>
        <time>2016-02-03T14:01:31Z</time>
      </trkpt>
      <trkpt lat="44.90557" lon="6.69283">
        <ele>1812.7</ele>
        <time>2016-02-03T14:01:34Z</time>
      </trkpt>
      <trkpt lat="44.90563" lon="6.69285">
        <ele>1811.74</ele>
        <time>2016-02-03T14:01:35Z</time>
      </trkpt>
      <trkpt lat="44.90611" lon="6.69274">
        <ele>1808.86</ele>
        <time>2016-02-03T14:01:46Z</time>
      </trkpt>
      <trkpt lat="44.90615" lon="6.69273">
        <ele>1808.38</ele>
        <time>2016-02-03T14:01:47Z</time>
      </trkpt>
      <trkpt lat="44.90616" lon="6.69268">
        <ele>1808.38</ele>
        <time>2016-02-03T14:01:59Z</time>
      </trkpt>
      <trkpt lat="44.90616" lon="6.6927">
        <ele>1808.38</ele>
        <time>2016-02-03T14:02:27Z</time>
      </trkpt>
      <trkpt lat="44.90615" lon="6.69268">
        <ele>1808.38</ele>
        <time>2016-02-03T14:02:51Z</time>
      </trkpt>
      <trkpt lat="44.90616" lon="6.69268">
        <ele>1808.38</ele>
        <time>2016-02-03T14:03:13Z</time>
      </trkpt>
      <trkpt lat="44.90618" lon="6.69271">
        <ele>1808.38</ele>
        <time>2016-02-03T14:03:28Z</time>
      </trkpt>
      <trkpt lat="44.90621" lon="6.69273">
        <ele>1808.38</ele>
        <time>2016-02-03T14:03:38Z</time>
      </trkpt>
      <trkpt lat="44.90645" lon="6.69252">
        <ele>1805.01</ele>
        <time>2016-02-03T14:03:50Z</time>
      </trkpt>
      <trkpt lat="44.90667" lon="6.69246">
        <ele>1801.65</ele>
        <time>2016-02-03T14:03:56Z</time>
      </trkpt>
      <trkpt lat="44.9068" lon="6.69244">
        <ele>1799.24</ele>
        <time>2016-02-03T14:03:59Z</time>
      </trkpt>
      <trkpt lat="44.90699" lon="6.69246">
        <ele>1800.21</ele>
        <time>2016-02-03T14:04:08Z</time>
      </trkpt>
      <trkpt lat="44.90702" lon="6.69248">
        <ele>1801.17</ele>
        <time>2016-02-03T14:04:19Z</time>
      </trkpt>
      <trkpt lat="44.90707" lon="6.69249">
        <ele>1801.17</ele>
        <time>2016-02-03T14:04:32Z</time>
      </trkpt>
      <trkpt lat="44.90711" lon="6.69255">
        <ele>1800.21</ele>
        <time>2016-02-03T14:04:47Z</time>
      </trkpt>
      <trkpt lat="44.90742" lon="6.69259">
        <ele>1796.84</ele>
        <time>2016-02-03T14:04:58Z</time>
      </trkpt>
      <trkpt lat="44.90753" lon="6.6926">
        <ele>1795.4</ele>
        <time>2016-02-03T14:05:00Z</time>
      </trkpt>
      <trkpt lat="44.90797" lon="6.69246">
        <ele>1793.96</ele>
        <time>2016-02-03T14:05:11Z</time>
      </trkpt>
      <trkpt lat="44.90801" lon="6.69245">
        <ele>1793.48</ele>
        <time>2016-02-03T14:05:22Z</time>
      </trkpt>
      <trkpt lat="44.90803" lon="6.69245">
        <ele>1793.48</ele>
        <time>2016-02-03T14:05:44Z</time>
      </trkpt>
      <trkpt lat="44.90829" lon="6.69235">
        <ele>1791.07</ele>
        <time>2016-02-03T14:05:56Z</time>
      </trkpt>
      <trkpt lat="44.90839" lon="6.69229">
        <ele>1789.15</ele>
        <time>2016-02-03T14:05:59Z</time>
      </trkpt>
      <trkpt lat="44.90843" lon="6.69227">
        <ele>1788.19</ele>
        <time>2016-02-03T14:06:00Z</time>
      </trkpt>
      <trkpt lat="44.90849" lon="6.69221">
        <ele>1787.23</ele>
        <time>2016-02-03T14:06:02Z</time>
      </trkpt>
      <trkpt lat="44.90853" lon="6.69218">
        <ele>1786.75</ele>
        <time>2016-02-03T14:06:03Z</time>
      </trkpt>
      <trkpt lat="44.90867" lon="6.69202">
        <ele>1783.86</ele>
        <time>2016-02-03T14:06:07Z</time>
      </trkpt>
      <trkpt lat="44.90883" lon="6.69193">
        <ele>1782.42</ele>
        <time>2016-02-03T14:06:11Z</time>
      </trkpt>
      <trkpt lat="44.90914" lon="6.69187">
        <ele>1778.58</ele>
        <time>2016-02-03T14:06:19Z</time>
      </trkpt>
      <trkpt lat="44.90942" lon="6.69168">
        <ele>1775.21</ele>
        <time>2016-02-03T14:06:29Z</time>
      </trkpt>
      <trkpt lat="44.9096" lon="6.69147">
        <ele>1773.29</ele>
        <time>2016-02-03T14:06:35Z</time>
      </trkpt>
      <trkpt lat="44.90967" lon="6.6914">
        <ele>1771.85</ele>
        <time>2016-02-03T14:06:37Z</time>
      </trkpt>
      <trkpt lat="44.90989" lon="6.69134">
        <ele>1771.37</ele>
        <time>2016-02-03T14:06:43Z</time>
      </trkpt>
      <trkpt lat="44.91001" lon="6.69134">
        <ele>1768</ele>
        <time>2016-02-03T14:06:47Z</time>
      </trkpt>
      <trkpt lat="44.91009" lon="6.69135">
        <ele>1766.08</ele>
        <time>2016-02-03T14:06:49Z</time>
      </trkpt>
      <trkpt lat="44.91016" lon="6.69145">
        <ele>1766.08</ele>
        <time>2016-02-03T14:06:59Z</time>
      </trkpt>
      <trkpt lat="44.91016" lon="6.69144">
        <ele>1766.08</ele>
        <time>2016-02-03T14:07:19Z</time>
      </trkpt>
      <trkpt lat="44.91017" lon="6.69145">
        <ele>1766.08</ele>
        <time>2016-02-03T14:07:37Z</time>
      </trkpt>
      <trkpt lat="44.91016" lon="6.69146">
        <ele>1766.08</ele>
        <time>2016-02-03T14:07:56Z</time>
      </trkpt>
      <trkpt lat="44.91016" lon="6.69151">
        <ele>1766.56</ele>
        <time>2016-02-03T14:08:07Z</time>
      </trkpt>
      <trkpt lat="44.91006" lon="6.69176">
        <ele>1763.68</ele>
        <time>2016-02-03T14:08:17Z</time>
      </trkpt>
      <trkpt lat="44.91003" lon="6.69189">
        <ele>1761.75</ele>
        <time>2016-02-03T14:08:20Z</time>
      </trkpt>
      <trkpt lat="44.91009" lon="6.69194">
        <ele>1760.31</ele>
        <time>2016-02-03T14:08:27Z</time>
      </trkpt>
      <trkpt lat="44.91018" lon="6.69172">
        <ele>1758.39</ele>
        <time>2016-02-03T14:08:36Z</time>
      </trkpt>
      <trkpt lat="44.91019" lon="6.69166">
        <ele>1759.83</ele>
        <time>2016-02-03T14:08:44Z</time>
      </trkpt>
      <trkpt lat="44.91032" lon="6.69146">
        <ele>1755.99</ele>
        <time>2016-02-03T14:08:53Z</time>
      </trkpt>
      <trkpt lat="44.9104" lon="6.69137">
        <ele>1755.02</ele>
        <time>2016-02-03T14:08:56Z</time>
      </trkpt>
      <trkpt lat="44.91046" lon="6.6913">
        <ele>1754.06</ele>
        <time>2016-02-03T14:08:58Z</time>
      </trkpt>
      <trkpt lat="44.91049" lon="6.69126">
        <ele>1753.58</ele>
        <time>2016-02-03T14:08:59Z</time>
      </trkpt>
      <trkpt lat="44.91049" lon="6.69116">
        <ele>1752.62</ele>
        <time>2016-02-03T14:09:01Z</time>
      </trkpt>
      <trkpt lat="44.91038" lon="6.6911">
        <ele>1750.7</ele>
        <time>2016-02-03T14:09:04Z</time>
      </trkpt>
      <trkpt lat="44.9103" lon="6.69109">
        <ele>1749.74</ele>
        <time>2016-02-03T14:09:06Z</time>
      </trkpt>
      <trkpt lat="44.91021" lon="6.69106">
        <ele>1748.78</ele>
        <time>2016-02-03T14:09:08Z</time>
      </trkpt>
      <trkpt lat="44.91014" lon="6.69105">
        <ele>1748.29</ele>
        <time>2016-02-03T14:09:10Z</time>
      </trkpt>
      <trkpt lat="44.90982" lon="6.69077">
        <ele>1744.93</ele>
        <time>2016-02-03T14:09:23Z</time>
      </trkpt>
      <trkpt lat="44.90974" lon="6.6907">
        <ele>1743.97</ele>
        <time>2016-02-03T14:09:33Z</time>
      </trkpt>
      <trkpt lat="44.90974" lon="6.69072">
        <ele>1743.49</ele>
        <time>2016-02-03T14:09:50Z</time>
      </trkpt>
      <trkpt lat="44.9098" lon="6.69069">
        <ele>1743.01</ele>
        <time>2016-02-03T14:10:09Z</time>
      </trkpt>
      <trkpt lat="44.90981" lon="6.6907">
        <ele>1743.49</ele>
        <time>2016-02-03T14:10:47Z</time>
      </trkpt>
      <trkpt lat="44.9098" lon="6.69071">
        <ele>1743.49</ele>
        <time>2016-02-03T14:11:15Z</time>
      </trkpt>
      <trkpt lat="44.90985" lon="6.6907">
        <ele>1743.49</ele>
        <time>2016-02-03T14:11:43Z</time>
      </trkpt>
      <trkpt lat="44.9099" lon="6.69068">
        <ele>1743.97</ele>
        <time>2016-02-03T14:12:09Z</time>
      </trkpt>
      <trkpt lat="44.90994" lon="6.69071">
        <ele>1743.97</ele>
        <time>2016-02-03T14:12:43Z</time>
      </trkpt>
      <trkpt lat="44.90985" lon="6.69075">
        <ele>1743.97</ele>
        <time>2016-02-03T14:13:17Z</time>
      </trkpt>
      <trkpt lat="44.90982" lon="6.69074">
        <ele>1744.45</ele>
        <time>2016-02-03T14:13:54Z</time>
      </trkpt>
      <trkpt lat="44.90987" lon="6.69068">
        <ele>1744.45</ele>
        <time>2016-02-03T14:14:25Z</time>
      </trkpt>
      <trkpt lat="44.90982" lon="6.6907">
        <ele>1744.45</ele>
        <time>2016-02-03T14:14:50Z</time>
      </trkpt>
      <trkpt lat="44.90979" lon="6.69068">
        <ele>1744.45</ele>
        <time>2016-02-03T14:15:16Z</time>
      </trkpt>
      <trkpt lat="44.90982" lon="6.69064">
        <ele>1744.45</ele>
        <time>2016-02-03T14:15:48Z</time>
      </trkpt>
      <trkpt lat="44.90976" lon="6.69071">
        <ele>1744.93</ele>
        <time>2016-02-03T14:16:21Z</time>
      </trkpt>
      <trkpt lat="44.90984" lon="6.69072">
        <ele>1744.45</ele>
        <time>2016-02-03T14:16:55Z</time>
      </trkpt>
      <trkpt lat="44.90977" lon="6.69071">
        <ele>1745.89</ele>
        <time>2016-02-03T14:17:18Z</time>
      </trkpt>
      <trkpt lat="44.90975" lon="6.6907">
        <ele>1745.89</ele>
        <time>2016-02-03T14:17:39Z</time>
      </trkpt>
      <trkpt lat="44.90975" lon="6.69068">
        <ele>1745.89</ele>
        <time>2016-02-03T14:18:01Z</time>
      </trkpt>
      <trkpt lat="44.90975" lon="6.69069">
        <ele>1745.89</ele>
        <time>2016-02-03T14:18:23Z</time>
      </trkpt>
      <trkpt lat="44.90975" lon="6.69066">
        <ele>1746.37</ele>
        <time>2016-02-03T14:18:51Z</time>
      </trkpt>
      <trkpt lat="44.90976" lon="6.69064">
        <ele>1745.89</ele>
        <time>2016-02-03T14:19:02Z</time>
      </trkpt>
      <trkpt lat="44.90982" lon="6.69056">
        <ele>1744.45</ele>
        <time>2016-02-03T14:19:06Z</time>
      </trkpt>
      <trkpt lat="44.90989" lon="6.69054">
        <ele>1743.01</ele>
        <time>2016-02-03T14:19:09Z</time>
      </trkpt>
      <trkpt lat="44.90998" lon="6.69059">
        <ele>1742.05</ele>
        <time>2016-02-03T14:19:13Z</time>
      </trkpt>
      <trkpt lat="44.91025" lon="6.69064">
        <ele>1737.72</ele>
        <time>2016-02-03T14:19:22Z</time>
      </trkpt>
      <trkpt lat="44.91049" lon="6.69055">
        <ele>1734.84</ele>
        <time>2016-02-03T14:19:33Z</time>
      </trkpt>
      <trkpt lat="44.91066" lon="6.69045">
        <ele>1731.47</ele>
        <time>2016-02-03T14:19:45Z</time>
      </trkpt>
      <trkpt lat="44.91077" lon="6.6904">
        <ele>1730.03</ele>
        <time>2016-02-03T14:19:59Z</time>
      </trkpt>
      <trkpt lat="44.91077" lon="6.69036">
        <ele>1730.51</ele>
        <time>2016-02-03T14:20:17Z</time>
      </trkpt>
      <trkpt lat="44.91087" lon="6.69033">
        <ele>1728.59</ele>
        <time>2016-02-03T14:20:36Z</time>
      </trkpt>
      <trkpt lat="44.91114" lon="6.69004">
        <ele>1725.7</ele>
        <time>2016-02-03T14:20:48Z</time>
      </trkpt>
      <trkpt lat="44.91117" lon="6.68997">
        <ele>1726.18</ele>
        <time>2016-02-03T14:20:50Z</time>
      </trkpt>
      <trkpt lat="44.91125" lon="6.69003">
        <ele>1723.78</ele>
        <time>2016-02-03T14:20:57Z</time>
      </trkpt>
      <trkpt lat="44.91127" lon="6.6902">
        <ele>1722.34</ele>
        <time>2016-02-03T14:21:07Z</time>
      </trkpt>
      <trkpt lat="44.91113" lon="6.69053">
        <ele>1719.46</ele>
        <time>2016-02-03T14:21:17Z</time>
      </trkpt>
      <trkpt lat="44.9111" lon="6.69072">
        <ele>1717.53</ele>
        <time>2016-02-03T14:21:21Z</time>
      </trkpt>
      <trkpt lat="44.91109" lon="6.69103">
        <ele>1713.69</ele>
        <time>2016-02-03T14:21:26Z</time>
      </trkpt>
      <trkpt lat="44.91104" lon="6.69136">
        <ele>1711.28</ele>
        <time>2016-02-03T14:21:32Z</time>
      </trkpt>
      <trkpt lat="44.91105" lon="6.69142">
        <ele>1710.8</ele>
        <time>2016-02-03T14:21:33Z</time>
      </trkpt>
      <trkpt lat="44.91106" lon="6.69158">
        <ele>1709.84</ele>
        <time>2016-02-03T14:21:36Z</time>
      </trkpt>
      <trkpt lat="44.911" lon="6.6917">
        <ele>1707.92</ele>
        <time>2016-02-03T14:21:40Z</time>
      </trkpt>
      <trkpt lat="44.91093" lon="6.6919">
        <ele>1705.52</ele>
        <time>2016-02-03T14:21:45Z</time>
      </trkpt>
      <trkpt lat="44.91089" lon="6.69228">
        <ele>1702.15</ele>
        <time>2016-02-03T14:21:53Z</time>
      </trkpt>
      <trkpt lat="44.91095" lon="6.69222">
        <ele>1701.67</ele>
        <time>2016-02-03T14:22:00Z</time>
      </trkpt>
      <trkpt lat="44.91095" lon="6.69214">
        <ele>1701.19</ele>
        <time>2016-02-03T14:22:04Z</time>
      </trkpt>
      <trkpt lat="44.91101" lon="6.69194">
        <ele>1699.27</ele>
        <time>2016-02-03T14:22:11Z</time>
      </trkpt>
      <trkpt lat="44.91124" lon="6.69153">
        <ele>1697.34</ele>
        <time>2016-02-03T14:22:27Z</time>
      </trkpt>
      <trkpt lat="44.91134" lon="6.6911">
        <ele>1694.46</ele>
        <time>2016-02-03T14:22:40Z</time>
      </trkpt>
      <trkpt lat="44.91153" lon="6.6907">
        <ele>1693.5</ele>
        <time>2016-02-03T14:22:51Z</time>
      </trkpt>
      <trkpt lat="44.91164" lon="6.69062">
        <ele>1689.65</ele>
        <time>2016-02-03T14:22:55Z</time>
      </trkpt>
      <trkpt lat="44.91169" lon="6.69047">
        <ele>1688.69</ele>
        <time>2016-02-03T14:23:05Z</time>
      </trkpt>
      <trkpt lat="44.91169" lon="6.69047">
        <ele>1688.69</ele>
        <time>2016-02-03T14:23:18Z</time>
      </trkpt>
      <trkpt lat="44.9117" lon="6.69036">
        <ele>1688.21</ele>
        <time>2016-02-03T14:23:23Z</time>
      </trkpt>
      <trkpt lat="44.91174" lon="6.69024">
        <ele>1687.25</ele>
        <time>2016-02-03T14:23:26Z</time>
      </trkpt>
      <trkpt lat="44.9118" lon="6.69012">
        <ele>1685.33</ele>
        <time>2016-02-03T14:23:30Z</time>
      </trkpt>
      <trkpt lat="44.91199" lon="6.69">
        <ele>1682.44</ele>
        <time>2016-02-03T14:23:36Z</time>
      </trkpt>
      <trkpt lat="44.91202" lon="6.68997">
        <ele>1682.44</ele>
        <time>2016-02-03T14:23:37Z</time>
      </trkpt>
      <trkpt lat="44.91212" lon="6.6899">
        <ele>1681.48</ele>
        <time>2016-02-03T14:23:40Z</time>
      </trkpt>
      <trkpt lat="44.91216" lon="6.68962">
        <ele>1679.08</ele>
        <time>2016-02-03T14:23:46Z</time>
      </trkpt>
      <trkpt lat="44.91214" lon="6.68931">
        <ele>1677.16</ele>
        <time>2016-02-03T14:23:51Z</time>
      </trkpt>
      <trkpt lat="44.9122" lon="6.68917">
        <ele>1675.72</ele>
        <time>2016-02-03T14:23:54Z</time>
      </trkpt>
      <trkpt lat="44.91247" lon="6.68886">
        <ele>1672.83</ele>
        <time>2016-02-03T14:24:04Z</time>
      </trkpt>
      <trkpt lat="44.91258" lon="6.6888">
        <ele>1670.43</ele>
        <time>2016-02-03T14:24:08Z</time>
      </trkpt>
      <trkpt lat="44.91262" lon="6.68879">
        <ele>1669.47</ele>
        <time>2016-02-03T14:24:10Z</time>
      </trkpt>
      <trkpt lat="44.91288" lon="6.68867">
        <ele>1668.02</ele>
        <time>2016-02-03T14:24:22Z</time>
      </trkpt>
      <trkpt lat="44.91288" lon="6.68864">
        <ele>1668.51</ele>
        <time>2016-02-03T14:24:39Z</time>
      </trkpt>
      <trkpt lat="44.91301" lon="6.68836">
        <ele>1666.58</ele>
        <time>2016-02-03T14:24:53Z</time>
      </trkpt>
      <trkpt lat="44.9131" lon="6.68822">
        <ele>1665.14</ele>
        <time>2016-02-03T14:24:57Z</time>
      </trkpt>
      <trkpt lat="44.91341" lon="6.68808">
        <ele>1660.81</ele>
        <time>2016-02-03T14:25:05Z</time>
      </trkpt>
      <trkpt lat="44.91349" lon="6.68804">
        <ele>1659.85</ele>
        <time>2016-02-03T14:25:07Z</time>
      </trkpt>
      <trkpt lat="44.91358" lon="6.68794">
        <ele>1659.37</ele>
        <time>2016-02-03T14:25:10Z</time>
      </trkpt>
      <trkpt lat="44.91356" lon="6.68758">
        <ele>1656.01</ele>
        <time>2016-02-03T14:25:17Z</time>
      </trkpt>
      <trkpt lat="44.91353" lon="6.68747">
        <ele>1655.53</ele>
        <time>2016-02-03T14:25:19Z</time>
      </trkpt>
      <trkpt lat="44.91347" lon="6.68721">
        <ele>1654.09</ele>
        <time>2016-02-03T14:25:29Z</time>
      </trkpt>
      <trkpt lat="44.91348" lon="6.68716">
        <ele>1654.09</ele>
        <time>2016-02-03T14:25:55Z</time>
      </trkpt>
      <trkpt lat="44.91343" lon="6.68687">
        <ele>1652.16</ele>
        <time>2016-02-03T14:26:06Z</time>
      </trkpt>
      <trkpt lat="44.91321" lon="6.68658">
        <ele>1648.8</ele>
        <time>2016-02-03T14:26:14Z</time>
      </trkpt>
      <trkpt lat="44.913" lon="6.68643">
        <ele>1647.84</ele>
        <time>2016-02-03T14:26:25Z</time>
      </trkpt>
      <trkpt lat="44.91303" lon="6.68639">
        <ele>1647.84</ele>
        <time>2016-02-03T14:26:35Z</time>
      </trkpt>
      <trkpt lat="44.91309" lon="6.68636">
        <ele>1647.36</ele>
        <time>2016-02-03T14:26:39Z</time>
      </trkpt>
      <trkpt lat="44.91343" lon="6.68648">
        <ele>1644.47</ele>
        <time>2016-02-03T14:26:55Z</time>
      </trkpt>
      <trkpt lat="44.91363" lon="6.68677">
        <ele>1642.07</ele>
        <time>2016-02-03T14:27:06Z</time>
      </trkpt>
      <trkpt lat="44.91376" lon="6.68713">
        <ele>1639.19</ele>
        <time>2016-02-03T14:27:21Z</time>
      </trkpt>
      <trkpt lat="44.9138" lon="6.68718">
        <ele>1638.22</ele>
        <time>2016-02-03T14:27:23Z</time>
      </trkpt>
      <trkpt lat="44.91389" lon="6.68719">
        <ele>1637.26</ele>
        <time>2016-02-03T14:27:27Z</time>
      </trkpt>
      <trkpt lat="44.91395" lon="6.6872">
        <ele>1637.26</ele>
        <time>2016-02-03T14:27:32Z</time>
      </trkpt>
      <trkpt lat="44.91402" lon="6.68718">
        <ele>1636.78</ele>
        <time>2016-02-03T14:27:36Z</time>
      </trkpt>
      <trkpt lat="44.91412" lon="6.68716">
        <ele>1635.82</ele>
        <time>2016-02-03T14:27:55Z</time>
      </trkpt>
      <trkpt lat="44.91422" lon="6.68712">
        <ele>1635.34</ele>
        <time>2016-02-03T14:28:00Z</time>
      </trkpt>
      <trkpt lat="44.91434" lon="6.68713">
        <ele>1633.42</ele>
        <time>2016-02-03T14:28:04Z</time>
      </trkpt>
      <trkpt lat="44.91439" lon="6.68723">
        <ele>1631.98</ele>
        <time>2016-02-03T14:28:10Z</time>
      </trkpt>
      <trkpt lat="44.91423" lon="6.68756">
        <ele>1628.61</ele>
        <time>2016-02-03T14:28:20Z</time>
      </trkpt>
      <trkpt lat="44.91409" lon="6.68792">
        <ele>1625.25</ele>
        <time>2016-02-03T14:28:28Z</time>
      </trkpt>
      <trkpt lat="44.91395" lon="6.68838">
        <ele>1622.84</ele>
        <time>2016-02-03T14:28:39Z</time>
      </trkpt>
      <trkpt lat="44.91379" lon="6.68866">
        <ele>1619.96</ele>
        <time>2016-02-03T14:28:50Z</time>
      </trkpt>
      <trkpt lat="44.91377" lon="6.68869">
        <ele>1619.48</ele>
        <time>2016-02-03T14:28:51Z</time>
      </trkpt>
      <trkpt lat="44.91366" lon="6.68899">
        <ele>1616.59</ele>
        <time>2016-02-03T14:28:59Z</time>
      </trkpt>
      <trkpt lat="44.91365" lon="6.6892">
        <ele>1614.67</ele>
        <time>2016-02-03T14:29:05Z</time>
      </trkpt>
      <trkpt lat="44.91357" lon="6.68926">
        <ele>1613.71</ele>
        <time>2016-02-03T14:29:16Z</time>
      </trkpt>
      <trkpt lat="44.91356" lon="6.68925">
        <ele>1613.23</ele>
        <time>2016-02-03T14:29:38Z</time>
      </trkpt>
      <trkpt lat="44.91344" lon="6.68938">
        <ele>1611.79</ele>
        <time>2016-02-03T14:29:52Z</time>
      </trkpt>
      <trkpt lat="44.91323" lon="6.68974">
        <ele>1608.42</ele>
        <time>2016-02-03T14:30:01Z</time>
      </trkpt>
      <trkpt lat="44.91322" lon="6.68979">
        <ele>1607.94</ele>
        <time>2016-02-03T14:30:02Z</time>
      </trkpt>
      <trkpt lat="44.91325" lon="6.68987">
        <ele>1606.98</ele>
        <time>2016-02-03T14:30:04Z</time>
      </trkpt>
      <trkpt lat="44.91333" lon="6.68979">
        <ele>1606.5</ele>
        <time>2016-02-03T14:30:08Z</time>
      </trkpt>
      <trkpt lat="44.9134" lon="6.68964">
        <ele>1605.06</ele>
        <time>2016-02-03T14:30:12Z</time>
      </trkpt>
      <trkpt lat="44.91369" lon="6.68944">
        <ele>1602.17</ele>
        <time>2016-02-03T14:30:22Z</time>
      </trkpt>
      <trkpt lat="44.91389" lon="6.68937">
        <ele>1600.73</ele>
        <time>2016-02-03T14:30:30Z</time>
      </trkpt>
      <trkpt lat="44.91398" lon="6.68906">
        <ele>1597.37</ele>
        <time>2016-02-03T14:30:40Z</time>
      </trkpt>
      <trkpt lat="44.91419" lon="6.68886">
        <ele>1595.45</ele>
        <time>2016-02-03T14:30:51Z</time>
      </trkpt>
      <trkpt lat="44.91429" lon="6.68881">
        <ele>1594</ele>
        <time>2016-02-03T14:30:55Z</time>
      </trkpt>
      <trkpt lat="44.91455" lon="6.68873">
        <ele>1592.08</ele>
        <time>2016-02-03T14:31:07Z</time>
      </trkpt>
      <trkpt lat="44.91455" lon="6.68843">
        <ele>1588.24</ele>
        <time>2016-02-03T14:31:16Z</time>
      </trkpt>
      <trkpt lat="44.91469" lon="6.68807">
        <ele>1585.83</ele>
        <time>2016-02-03T14:31:29Z</time>
      </trkpt>
      <trkpt lat="44.91496" lon="6.6879">
        <ele>1583.91</ele>
        <time>2016-02-03T14:31:44Z</time>
      </trkpt>
      <trkpt lat="44.91507" lon="6.68757">
        <ele>1581.03</ele>
        <time>2016-02-03T14:31:54Z</time>
      </trkpt>
      <trkpt lat="44.91525" lon="6.68745">
        <ele>1578.14</ele>
        <time>2016-02-03T14:32:04Z</time>
      </trkpt>
      <trkpt lat="44.91547" lon="6.68742">
        <ele>1574.78</ele>
        <time>2016-02-03T14:32:12Z</time>
      </trkpt>
      <trkpt lat="44.91551" lon="6.68739">
        <ele>1575.26</ele>
        <time>2016-02-03T14:32:23Z</time>
      </trkpt>
      <trkpt lat="44.91552" lon="6.68737">
        <ele>1575.26</ele>
        <time>2016-02-03T14:32:42Z</time>
      </trkpt>
      <trkpt lat="44.91552" lon="6.68733">
        <ele>1573.82</ele>
        <time>2016-02-03T14:32:44Z</time>
      </trkpt>
      <trkpt lat="44.9155" lon="6.68711">
        <ele>1571.41</ele>
        <time>2016-02-03T14:32:49Z</time>
      </trkpt>
      <trkpt lat="44.91552" lon="6.68699">
        <ele>1569.97</ele>
        <time>2016-02-03T14:32:51Z</time>
      </trkpt>
      <trkpt lat="44.91564" lon="6.68673">
        <ele>1566.61</ele>
        <time>2016-02-03T14:32:56Z</time>
      </trkpt>
      <trkpt lat="44.91566" lon="6.68668">
        <ele>1565.64</ele>
        <time>2016-02-03T14:32:57Z</time>
      </trkpt>
      <trkpt lat="44.9157" lon="6.68658">
        <ele>1564.68</ele>
        <time>2016-02-03T14:32:59Z</time>
      </trkpt>
      <trkpt lat="44.91575" lon="6.68648">
        <ele>1563.72</ele>
        <time>2016-02-03T14:33:01Z</time>
      </trkpt>
      <trkpt lat="44.91593" lon="6.68632">
        <ele>1561.32</ele>
        <time>2016-02-03T14:33:06Z</time>
      </trkpt>
      <trkpt lat="44.9161" lon="6.68589">
        <ele>1557.95</ele>
        <time>2016-02-03T14:33:17Z</time>
      </trkpt>
      <trkpt lat="44.91604" lon="6.68583">
        <ele>1557.95</ele>
        <time>2016-02-03T14:33:19Z</time>
      </trkpt>
      <trkpt lat="44.91584" lon="6.68571">
        <ele>1554.59</ele>
        <time>2016-02-03T14:33:28Z</time>
      </trkpt>
      <trkpt lat="44.91567" lon="6.68563">
        <ele>1551.22</ele>
        <time>2016-02-03T14:33:33Z</time>
      </trkpt>
      <trkpt lat="44.9156" lon="6.68559">
        <ele>1550.74</ele>
        <time>2016-02-03T14:33:35Z</time>
      </trkpt>
      <trkpt lat="44.91552" lon="6.68534">
        <ele>1548.82</ele>
        <time>2016-02-03T14:33:41Z</time>
      </trkpt>
      <trkpt lat="44.91549" lon="6.68498">
        <ele>1545.46</ele>
        <time>2016-02-03T14:33:51Z</time>
      </trkpt>
      <trkpt lat="44.91544" lon="6.68486">
        <ele>1544.98</ele>
        <time>2016-02-03T14:33:58Z</time>
      </trkpt>
      <trkpt lat="44.91542" lon="6.68483">
        <ele>1544.5</ele>
        <time>2016-02-03T14:34:14Z</time>
      </trkpt>
      <trkpt lat="44.91535" lon="6.68477">
        <ele>1543.53</ele>
        <time>2016-02-03T14:34:21Z</time>
      </trkpt>
      <trkpt lat="44.91523" lon="6.68468">
        <ele>1540.65</ele>
        <time>2016-02-03T14:34:26Z</time>
      </trkpt>
      <trkpt lat="44.9151" lon="6.68456">
        <ele>1538.73</ele>
        <time>2016-02-03T14:34:34Z</time>
      </trkpt>
      <trkpt lat="44.91497" lon="6.68443">
        <ele>1536.8</ele>
        <time>2016-02-03T14:34:41Z</time>
      </trkpt>
      <trkpt lat="44.9147" lon="6.6842">
        <ele>1532.96</ele>
        <time>2016-02-03T14:34:54Z</time>
      </trkpt>
      <trkpt lat="44.91464" lon="6.68419">
        <ele>1532</ele>
        <time>2016-02-03T14:34:56Z</time>
      </trkpt>
      <trkpt lat="44.91462" lon="6.68402">
        <ele>1528.63</ele>
        <time>2016-02-03T14:35:04Z</time>
      </trkpt>
      <trkpt lat="44.91468" lon="6.68401">
        <ele>1528.15</ele>
        <time>2016-02-03T14:35:06Z</time>
      </trkpt>
      <trkpt lat="44.91482" lon="6.68405">
        <ele>1526.23</ele>
        <time>2016-02-03T14:35:10Z</time>
      </trkpt>
      <trkpt lat="44.91491" lon="6.68406">
        <ele>1524.79</ele>
        <time>2016-02-03T14:35:13Z</time>
      </trkpt>
      <trkpt lat="44.91498" lon="6.68408">
        <ele>1522.87</ele>
        <time>2016-02-03T14:35:20Z</time>
      </trkpt>
      <trkpt lat="44.91504" lon="6.68408">
        <ele>1522.87</ele>
        <time>2016-02-03T14:35:38Z</time>
      </trkpt>
      <trkpt lat="44.91506" lon="6.68407">
        <ele>1522.39</ele>
        <time>2016-02-03T14:35:39Z</time>
      </trkpt>
      <trkpt lat="44.91522" lon="6.68411">
        <ele>1519.02</ele>
        <time>2016-02-03T14:35:44Z</time>
      </trkpt>
      <trkpt lat="44.91529" lon="6.6841">
        <ele>1518.06</ele>
        <time>2016-02-03T14:35:46Z</time>
      </trkpt>
      <trkpt lat="44.91536" lon="6.68409">
        <ele>1516.62</ele>
        <time>2016-02-03T14:35:48Z</time>
      </trkpt>
      <trkpt lat="44.91542" lon="6.68409">
        <ele>1515.66</ele>
        <time>2016-02-03T14:35:50Z</time>
      </trkpt>
      <trkpt lat="44.91559" lon="6.68417">
        <ele>1512.77</ele>
        <time>2016-02-03T14:35:56Z</time>
      </trkpt>
      <trkpt lat="44.91561" lon="6.68421">
        <ele>1513.73</ele>
        <time>2016-02-03T14:35:58Z</time>
      </trkpt>
      <trkpt lat="44.91576" lon="6.68453">
        <ele>1510.85</ele>
        <time>2016-02-03T14:36:12Z</time>
      </trkpt>
      <trkpt lat="44.91597" lon="6.68484">
        <ele>1507.97</ele>
        <time>2016-02-03T14:36:24Z</time>
      </trkpt>
      <trkpt lat="44.91599" lon="6.68486">
        <ele>1507.48</ele>
        <time>2016-02-03T14:36:25Z</time>
      </trkpt>
      <trkpt lat="44.91615" lon="6.68487">
        <ele>1505.08</ele>
        <time>2016-02-03T14:36:30Z</time>
      </trkpt>
      <trkpt lat="44.91625" lon="6.68485">
        <ele>1503.64</ele>
        <time>2016-02-03T14:36:38Z</time>
      </trkpt>
      <trkpt lat="44.91625" lon="6.68484">
        <ele>1503.16</ele>
        <time>2016-02-03T14:36:44Z</time>
      </trkpt>
      <trkpt lat="44.91633" lon="6.6848">
        <ele>1502.2</ele>
        <time>2016-02-03T14:36:49Z</time>
      </trkpt>
      <trkpt lat="44.91652" lon="6.68472">
        <ele>1498.83</ele>
        <time>2016-02-03T14:36:55Z</time>
      </trkpt>
      <trkpt lat="44.91675" lon="6.68497">
        <ele>1495.95</ele>
        <time>2016-02-03T14:37:06Z</time>
      </trkpt>
      <trkpt lat="44.91678" lon="6.68504">
        <ele>1494.99</ele>
        <time>2016-02-03T14:37:08Z</time>
      </trkpt>
      <trkpt lat="44.91698" lon="6.68559">
        <ele>1491.62</ele>
        <time>2016-02-03T14:37:22Z</time>
      </trkpt>
      <trkpt lat="44.91703" lon="6.68612">
        <ele>1489.22</ele>
        <time>2016-02-03T14:37:35Z</time>
      </trkpt>
      <trkpt lat="44.91701" lon="6.68627">
        <ele>1487.78</ele>
        <time>2016-02-03T14:37:38Z</time>
      </trkpt>
      <trkpt lat="44.91715" lon="6.68635">
        <ele>1485.85</ele>
        <time>2016-02-03T14:37:44Z</time>
      </trkpt>
      <trkpt lat="44.91716" lon="6.68633">
        <ele>1485.85</ele>
        <time>2016-02-03T14:37:58Z</time>
      </trkpt>
      <trkpt lat="44.91716" lon="6.68632">
        <ele>1486.34</ele>
        <time>2016-02-03T14:38:08Z</time>
      </trkpt>
      <trkpt lat="44.91714" lon="6.68613">
        <ele>1482.97</ele>
        <time>2016-02-03T14:38:14Z</time>
      </trkpt>
      <trkpt lat="44.91713" lon="6.68558">
        <ele>1480.09</ele>
        <time>2016-02-03T14:38:25Z</time>
      </trkpt>
      <trkpt lat="44.91707" lon="6.6852">
        <ele>1476.72</ele>
        <time>2016-02-03T14:38:33Z</time>
      </trkpt>
      <trkpt lat="44.9171" lon="6.68467">
        <ele>1474.32</ele>
        <time>2016-02-03T14:38:45Z</time>
      </trkpt>
      <trkpt lat="44.91708" lon="6.68457">
        <ele>1472.88</ele>
        <time>2016-02-03T14:38:55Z</time>
      </trkpt>
      <trkpt lat="44.91706" lon="6.68456">
        <ele>1472.88</ele>
        <time>2016-02-03T14:39:03Z</time>
      </trkpt>
      <trkpt lat="44.91689" lon="6.68432">
        <ele>1469.03</ele>
        <time>2016-02-03T14:39:12Z</time>
      </trkpt>
      <trkpt lat="44.91678" lon="6.68414">
        <ele>1466.15</ele>
        <time>2016-02-03T14:39:16Z</time>
      </trkpt>
      <trkpt lat="44.91669" lon="6.68406">
        <ele>1465.19</ele>
        <time>2016-02-03T14:39:19Z</time>
      </trkpt>
      <trkpt lat="44.91646" lon="6.68397">
        <ele>1463.26</ele>
        <time>2016-02-03T14:39:30Z</time>
      </trkpt>
      <trkpt lat="44.91625" lon="6.68376">
        <ele>1459.9</ele>
        <time>2016-02-03T14:39:42Z</time>
      </trkpt>
      <trkpt lat="44.91621" lon="6.68362">
        <ele>1457.5</ele>
        <time>2016-02-03T14:39:46Z</time>
      </trkpt>
      <trkpt lat="44.91605" lon="6.68335">
        <ele>1456.53</ele>
        <time>2016-02-03T14:39:57Z</time>
      </trkpt>
      <trkpt lat="44.91584" lon="6.68316">
        <ele>1453.17</ele>
        <time>2016-02-03T14:40:11Z</time>
      </trkpt>
      <trkpt lat="44.91579" lon="6.68312">
        <ele>1452.21</ele>
        <time>2016-02-03T14:40:13Z</time>
      </trkpt>
      <trkpt lat="44.91559" lon="6.68293">
        <ele>1448.84</ele>
        <time>2016-02-03T14:40:24Z</time>
      </trkpt>
      <trkpt lat="44.91534" lon="6.68271">
        <ele>1445.96</ele>
        <time>2016-02-03T14:40:36Z</time>
      </trkpt>
      <trkpt lat="44.91518" lon="6.68255">
        <ele>1443.56</ele>
        <time>2016-02-03T14:40:48Z</time>
      </trkpt>
      <trkpt lat="44.91518" lon="6.68254">
        <ele>1443.56</ele>
        <time>2016-02-03T14:40:51Z</time>
      </trkpt>
      <trkpt lat="44.91511" lon="6.68243">
        <ele>1442.11</ele>
        <time>2016-02-03T14:41:07Z</time>
      </trkpt>
      <trkpt lat="44.91511" lon="6.68245">
        <ele>1442.6</ele>
        <time>2016-02-03T14:41:30Z</time>
      </trkpt>
      <trkpt lat="44.9151" lon="6.68244">
        <ele>1442.11</ele>
        <time>2016-02-03T14:41:35Z</time>
      </trkpt>
      <trkpt lat="44.91495" lon="6.68225">
        <ele>1439.23</ele>
        <time>2016-02-03T14:41:42Z</time>
      </trkpt>
      <trkpt lat="44.91484" lon="6.68214">
        <ele>1438.27</ele>
        <time>2016-02-03T14:41:53Z</time>
      </trkpt>
      <trkpt lat="44.91482" lon="6.68211">
        <ele>1437.79</ele>
        <time>2016-02-03T14:42:16Z</time>
      </trkpt>
      <trkpt lat="44.91474" lon="6.68203">
        <ele>1436.83</ele>
        <time>2016-02-03T14:42:31Z</time>
      </trkpt>
      <trkpt lat="44.91471" lon="6.68198">
        <ele>1436.35</ele>
        <time>2016-02-03T14:42:46Z</time>
      </trkpt>
      <trkpt lat="44.91466" lon="6.68191">
        <ele>1434.91</ele>
        <time>2016-02-03T14:43:02Z</time>
      </trkpt>
      <trkpt lat="44.91464" lon="6.68182">
        <ele>1434.91</ele>
        <time>2016-02-03T14:43:21Z</time>
      </trkpt>
      <trkpt lat="44.91456" lon="6.68169">
        <ele>1432.5</ele>
        <time>2016-02-03T14:43:32Z</time>
      </trkpt>
      <trkpt lat="44.91448" lon="6.6815">
        <ele>1430.58</ele>
        <time>2016-02-03T14:43:36Z</time>
      </trkpt>
      <trkpt lat="44.9145" lon="6.68122">
        <ele>1427.21</ele>
        <time>2016-02-03T14:43:42Z</time>
      </trkpt>
      <trkpt lat="44.9146" lon="6.68117">
        <ele>1425.29</ele>
        <time>2016-02-03T14:43:46Z</time>
      </trkpt>
      <trkpt lat="44.91465" lon="6.68119">
        <ele>1424.81</ele>
        <time>2016-02-03T14:43:49Z</time>
      </trkpt>
      <trkpt lat="44.91477" lon="6.68119">
        <ele>1422.89</ele>
        <time>2016-02-03T14:43:54Z</time>
      </trkpt>
      <trkpt lat="44.91482" lon="6.6812">
        <ele>1422.41</ele>
        <time>2016-02-03T14:44:02Z</time>
      </trkpt>
      <trkpt lat="44.91488" lon="6.68101">
        <ele>1420</ele>
        <time>2016-02-03T14:44:10Z</time>
      </trkpt>
      <trkpt lat="44.91484" lon="6.68067">
        <ele>1416.64</ele>
        <time>2016-02-03T14:44:17Z</time>
      </trkpt>
      <trkpt lat="44.91484" lon="6.68063">
        <ele>1416.16</ele>
        <time>2016-02-03T14:44:18Z</time>
      </trkpt>
      <trkpt lat="44.91484" lon="6.6805">
        <ele>1415.68</ele>
        <time>2016-02-03T14:44:29Z</time>
      </trkpt>
      <trkpt lat="44.91484" lon="6.68049">
        <ele>1415.2</ele>
        <time>2016-02-03T14:44:37Z</time>
      </trkpt>
      <trkpt lat="44.91491" lon="6.68041">
        <ele>1413.76</ele>
        <time>2016-02-03T14:44:45Z</time>
      </trkpt>
      <trkpt lat="44.91496" lon="6.68046">
        <ele>1412.79</ele>
        <time>2016-02-03T14:44:49Z</time>
      </trkpt>
      <trkpt lat="44.91507" lon="6.68046">
        <ele>1411.35</ele>
        <time>2016-02-03T14:44:53Z</time>
      </trkpt>
      <trkpt lat="44.91512" lon="6.68043">
        <ele>1410.87</ele>
        <time>2016-02-03T14:45:06Z</time>
      </trkpt>
      <trkpt lat="44.9151" lon="6.68045">
        <ele>1410.39</ele>
        <time>2016-02-03T14:45:27Z</time>
      </trkpt>
      <trkpt lat="44.91511" lon="6.68043">
        <ele>1410.39</ele>
        <time>2016-02-03T14:45:34Z</time>
      </trkpt>
      <trkpt lat="44.91519" lon="6.68026">
        <ele>1407.51</ele>
        <time>2016-02-03T14:45:42Z</time>
      </trkpt>
      <trkpt lat="44.91525" lon="6.68014">
        <ele>1406.07</ele>
        <time>2016-02-03T14:45:46Z</time>
      </trkpt>
      <trkpt lat="44.91534" lon="6.67983">
        <ele>1402.22</ele>
        <time>2016-02-03T14:45:55Z</time>
      </trkpt>
      <trkpt lat="44.91539" lon="6.67972">
        <ele>1400.78</ele>
        <time>2016-02-03T14:45:58Z</time>
      </trkpt>
      <trkpt lat="44.9154" lon="6.67965">
        <ele>1400.78</ele>
        <time>2016-02-03T14:46:06Z</time>
      </trkpt>
      <trkpt lat="44.91542" lon="6.67968">
        <ele>1399.82</ele>
        <time>2016-02-03T14:46:22Z</time>
      </trkpt>
      <trkpt lat="44.91543" lon="6.6797">
        <ele>1399.82</ele>
        <time>2016-02-03T14:46:43Z</time>
      </trkpt>
      <trkpt lat="44.91543" lon="6.67969">
        <ele>1399.82</ele>
        <time>2016-02-03T14:47:02Z</time>
      </trkpt>
      <trkpt lat="44.91545" lon="6.67967">
        <ele>1400.3</ele>
        <time>2016-02-03T14:47:21Z</time>
      </trkpt>
      <trkpt lat="44.91547" lon="6.67965">
        <ele>1399.82</ele>
        <time>2016-02-03T14:47:41Z</time>
      </trkpt>
      <trkpt lat="44.91555" lon="6.67961">
        <ele>1399.34</ele>
        <time>2016-02-03T14:47:56Z</time>
      </trkpt>
      <trkpt lat="44.9156" lon="6.6796">
        <ele>1398.86</ele>
        <time>2016-02-03T14:48:03Z</time>
      </trkpt>
      <trkpt lat="44.91569" lon="6.67955">
        <ele>1396.93</ele>
        <time>2016-02-03T14:48:18Z</time>
      </trkpt>
      <trkpt lat="44.91574" lon="6.67952">
        <ele>1396.45</ele>
        <time>2016-02-03T14:48:34Z</time>
      </trkpt>
      <trkpt lat="44.91575" lon="6.67947">
        <ele>1395.49</ele>
        <time>2016-02-03T14:48:48Z</time>
      </trkpt>
      <trkpt lat="44.91597" lon="6.67937">
        <ele>1392.61</ele>
        <time>2016-02-03T14:49:00Z</time>
      </trkpt>
      <trkpt lat="44.91618" lon="6.67916">
        <ele>1388.76</ele>
        <time>2016-02-03T14:49:06Z</time>
      </trkpt>
      <trkpt lat="44.91638" lon="6.67892">
        <ele>1385.88</ele>
        <time>2016-02-03T14:49:16Z</time>
      </trkpt>
      <trkpt lat="44.91655" lon="6.67871">
        <ele>1384.44</ele>
        <time>2016-02-03T14:49:27Z</time>
      </trkpt>
      <trkpt lat="44.91655" lon="6.67873">
        <ele>1384.92</ele>
        <time>2016-02-03T14:49:41Z</time>
      </trkpt>
      <trkpt lat="44.91656" lon="6.67871">
        <ele>1384.92</ele>
        <time>2016-02-03T14:49:49Z</time>
      </trkpt>
      <trkpt lat="44.91667" lon="6.67841">
        <ele>1381.55</ele>
        <time>2016-02-03T14:49:57Z</time>
      </trkpt>
      <trkpt lat="44.91678" lon="6.67818">
        <ele>1379.15</ele>
        <time>2016-02-03T14:50:03Z</time>
      </trkpt>
      <trkpt lat="44.91682" lon="6.67806">
        <ele>1378.19</ele>
        <time>2016-02-03T14:50:06Z</time>
      </trkpt>
      <trkpt lat="44.91691" lon="6.67767">
        <ele>1374.82</ele>
        <time>2016-02-03T14:50:16Z</time>
      </trkpt>
      <trkpt lat="44.91699" lon="6.67729">
        <ele>1371.94</ele>
        <time>2016-02-03T14:50:28Z</time>
      </trkpt>
      <trkpt lat="44.91706" lon="6.67689">
        <ele>1368.57</ele>
        <time>2016-02-03T14:50:40Z</time>
      </trkpt>
      <trkpt lat="44.917" lon="6.67654">
        <ele>1366.65</ele>
        <time>2016-02-03T14:50:54Z</time>
      </trkpt>
      <trkpt lat="44.91687" lon="6.67643">
        <ele>1365.69</ele>
        <time>2016-02-03T14:51:08Z</time>
      </trkpt>
      <trkpt lat="44.91681" lon="6.6764">
        <ele>1366.17</ele>
        <time>2016-02-03T14:51:22Z</time>
      </trkpt>
      <trkpt lat="44.91681" lon="6.67639">
        <ele>1366.17</ele>
        <time>2016-02-03T14:51:25Z</time>
      </trkpt>
      <trkpt lat="44.91668" lon="6.67627">
        <ele>1365.21</ele>
        <time>2016-02-03T14:51:38Z</time>
      </trkpt>
      <trkpt lat="44.91663" lon="6.6763">
        <ele>1365.21</ele>
        <time>2016-02-03T14:51:50Z</time>
      </trkpt>
      <trkpt lat="44.91662" lon="6.67631">
        <ele>1365.21</ele>
        <time>2016-02-03T14:51:52Z</time>
      </trkpt>
      <trkpt lat="44.91657" lon="6.67632">
        <ele>1365.21</ele>
        <time>2016-02-03T14:52:07Z</time>
      </trkpt>
      <trkpt lat="44.91656" lon="6.67631">
        <ele>1365.21</ele>
        <time>2016-02-03T14:52:11Z</time>
      </trkpt>
      <trkpt lat="44.9165" lon="6.67629">
        <ele>1364.73</ele>
        <time>2016-02-03T14:52:20Z</time>
      </trkpt>
      <trkpt lat="44.9165" lon="6.67628">
        <ele>1364.73</ele>
        <time>2016-02-03T14:52:38Z</time>
      </trkpt>
      <trkpt lat="44.9165" lon="6.67628">
        <ele>1364.25</ele>
        <time>2016-02-03T14:52:58Z</time>
      </trkpt>
      <trkpt lat="44.9165" lon="6.67629">
        <ele>1364.73</ele>
        <time>2016-02-03T14:53:12Z</time>
      </trkpt>
      <trkpt lat="44.91652" lon="6.6763">
        <ele>1364.73</ele>
        <time>2016-02-03T14:53:32Z</time>
      </trkpt>
      <trkpt lat="44.91649" lon="6.67622">
        <ele>1365.21</ele>
        <time>2016-02-03T14:53:48Z</time>
      </trkpt>
      <trkpt lat="44.91645" lon="6.67623">
        <ele>1364.73</ele>
        <time>2016-02-03T14:54:00Z</time>
      </trkpt>
      <trkpt lat="44.91648" lon="6.67617">
        <ele>1363.29</ele>
        <time>2016-02-03T14:54:16Z</time>
      </trkpt>
      <trkpt lat="44.91646" lon="6.67619">
        <ele>1363.29</ele>
        <time>2016-02-03T14:54:51Z</time>
      </trkpt>
      <trkpt lat="44.91647" lon="6.6762">
        <ele>1363.29</ele>
        <time>2016-02-03T14:55:31Z</time>
      </trkpt>
      <trkpt lat="44.91646" lon="6.6762">
        <ele>1363.77</ele>
        <time>2016-02-03T14:56:04Z</time>
      </trkpt>
      <trkpt lat="44.91645" lon="6.67623">
        <ele>1364.73</ele>
        <time>2016-02-03T14:56:43Z</time>
      </trkpt>
      <trkpt lat="44.91644" lon="6.67622">
        <ele>1365.69</ele>
        <time>2016-02-03T14:57:01Z</time>
      </trkpt>
    </trkseg>
  </trk>
</gpx>